<?xml version="1.0" encoding="UTF-8" standalone="no" ?>
<gpx xmlns="http://www.topografix.com/GPX/1/1" xmlns:xsi="http://www.w3.org/2001/XMLSchema-instance" xsi:schemaLocation="http://www.topografix.com/GPX/1/1 http://www.topografix.com/GPX/1/1/gpx.xsd" version="1.1" creator="VisuGPX - https://www.visugpx.com">
  <metadata>
    <name>footing mgroupe</name>
    <desc><![CDATA[layrac-marmont pachas-chemin-moirax-coteaux-layrac]]></desc>
  </metadata>
  <trk>
    <name><![CDATA[Footing groupe]]></name>
    <trkseg>
      <trkpt lat="44.12865" lon="0.65604">
        <ele>56</ele>
        <time>2014-08-24T06:28:37Z</time>
      </trkpt>
      <trkpt lat="44.12865" lon="0.65604">
        <ele>58</ele>
        <time>2014-08-24T06:28:53Z</time>
      </trkpt>
      <trkpt lat="44.12867" lon="0.65607">
        <ele>58</ele>
        <time>2014-08-24T06:29:08Z</time>
      </trkpt>
      <trkpt lat="44.12867" lon="0.65607">
        <ele>58</ele>
        <time>2014-08-24T06:29:23Z</time>
      </trkpt>
      <trkpt lat="44.12867" lon="0.65607">
        <ele>57</ele>
        <time>2014-08-24T06:29:38Z</time>
      </trkpt>
      <trkpt lat="44.12849" lon="0.6558">
        <ele>58</ele>
        <time>2014-08-24T06:29:44Z</time>
      </trkpt>
      <trkpt lat="44.12846" lon="0.65576">
        <ele>61</ele>
        <time>2014-08-24T06:29:53Z</time>
      </trkpt>
      <trkpt lat="44.12846" lon="0.65576">
        <ele>64</ele>
        <time>2014-08-24T06:30:08Z</time>
      </trkpt>
      <trkpt lat="44.12867" lon="0.65576">
        <ele>65</ele>
        <time>2014-08-24T06:30:17Z</time>
      </trkpt>
      <trkpt lat="44.12871" lon="0.65581">
        <ele>66</ele>
        <time>2014-08-24T06:30:20Z</time>
      </trkpt>
      <trkpt lat="44.12876" lon="0.65584">
        <ele>66</ele>
        <time>2014-08-24T06:30:23Z</time>
      </trkpt>
      <trkpt lat="44.1288" lon="0.65589">
        <ele>67</ele>
        <time>2014-08-24T06:30:26Z</time>
      </trkpt>
      <trkpt lat="44.12885" lon="0.65595">
        <ele>67</ele>
        <time>2014-08-24T06:30:29Z</time>
      </trkpt>
      <trkpt lat="44.12888" lon="0.65601">
        <ele>68</ele>
        <time>2014-08-24T06:30:32Z</time>
      </trkpt>
      <trkpt lat="44.12892" lon="0.65605">
        <ele>69</ele>
        <time>2014-08-24T06:30:34Z</time>
      </trkpt>
      <trkpt lat="44.12894" lon="0.65611">
        <ele>69</ele>
        <time>2014-08-24T06:30:36Z</time>
      </trkpt>
      <trkpt lat="44.12896" lon="0.65617">
        <ele>69</ele>
        <time>2014-08-24T06:30:38Z</time>
      </trkpt>
      <trkpt lat="44.129" lon="0.65622">
        <ele>70</ele>
        <time>2014-08-24T06:30:41Z</time>
      </trkpt>
      <trkpt lat="44.12902" lon="0.65629">
        <ele>70</ele>
        <time>2014-08-24T06:30:45Z</time>
      </trkpt>
      <trkpt lat="44.12903" lon="0.65637">
        <ele>71</ele>
        <time>2014-08-24T06:30:49Z</time>
      </trkpt>
      <trkpt lat="44.12903" lon="0.65646">
        <ele>71</ele>
        <time>2014-08-24T06:30:52Z</time>
      </trkpt>
      <trkpt lat="44.12902" lon="0.65654">
        <ele>71</ele>
        <time>2014-08-24T06:30:55Z</time>
      </trkpt>
      <trkpt lat="44.129" lon="0.65662">
        <ele>72</ele>
        <time>2014-08-24T06:30:58Z</time>
      </trkpt>
      <trkpt lat="44.12898" lon="0.65669">
        <ele>72</ele>
        <time>2014-08-24T06:31:01Z</time>
      </trkpt>
      <trkpt lat="44.12896" lon="0.65678">
        <ele>73</ele>
        <time>2014-08-24T06:31:04Z</time>
      </trkpt>
      <trkpt lat="44.12896" lon="0.6569">
        <ele>74</ele>
        <time>2014-08-24T06:31:20Z</time>
      </trkpt>
      <trkpt lat="44.12894" lon="0.657">
        <ele>74</ele>
        <time>2014-08-24T06:31:33Z</time>
      </trkpt>
      <trkpt lat="44.12895" lon="0.65708">
        <ele>73</ele>
        <time>2014-08-24T06:31:37Z</time>
      </trkpt>
      <trkpt lat="44.12895" lon="0.65716">
        <ele>73</ele>
        <time>2014-08-24T06:31:41Z</time>
      </trkpt>
      <trkpt lat="44.12893" lon="0.65723">
        <ele>73</ele>
        <time>2014-08-24T06:31:43Z</time>
      </trkpt>
      <trkpt lat="44.12892" lon="0.6573">
        <ele>73</ele>
        <time>2014-08-24T06:31:45Z</time>
      </trkpt>
      <trkpt lat="44.1289" lon="0.65738">
        <ele>73</ele>
        <time>2014-08-24T06:31:47Z</time>
      </trkpt>
      <trkpt lat="44.1289" lon="0.65745">
        <ele>73</ele>
        <time>2014-08-24T06:31:49Z</time>
      </trkpt>
      <trkpt lat="44.1289" lon="0.65752">
        <ele>73</ele>
        <time>2014-08-24T06:31:51Z</time>
      </trkpt>
      <trkpt lat="44.12889" lon="0.65759">
        <ele>73</ele>
        <time>2014-08-24T06:31:53Z</time>
      </trkpt>
      <trkpt lat="44.12889" lon="0.65766">
        <ele>72</ele>
        <time>2014-08-24T06:31:55Z</time>
      </trkpt>
      <trkpt lat="44.12888" lon="0.65775">
        <ele>72</ele>
        <time>2014-08-24T06:31:57Z</time>
      </trkpt>
      <trkpt lat="44.12888" lon="0.65781">
        <ele>72</ele>
        <time>2014-08-24T06:31:59Z</time>
      </trkpt>
      <trkpt lat="44.12887" lon="0.65788">
        <ele>72</ele>
        <time>2014-08-24T06:32:01Z</time>
      </trkpt>
      <trkpt lat="44.12886" lon="0.65796">
        <ele>72</ele>
        <time>2014-08-24T06:32:03Z</time>
      </trkpt>
      <trkpt lat="44.12884" lon="0.65805">
        <ele>71</ele>
        <time>2014-08-24T06:32:06Z</time>
      </trkpt>
      <trkpt lat="44.12883" lon="0.65812">
        <ele>71</ele>
        <time>2014-08-24T06:32:08Z</time>
      </trkpt>
      <trkpt lat="44.12883" lon="0.6582">
        <ele>71</ele>
        <time>2014-08-24T06:32:10Z</time>
      </trkpt>
      <trkpt lat="44.12882" lon="0.65827">
        <ele>71</ele>
        <time>2014-08-24T06:32:12Z</time>
      </trkpt>
      <trkpt lat="44.12882" lon="0.65834">
        <ele>70</ele>
        <time>2014-08-24T06:32:14Z</time>
      </trkpt>
      <trkpt lat="44.12882" lon="0.65841">
        <ele>70</ele>
        <time>2014-08-24T06:32:17Z</time>
      </trkpt>
      <trkpt lat="44.12886" lon="0.65848">
        <ele>70</ele>
        <time>2014-08-24T06:32:20Z</time>
      </trkpt>
      <trkpt lat="44.12892" lon="0.65852">
        <ele>70</ele>
        <time>2014-08-24T06:32:23Z</time>
      </trkpt>
      <trkpt lat="44.12898" lon="0.65852">
        <ele>70</ele>
        <time>2014-08-24T06:32:25Z</time>
      </trkpt>
      <trkpt lat="44.12902" lon="0.65852">
        <ele>70</ele>
        <time>2014-08-24T06:32:27Z</time>
      </trkpt>
      <trkpt lat="44.12907" lon="0.65854">
        <ele>70</ele>
        <time>2014-08-24T06:32:29Z</time>
      </trkpt>
      <trkpt lat="44.12912" lon="0.65856">
        <ele>70</ele>
        <time>2014-08-24T06:32:32Z</time>
      </trkpt>
      <trkpt lat="44.12917" lon="0.6586">
        <ele>70</ele>
        <time>2014-08-24T06:32:35Z</time>
      </trkpt>
      <trkpt lat="44.12922" lon="0.65862">
        <ele>71</ele>
        <time>2014-08-24T06:32:37Z</time>
      </trkpt>
      <trkpt lat="44.12928" lon="0.65863">
        <ele>71</ele>
        <time>2014-08-24T06:32:40Z</time>
      </trkpt>
      <trkpt lat="44.12934" lon="0.65866">
        <ele>71</ele>
        <time>2014-08-24T06:32:43Z</time>
      </trkpt>
      <trkpt lat="44.1294" lon="0.65868">
        <ele>71</ele>
        <time>2014-08-24T06:32:46Z</time>
      </trkpt>
      <trkpt lat="44.12945" lon="0.65868">
        <ele>71</ele>
        <time>2014-08-24T06:32:48Z</time>
      </trkpt>
      <trkpt lat="44.1295" lon="0.65869">
        <ele>71</ele>
        <time>2014-08-24T06:32:51Z</time>
      </trkpt>
      <trkpt lat="44.12955" lon="0.65869">
        <ele>71</ele>
        <time>2014-08-24T06:32:53Z</time>
      </trkpt>
      <trkpt lat="44.12961" lon="0.65872">
        <ele>71</ele>
        <time>2014-08-24T06:32:56Z</time>
      </trkpt>
      <trkpt lat="44.12966" lon="0.65874">
        <ele>71</ele>
        <time>2014-08-24T06:32:58Z</time>
      </trkpt>
      <trkpt lat="44.12972" lon="0.65876">
        <ele>71</ele>
        <time>2014-08-24T06:33:01Z</time>
      </trkpt>
      <trkpt lat="44.12977" lon="0.65877">
        <ele>72</ele>
        <time>2014-08-24T06:33:04Z</time>
      </trkpt>
      <trkpt lat="44.12983" lon="0.65878">
        <ele>72</ele>
        <time>2014-08-24T06:33:07Z</time>
      </trkpt>
      <trkpt lat="44.12989" lon="0.65879">
        <ele>72</ele>
        <time>2014-08-24T06:33:09Z</time>
      </trkpt>
      <trkpt lat="44.12994" lon="0.65879">
        <ele>72</ele>
        <time>2014-08-24T06:33:11Z</time>
      </trkpt>
      <trkpt lat="44.13001" lon="0.6588">
        <ele>72</ele>
        <time>2014-08-24T06:33:14Z</time>
      </trkpt>
      <trkpt lat="44.13005" lon="0.65879">
        <ele>72</ele>
        <time>2014-08-24T06:33:17Z</time>
      </trkpt>
      <trkpt lat="44.1301" lon="0.6588">
        <ele>72</ele>
        <time>2014-08-24T06:33:19Z</time>
      </trkpt>
      <trkpt lat="44.13015" lon="0.6588">
        <ele>72</ele>
        <time>2014-08-24T06:33:21Z</time>
      </trkpt>
      <trkpt lat="44.13021" lon="0.6588">
        <ele>72</ele>
        <time>2014-08-24T06:33:24Z</time>
      </trkpt>
      <trkpt lat="44.13026" lon="0.65882">
        <ele>71</ele>
        <time>2014-08-24T06:33:27Z</time>
      </trkpt>
      <trkpt lat="44.13031" lon="0.65884">
        <ele>71</ele>
        <time>2014-08-24T06:33:29Z</time>
      </trkpt>
      <trkpt lat="44.13036" lon="0.65885">
        <ele>71</ele>
        <time>2014-08-24T06:33:32Z</time>
      </trkpt>
      <trkpt lat="44.13042" lon="0.65888">
        <ele>71</ele>
        <time>2014-08-24T06:33:35Z</time>
      </trkpt>
      <trkpt lat="44.13047" lon="0.6589">
        <ele>71</ele>
        <time>2014-08-24T06:33:37Z</time>
      </trkpt>
      <trkpt lat="44.13053" lon="0.65894">
        <ele>71</ele>
        <time>2014-08-24T06:33:40Z</time>
      </trkpt>
      <trkpt lat="44.13059" lon="0.65897">
        <ele>71</ele>
        <time>2014-08-24T06:33:42Z</time>
      </trkpt>
      <trkpt lat="44.13063" lon="0.65899">
        <ele>71</ele>
        <time>2014-08-24T06:33:44Z</time>
      </trkpt>
      <trkpt lat="44.13067" lon="0.65902">
        <ele>71</ele>
        <time>2014-08-24T06:33:46Z</time>
      </trkpt>
      <trkpt lat="44.13071" lon="0.65904">
        <ele>70</ele>
        <time>2014-08-24T06:33:48Z</time>
      </trkpt>
      <trkpt lat="44.13076" lon="0.65906">
        <ele>70</ele>
        <time>2014-08-24T06:33:50Z</time>
      </trkpt>
      <trkpt lat="44.1308" lon="0.65908">
        <ele>70</ele>
        <time>2014-08-24T06:33:52Z</time>
      </trkpt>
      <trkpt lat="44.13085" lon="0.6591">
        <ele>70</ele>
        <time>2014-08-24T06:33:54Z</time>
      </trkpt>
      <trkpt lat="44.13089" lon="0.65912">
        <ele>70</ele>
        <time>2014-08-24T06:33:56Z</time>
      </trkpt>
      <trkpt lat="44.13094" lon="0.65915">
        <ele>70</ele>
        <time>2014-08-24T06:33:58Z</time>
      </trkpt>
      <trkpt lat="44.131" lon="0.65918">
        <ele>70</ele>
        <time>2014-08-24T06:34:01Z</time>
      </trkpt>
      <trkpt lat="44.13105" lon="0.65922">
        <ele>70</ele>
        <time>2014-08-24T06:34:04Z</time>
      </trkpt>
      <trkpt lat="44.13111" lon="0.65925">
        <ele>70</ele>
        <time>2014-08-24T06:34:07Z</time>
      </trkpt>
      <trkpt lat="44.13118" lon="0.65928">
        <ele>69</ele>
        <time>2014-08-24T06:34:10Z</time>
      </trkpt>
      <trkpt lat="44.13122" lon="0.6593">
        <ele>69</ele>
        <time>2014-08-24T06:34:12Z</time>
      </trkpt>
      <trkpt lat="44.13126" lon="0.65932">
        <ele>69</ele>
        <time>2014-08-24T06:34:14Z</time>
      </trkpt>
      <trkpt lat="44.13131" lon="0.65935">
        <ele>69</ele>
        <time>2014-08-24T06:34:16Z</time>
      </trkpt>
      <trkpt lat="44.13136" lon="0.65936">
        <ele>68</ele>
        <time>2014-08-24T06:34:18Z</time>
      </trkpt>
      <trkpt lat="44.13141" lon="0.65939">
        <ele>68</ele>
        <time>2014-08-24T06:34:20Z</time>
      </trkpt>
      <trkpt lat="44.13147" lon="0.6594">
        <ele>68</ele>
        <time>2014-08-24T06:34:23Z</time>
      </trkpt>
      <trkpt lat="44.13152" lon="0.6594">
        <ele>68</ele>
        <time>2014-08-24T06:34:26Z</time>
      </trkpt>
      <trkpt lat="44.13157" lon="0.65941">
        <ele>68</ele>
        <time>2014-08-24T06:34:28Z</time>
      </trkpt>
      <trkpt lat="44.13163" lon="0.65941">
        <ele>68</ele>
        <time>2014-08-24T06:34:31Z</time>
      </trkpt>
      <trkpt lat="44.13169" lon="0.65941">
        <ele>68</ele>
        <time>2014-08-24T06:34:34Z</time>
      </trkpt>
      <trkpt lat="44.13174" lon="0.65943">
        <ele>68</ele>
        <time>2014-08-24T06:34:37Z</time>
      </trkpt>
      <trkpt lat="44.1318" lon="0.65945">
        <ele>68</ele>
        <time>2014-08-24T06:34:39Z</time>
      </trkpt>
      <trkpt lat="44.13186" lon="0.65947">
        <ele>67</ele>
        <time>2014-08-24T06:34:41Z</time>
      </trkpt>
      <trkpt lat="44.13191" lon="0.65949">
        <ele>67</ele>
        <time>2014-08-24T06:34:43Z</time>
      </trkpt>
      <trkpt lat="44.13197" lon="0.65952">
        <ele>67</ele>
        <time>2014-08-24T06:34:46Z</time>
      </trkpt>
      <trkpt lat="44.13202" lon="0.65955">
        <ele>67</ele>
        <time>2014-08-24T06:34:49Z</time>
      </trkpt>
      <trkpt lat="44.13208" lon="0.65958">
        <ele>67</ele>
        <time>2014-08-24T06:34:52Z</time>
      </trkpt>
      <trkpt lat="44.13213" lon="0.6596">
        <ele>67</ele>
        <time>2014-08-24T06:34:54Z</time>
      </trkpt>
      <trkpt lat="44.13219" lon="0.65964">
        <ele>67</ele>
        <time>2014-08-24T06:34:57Z</time>
      </trkpt>
      <trkpt lat="44.13223" lon="0.65967">
        <ele>67</ele>
        <time>2014-08-24T06:34:59Z</time>
      </trkpt>
      <trkpt lat="44.13228" lon="0.6597">
        <ele>67</ele>
        <time>2014-08-24T06:35:02Z</time>
      </trkpt>
      <trkpt lat="44.13234" lon="0.65974">
        <ele>67</ele>
        <time>2014-08-24T06:35:05Z</time>
      </trkpt>
      <trkpt lat="44.13239" lon="0.65978">
        <ele>67</ele>
        <time>2014-08-24T06:35:08Z</time>
      </trkpt>
      <trkpt lat="44.13245" lon="0.65982">
        <ele>67</ele>
        <time>2014-08-24T06:35:11Z</time>
      </trkpt>
      <trkpt lat="44.1325" lon="0.65987">
        <ele>67</ele>
        <time>2014-08-24T06:35:15Z</time>
      </trkpt>
      <trkpt lat="44.13255" lon="0.65989">
        <ele>67</ele>
        <time>2014-08-24T06:35:18Z</time>
      </trkpt>
      <trkpt lat="44.1326" lon="0.65993">
        <ele>66</ele>
        <time>2014-08-24T06:35:21Z</time>
      </trkpt>
      <trkpt lat="44.13265" lon="0.65998">
        <ele>66</ele>
        <time>2014-08-24T06:35:24Z</time>
      </trkpt>
      <trkpt lat="44.13271" lon="0.65998">
        <ele>66</ele>
        <time>2014-08-24T06:35:27Z</time>
      </trkpt>
      <trkpt lat="44.13275" lon="0.65996">
        <ele>66</ele>
        <time>2014-08-24T06:35:34Z</time>
      </trkpt>
      <trkpt lat="44.13279" lon="0.65999">
        <ele>66</ele>
        <time>2014-08-24T06:35:40Z</time>
      </trkpt>
      <trkpt lat="44.13284" lon="0.66002">
        <ele>68</ele>
        <time>2014-08-24T06:35:47Z</time>
      </trkpt>
      <trkpt lat="44.13284" lon="0.66003">
        <ele>68</ele>
        <time>2014-08-24T06:36:08Z</time>
      </trkpt>
      <trkpt lat="44.13284" lon="0.66003">
        <ele>69</ele>
        <time>2014-08-24T06:36:23Z</time>
      </trkpt>
      <trkpt lat="44.13283" lon="0.66004">
        <ele>70</ele>
        <time>2014-08-24T06:36:38Z</time>
      </trkpt>
      <trkpt lat="44.13283" lon="0.66004">
        <ele>70</ele>
        <time>2014-08-24T06:36:53Z</time>
      </trkpt>
      <trkpt lat="44.13283" lon="0.66004">
        <ele>70</ele>
        <time>2014-08-24T06:37:08Z</time>
      </trkpt>
      <trkpt lat="44.13283" lon="0.66005">
        <ele>69</ele>
        <time>2014-08-24T06:37:23Z</time>
      </trkpt>
      <trkpt lat="44.13282" lon="0.66005">
        <ele>69</ele>
        <time>2014-08-24T06:37:38Z</time>
      </trkpt>
      <trkpt lat="44.13283" lon="0.66004">
        <ele>67</ele>
        <time>2014-08-24T06:37:53Z</time>
      </trkpt>
      <trkpt lat="44.13283" lon="0.66005">
        <ele>68</ele>
        <time>2014-08-24T06:38:08Z</time>
      </trkpt>
      <trkpt lat="44.13283" lon="0.66007">
        <ele>71</ele>
        <time>2014-08-24T06:38:23Z</time>
      </trkpt>
      <trkpt lat="44.13283" lon="0.66007">
        <ele>71</ele>
        <time>2014-08-24T06:38:38Z</time>
      </trkpt>
      <trkpt lat="44.13282" lon="0.66008">
        <ele>72</ele>
        <time>2014-08-24T06:38:53Z</time>
      </trkpt>
      <trkpt lat="44.13282" lon="0.66009">
        <ele>74</ele>
        <time>2014-08-24T06:39:00Z</time>
      </trkpt>
      <trkpt lat="44.13282" lon="0.66014">
        <ele>78</ele>
        <time>2014-08-24T06:39:23Z</time>
      </trkpt>
      <trkpt lat="44.13282" lon="0.66015">
        <ele>78</ele>
        <time>2014-08-24T06:39:27Z</time>
      </trkpt>
      <trkpt lat="44.13283" lon="0.66017">
        <ele>78</ele>
        <time>2014-08-24T06:39:38Z</time>
      </trkpt>
      <trkpt lat="44.13283" lon="0.66017">
        <ele>78</ele>
        <time>2014-08-24T06:39:53Z</time>
      </trkpt>
      <trkpt lat="44.13283" lon="0.66017">
        <ele>78</ele>
        <time>2014-08-24T06:40:08Z</time>
      </trkpt>
      <trkpt lat="44.13283" lon="0.66017">
        <ele>79</ele>
        <time>2014-08-24T06:40:23Z</time>
      </trkpt>
      <trkpt lat="44.13283" lon="0.66017">
        <ele>80</ele>
        <time>2014-08-24T06:40:38Z</time>
      </trkpt>
      <trkpt lat="44.13283" lon="0.66017">
        <ele>80</ele>
        <time>2014-08-24T06:40:53Z</time>
      </trkpt>
      <trkpt lat="44.13283" lon="0.66017">
        <ele>80</ele>
        <time>2014-08-24T06:41:08Z</time>
      </trkpt>
      <trkpt lat="44.13283" lon="0.66017">
        <ele>80</ele>
        <time>2014-08-24T06:41:23Z</time>
      </trkpt>
      <trkpt lat="44.13283" lon="0.66018">
        <ele>80</ele>
        <time>2014-08-24T06:41:38Z</time>
      </trkpt>
      <trkpt lat="44.13283" lon="0.66018">
        <ele>79</ele>
        <time>2014-08-24T06:41:53Z</time>
      </trkpt>
      <trkpt lat="44.13283" lon="0.66018">
        <ele>78</ele>
        <time>2014-08-24T06:42:08Z</time>
      </trkpt>
      <trkpt lat="44.13283" lon="0.66018">
        <ele>78</ele>
        <time>2014-08-24T06:42:23Z</time>
      </trkpt>
      <trkpt lat="44.13283" lon="0.66018">
        <ele>77</ele>
        <time>2014-08-24T06:42:38Z</time>
      </trkpt>
      <trkpt lat="44.13283" lon="0.66018">
        <ele>76</ele>
        <time>2014-08-24T06:42:53Z</time>
      </trkpt>
      <trkpt lat="44.13283" lon="0.66018">
        <ele>76</ele>
        <time>2014-08-24T06:43:08Z</time>
      </trkpt>
      <trkpt lat="44.13283" lon="0.66018">
        <ele>77</ele>
        <time>2014-08-24T06:43:23Z</time>
      </trkpt>
      <trkpt lat="44.13283" lon="0.66018">
        <ele>77</ele>
        <time>2014-08-24T06:43:38Z</time>
      </trkpt>
      <trkpt lat="44.13283" lon="0.66018">
        <ele>78</ele>
        <time>2014-08-24T06:43:53Z</time>
      </trkpt>
      <trkpt lat="44.13283" lon="0.66018">
        <ele>78</ele>
        <time>2014-08-24T06:44:08Z</time>
      </trkpt>
      <trkpt lat="44.13283" lon="0.66018">
        <ele>78</ele>
        <time>2014-08-24T06:44:23Z</time>
      </trkpt>
      <trkpt lat="44.13283" lon="0.66017">
        <ele>78</ele>
        <time>2014-08-24T06:44:38Z</time>
      </trkpt>
      <trkpt lat="44.13281" lon="0.6602">
        <ele>78</ele>
        <time>2014-08-24T06:44:53Z</time>
      </trkpt>
      <trkpt lat="44.13279" lon="0.6602">
        <ele>78</ele>
        <time>2014-08-24T06:45:01Z</time>
      </trkpt>
      <trkpt lat="44.1328" lon="0.66017">
        <ele>77</ele>
        <time>2014-08-24T06:45:23Z</time>
      </trkpt>
      <trkpt lat="44.1328" lon="0.66014">
        <ele>73</ele>
        <time>2014-08-24T06:45:38Z</time>
      </trkpt>
      <trkpt lat="44.13281" lon="0.66019">
        <ele>71</ele>
        <time>2014-08-24T06:45:53Z</time>
      </trkpt>
      <trkpt lat="44.13283" lon="0.66015">
        <ele>69</ele>
        <time>2014-08-24T06:46:03Z</time>
      </trkpt>
      <trkpt lat="44.13284" lon="0.66009">
        <ele>68</ele>
        <time>2014-08-24T06:46:12Z</time>
      </trkpt>
      <trkpt lat="44.13284" lon="0.66009">
        <ele>68</ele>
        <time>2014-08-24T06:46:23Z</time>
      </trkpt>
      <trkpt lat="44.13281" lon="0.66009">
        <ele>66</ele>
        <time>2014-08-24T06:46:38Z</time>
      </trkpt>
      <trkpt lat="44.13279" lon="0.66009">
        <ele>66</ele>
        <time>2014-08-24T06:46:41Z</time>
      </trkpt>
      <trkpt lat="44.13275" lon="0.66005">
        <ele>66</ele>
        <time>2014-08-24T06:46:45Z</time>
      </trkpt>
      <trkpt lat="44.1327" lon="0.66">
        <ele>66</ele>
        <time>2014-08-24T06:46:49Z</time>
      </trkpt>
      <trkpt lat="44.13266" lon="0.65994">
        <ele>66</ele>
        <time>2014-08-24T06:46:53Z</time>
      </trkpt>
      <trkpt lat="44.13261" lon="0.65989">
        <ele>66</ele>
        <time>2014-08-24T06:46:57Z</time>
      </trkpt>
      <trkpt lat="44.13258" lon="0.65984">
        <ele>66</ele>
        <time>2014-08-24T06:47:00Z</time>
      </trkpt>
      <trkpt lat="44.13253" lon="0.6598">
        <ele>66</ele>
        <time>2014-08-24T06:47:03Z</time>
      </trkpt>
      <trkpt lat="44.13248" lon="0.65975">
        <ele>65</ele>
        <time>2014-08-24T06:47:06Z</time>
      </trkpt>
      <trkpt lat="44.13242" lon="0.65972">
        <ele>65</ele>
        <time>2014-08-24T06:47:09Z</time>
      </trkpt>
      <trkpt lat="44.13237" lon="0.65968">
        <ele>65</ele>
        <time>2014-08-24T06:47:12Z</time>
      </trkpt>
      <trkpt lat="44.13232" lon="0.65965">
        <ele>66</ele>
        <time>2014-08-24T06:47:15Z</time>
      </trkpt>
      <trkpt lat="44.13226" lon="0.65962">
        <ele>66</ele>
        <time>2014-08-24T06:47:18Z</time>
      </trkpt>
      <trkpt lat="44.13221" lon="0.65959">
        <ele>66</ele>
        <time>2014-08-24T06:47:21Z</time>
      </trkpt>
      <trkpt lat="44.13216" lon="0.65956">
        <ele>66</ele>
        <time>2014-08-24T06:47:24Z</time>
      </trkpt>
      <trkpt lat="44.13211" lon="0.65954">
        <ele>66</ele>
        <time>2014-08-24T06:47:27Z</time>
      </trkpt>
      <trkpt lat="44.13206" lon="0.65951">
        <ele>66</ele>
        <time>2014-08-24T06:47:30Z</time>
      </trkpt>
      <trkpt lat="44.13201" lon="0.6595">
        <ele>66</ele>
        <time>2014-08-24T06:47:33Z</time>
      </trkpt>
      <trkpt lat="44.13196" lon="0.65948">
        <ele>66</ele>
        <time>2014-08-24T06:47:35Z</time>
      </trkpt>
      <trkpt lat="44.13191" lon="0.65944">
        <ele>66</ele>
        <time>2014-08-24T06:47:38Z</time>
      </trkpt>
      <trkpt lat="44.13186" lon="0.65941">
        <ele>67</ele>
        <time>2014-08-24T06:47:41Z</time>
      </trkpt>
      <trkpt lat="44.1318" lon="0.6594">
        <ele>67</ele>
        <time>2014-08-24T06:47:44Z</time>
      </trkpt>
      <trkpt lat="44.13173" lon="0.65937">
        <ele>67</ele>
        <time>2014-08-24T06:47:47Z</time>
      </trkpt>
      <trkpt lat="44.13167" lon="0.65935">
        <ele>67</ele>
        <time>2014-08-24T06:47:50Z</time>
      </trkpt>
      <trkpt lat="44.13162" lon="0.65939">
        <ele>67</ele>
        <time>2014-08-24T06:47:53Z</time>
      </trkpt>
      <trkpt lat="44.13157" lon="0.6594">
        <ele>67</ele>
        <time>2014-08-24T06:47:56Z</time>
      </trkpt>
      <trkpt lat="44.13151" lon="0.65941">
        <ele>66</ele>
        <time>2014-08-24T06:48:00Z</time>
      </trkpt>
      <trkpt lat="44.13145" lon="0.6594">
        <ele>66</ele>
        <time>2014-08-24T06:48:03Z</time>
      </trkpt>
      <trkpt lat="44.13139" lon="0.65938">
        <ele>66</ele>
        <time>2014-08-24T06:48:06Z</time>
      </trkpt>
      <trkpt lat="44.13133" lon="0.65936">
        <ele>66</ele>
        <time>2014-08-24T06:48:09Z</time>
      </trkpt>
      <trkpt lat="44.13128" lon="0.65935">
        <ele>67</ele>
        <time>2014-08-24T06:48:11Z</time>
      </trkpt>
      <trkpt lat="44.13124" lon="0.65933">
        <ele>66</ele>
        <time>2014-08-24T06:48:13Z</time>
      </trkpt>
      <trkpt lat="44.1312" lon="0.6593">
        <ele>66</ele>
        <time>2014-08-24T06:48:15Z</time>
      </trkpt>
      <trkpt lat="44.13115" lon="0.65926">
        <ele>66</ele>
        <time>2014-08-24T06:48:17Z</time>
      </trkpt>
      <trkpt lat="44.1311" lon="0.65922">
        <ele>67</ele>
        <time>2014-08-24T06:48:20Z</time>
      </trkpt>
      <trkpt lat="44.13104" lon="0.65919">
        <ele>67</ele>
        <time>2014-08-24T06:48:22Z</time>
      </trkpt>
      <trkpt lat="44.13099" lon="0.65916">
        <ele>67</ele>
        <time>2014-08-24T06:48:24Z</time>
      </trkpt>
      <trkpt lat="44.13094" lon="0.65912">
        <ele>67</ele>
        <time>2014-08-24T06:48:27Z</time>
      </trkpt>
      <trkpt lat="44.13088" lon="0.65908">
        <ele>66</ele>
        <time>2014-08-24T06:48:30Z</time>
      </trkpt>
      <trkpt lat="44.13082" lon="0.65905">
        <ele>66</ele>
        <time>2014-08-24T06:48:33Z</time>
      </trkpt>
      <trkpt lat="44.13076" lon="0.65902">
        <ele>66</ele>
        <time>2014-08-24T06:48:36Z</time>
      </trkpt>
      <trkpt lat="44.1307" lon="0.65899">
        <ele>66</ele>
        <time>2014-08-24T06:48:39Z</time>
      </trkpt>
      <trkpt lat="44.13065" lon="0.65897">
        <ele>67</ele>
        <time>2014-08-24T06:48:41Z</time>
      </trkpt>
      <trkpt lat="44.1306" lon="0.65895">
        <ele>67</ele>
        <time>2014-08-24T06:48:44Z</time>
      </trkpt>
      <trkpt lat="44.13054" lon="0.65892">
        <ele>66</ele>
        <time>2014-08-24T06:48:47Z</time>
      </trkpt>
      <trkpt lat="44.13048" lon="0.6589">
        <ele>66</ele>
        <time>2014-08-24T06:48:50Z</time>
      </trkpt>
      <trkpt lat="44.13042" lon="0.65888">
        <ele>66</ele>
        <time>2014-08-24T06:48:53Z</time>
      </trkpt>
      <trkpt lat="44.13036" lon="0.65887">
        <ele>66</ele>
        <time>2014-08-24T06:48:56Z</time>
      </trkpt>
      <trkpt lat="44.1303" lon="0.65886">
        <ele>66</ele>
        <time>2014-08-24T06:48:59Z</time>
      </trkpt>
      <trkpt lat="44.13025" lon="0.65884">
        <ele>66</ele>
        <time>2014-08-24T06:49:01Z</time>
      </trkpt>
      <trkpt lat="44.13019" lon="0.65882">
        <ele>66</ele>
        <time>2014-08-24T06:49:04Z</time>
      </trkpt>
      <trkpt lat="44.13013" lon="0.6588">
        <ele>66</ele>
        <time>2014-08-24T06:49:07Z</time>
      </trkpt>
      <trkpt lat="44.13007" lon="0.65878">
        <ele>66</ele>
        <time>2014-08-24T06:49:10Z</time>
      </trkpt>
      <trkpt lat="44.13002" lon="0.65876">
        <ele>66</ele>
        <time>2014-08-24T06:49:13Z</time>
      </trkpt>
      <trkpt lat="44.12996" lon="0.65875">
        <ele>66</ele>
        <time>2014-08-24T06:49:16Z</time>
      </trkpt>
      <trkpt lat="44.12991" lon="0.65875">
        <ele>66</ele>
        <time>2014-08-24T06:49:18Z</time>
      </trkpt>
      <trkpt lat="44.12985" lon="0.65875">
        <ele>66</ele>
        <time>2014-08-24T06:49:21Z</time>
      </trkpt>
      <trkpt lat="44.12979" lon="0.65873">
        <ele>66</ele>
        <time>2014-08-24T06:49:24Z</time>
      </trkpt>
      <trkpt lat="44.12973" lon="0.65874">
        <ele>66</ele>
        <time>2014-08-24T06:49:27Z</time>
      </trkpt>
      <trkpt lat="44.12968" lon="0.65874">
        <ele>66</ele>
        <time>2014-08-24T06:49:29Z</time>
      </trkpt>
      <trkpt lat="44.12963" lon="0.65872">
        <ele>66</ele>
        <time>2014-08-24T06:49:32Z</time>
      </trkpt>
      <trkpt lat="44.12958" lon="0.65869">
        <ele>67</ele>
        <time>2014-08-24T06:49:35Z</time>
      </trkpt>
      <trkpt lat="44.12951" lon="0.65867">
        <ele>67</ele>
        <time>2014-08-24T06:49:38Z</time>
      </trkpt>
      <trkpt lat="44.12946" lon="0.65867">
        <ele>67</ele>
        <time>2014-08-24T06:49:40Z</time>
      </trkpt>
      <trkpt lat="44.12942" lon="0.65865">
        <ele>67</ele>
        <time>2014-08-24T06:49:42Z</time>
      </trkpt>
      <trkpt lat="44.12937" lon="0.65861">
        <ele>67</ele>
        <time>2014-08-24T06:49:44Z</time>
      </trkpt>
      <trkpt lat="44.12931" lon="0.65861">
        <ele>67</ele>
        <time>2014-08-24T06:49:47Z</time>
      </trkpt>
      <trkpt lat="44.12927" lon="0.65861">
        <ele>67</ele>
        <time>2014-08-24T06:49:49Z</time>
      </trkpt>
      <trkpt lat="44.12922" lon="0.6586">
        <ele>67</ele>
        <time>2014-08-24T06:49:51Z</time>
      </trkpt>
      <trkpt lat="44.12917" lon="0.6586">
        <ele>67</ele>
        <time>2014-08-24T06:49:53Z</time>
      </trkpt>
      <trkpt lat="44.12912" lon="0.65859">
        <ele>67</ele>
        <time>2014-08-24T06:49:56Z</time>
      </trkpt>
      <trkpt lat="44.12906" lon="0.65857">
        <ele>67</ele>
        <time>2014-08-24T06:49:59Z</time>
      </trkpt>
      <trkpt lat="44.129" lon="0.65855">
        <ele>67</ele>
        <time>2014-08-24T06:50:02Z</time>
      </trkpt>
      <trkpt lat="44.12895" lon="0.65854">
        <ele>67</ele>
        <time>2014-08-24T06:50:04Z</time>
      </trkpt>
      <trkpt lat="44.1289" lon="0.6585">
        <ele>67</ele>
        <time>2014-08-24T06:50:07Z</time>
      </trkpt>
      <trkpt lat="44.12886" lon="0.65845">
        <ele>67</ele>
        <time>2014-08-24T06:50:10Z</time>
      </trkpt>
      <trkpt lat="44.12885" lon="0.65837">
        <ele>68</ele>
        <time>2014-08-24T06:50:13Z</time>
      </trkpt>
      <trkpt lat="44.12885" lon="0.65829">
        <ele>68</ele>
        <time>2014-08-24T06:50:16Z</time>
      </trkpt>
      <trkpt lat="44.12886" lon="0.65822">
        <ele>68</ele>
        <time>2014-08-24T06:50:18Z</time>
      </trkpt>
      <trkpt lat="44.12887" lon="0.65814">
        <ele>68</ele>
        <time>2014-08-24T06:50:21Z</time>
      </trkpt>
      <trkpt lat="44.12887" lon="0.65805">
        <ele>68</ele>
        <time>2014-08-24T06:50:24Z</time>
      </trkpt>
      <trkpt lat="44.12887" lon="0.65798">
        <ele>67</ele>
        <time>2014-08-24T06:50:27Z</time>
      </trkpt>
      <trkpt lat="44.12888" lon="0.6579">
        <ele>67</ele>
        <time>2014-08-24T06:50:30Z</time>
      </trkpt>
      <trkpt lat="44.12889" lon="0.65783">
        <ele>67</ele>
        <time>2014-08-24T06:50:32Z</time>
      </trkpt>
      <trkpt lat="44.1289" lon="0.65776">
        <ele>67</ele>
        <time>2014-08-24T06:50:34Z</time>
      </trkpt>
      <trkpt lat="44.12891" lon="0.65768">
        <ele>66</ele>
        <time>2014-08-24T06:50:37Z</time>
      </trkpt>
      <trkpt lat="44.12892" lon="0.6576">
        <ele>66</ele>
        <time>2014-08-24T06:50:40Z</time>
      </trkpt>
      <trkpt lat="44.12893" lon="0.65751">
        <ele>66</ele>
        <time>2014-08-24T06:50:43Z</time>
      </trkpt>
      <trkpt lat="44.12894" lon="0.65745">
        <ele>66</ele>
        <time>2014-08-24T06:50:45Z</time>
      </trkpt>
      <trkpt lat="44.12895" lon="0.65736">
        <ele>67</ele>
        <time>2014-08-24T06:50:48Z</time>
      </trkpt>
      <trkpt lat="44.12895" lon="0.65729">
        <ele>67</ele>
        <time>2014-08-24T06:50:50Z</time>
      </trkpt>
      <trkpt lat="44.12896" lon="0.65723">
        <ele>67</ele>
        <time>2014-08-24T06:50:52Z</time>
      </trkpt>
      <trkpt lat="44.12898" lon="0.65714">
        <ele>67</ele>
        <time>2014-08-24T06:50:55Z</time>
      </trkpt>
      <trkpt lat="44.129" lon="0.65706">
        <ele>67</ele>
        <time>2014-08-24T06:50:58Z</time>
      </trkpt>
      <trkpt lat="44.12901" lon="0.65699">
        <ele>67</ele>
        <time>2014-08-24T06:51:00Z</time>
      </trkpt>
      <trkpt lat="44.12903" lon="0.65691">
        <ele>68</ele>
        <time>2014-08-24T06:51:02Z</time>
      </trkpt>
      <trkpt lat="44.12904" lon="0.65683">
        <ele>68</ele>
        <time>2014-08-24T06:51:04Z</time>
      </trkpt>
      <trkpt lat="44.12905" lon="0.65675">
        <ele>69</ele>
        <time>2014-08-24T06:51:07Z</time>
      </trkpt>
      <trkpt lat="44.12907" lon="0.65668">
        <ele>69</ele>
        <time>2014-08-24T06:51:10Z</time>
      </trkpt>
      <trkpt lat="44.12908" lon="0.6566">
        <ele>69</ele>
        <time>2014-08-24T06:51:13Z</time>
      </trkpt>
      <trkpt lat="44.12908" lon="0.65653">
        <ele>69</ele>
        <time>2014-08-24T06:51:15Z</time>
      </trkpt>
      <trkpt lat="44.12909" lon="0.65646">
        <ele>69</ele>
        <time>2014-08-24T06:51:17Z</time>
      </trkpt>
      <trkpt lat="44.12908" lon="0.65637">
        <ele>69</ele>
        <time>2014-08-24T06:51:20Z</time>
      </trkpt>
      <trkpt lat="44.12907" lon="0.65628">
        <ele>69</ele>
        <time>2014-08-24T06:51:23Z</time>
      </trkpt>
      <trkpt lat="44.12904" lon="0.6562">
        <ele>69</ele>
        <time>2014-08-24T06:51:26Z</time>
      </trkpt>
      <trkpt lat="44.129" lon="0.65613">
        <ele>69</ele>
        <time>2014-08-24T06:51:29Z</time>
      </trkpt>
      <trkpt lat="44.12896" lon="0.65607">
        <ele>69</ele>
        <time>2014-08-24T06:51:32Z</time>
      </trkpt>
      <trkpt lat="44.12892" lon="0.65602">
        <ele>69</ele>
        <time>2014-08-24T06:51:35Z</time>
      </trkpt>
      <trkpt lat="44.12888" lon="0.65598">
        <ele>68</ele>
        <time>2014-08-24T06:51:38Z</time>
      </trkpt>
      <trkpt lat="44.12884" lon="0.65593">
        <ele>68</ele>
        <time>2014-08-24T06:51:41Z</time>
      </trkpt>
      <trkpt lat="44.12881" lon="0.65588">
        <ele>68</ele>
        <time>2014-08-24T06:51:43Z</time>
      </trkpt>
      <trkpt lat="44.12875" lon="0.65583">
        <ele>68</ele>
        <time>2014-08-24T06:51:46Z</time>
      </trkpt>
      <trkpt lat="44.12872" lon="0.65579">
        <ele>68</ele>
        <time>2014-08-24T06:51:48Z</time>
      </trkpt>
      <trkpt lat="44.12868" lon="0.65575">
        <ele>68</ele>
        <time>2014-08-24T06:51:50Z</time>
      </trkpt>
      <trkpt lat="44.12863" lon="0.6557">
        <ele>68</ele>
        <time>2014-08-24T06:51:53Z</time>
      </trkpt>
      <trkpt lat="44.12858" lon="0.65564">
        <ele>68</ele>
        <time>2014-08-24T06:51:56Z</time>
      </trkpt>
      <trkpt lat="44.12853" lon="0.65558">
        <ele>68</ele>
        <time>2014-08-24T06:51:59Z</time>
      </trkpt>
      <trkpt lat="44.1285" lon="0.65553">
        <ele>68</ele>
        <time>2014-08-24T06:52:02Z</time>
      </trkpt>
      <trkpt lat="44.12845" lon="0.65548">
        <ele>69</ele>
        <time>2014-08-24T06:52:05Z</time>
      </trkpt>
      <trkpt lat="44.12841" lon="0.65543">
        <ele>70</ele>
        <time>2014-08-24T06:52:08Z</time>
      </trkpt>
      <trkpt lat="44.12837" lon="0.65538">
        <ele>70</ele>
        <time>2014-08-24T06:52:11Z</time>
      </trkpt>
      <trkpt lat="44.12833" lon="0.65532">
        <ele>70</ele>
        <time>2014-08-24T06:52:14Z</time>
      </trkpt>
      <trkpt lat="44.12828" lon="0.65526">
        <ele>70</ele>
        <time>2014-08-24T06:52:17Z</time>
      </trkpt>
      <trkpt lat="44.12824" lon="0.6552">
        <ele>70</ele>
        <time>2014-08-24T06:52:20Z</time>
      </trkpt>
      <trkpt lat="44.12819" lon="0.65516">
        <ele>70</ele>
        <time>2014-08-24T06:52:23Z</time>
      </trkpt>
      <trkpt lat="44.12814" lon="0.65513">
        <ele>70</ele>
        <time>2014-08-24T06:52:26Z</time>
      </trkpt>
      <trkpt lat="44.12809" lon="0.6551">
        <ele>70</ele>
        <time>2014-08-24T06:52:29Z</time>
      </trkpt>
      <trkpt lat="44.12804" lon="0.65506">
        <ele>70</ele>
        <time>2014-08-24T06:52:32Z</time>
      </trkpt>
      <trkpt lat="44.12798" lon="0.65504">
        <ele>70</ele>
        <time>2014-08-24T06:52:35Z</time>
      </trkpt>
      <trkpt lat="44.12794" lon="0.65502">
        <ele>70</ele>
        <time>2014-08-24T06:52:37Z</time>
      </trkpt>
      <trkpt lat="44.12789" lon="0.65501">
        <ele>70</ele>
        <time>2014-08-24T06:52:39Z</time>
      </trkpt>
      <trkpt lat="44.12783" lon="0.65501">
        <ele>70</ele>
        <time>2014-08-24T06:52:42Z</time>
      </trkpt>
      <trkpt lat="44.12777" lon="0.65502">
        <ele>70</ele>
        <time>2014-08-24T06:52:45Z</time>
      </trkpt>
      <trkpt lat="44.12772" lon="0.65503">
        <ele>70</ele>
        <time>2014-08-24T06:52:48Z</time>
      </trkpt>
      <trkpt lat="44.12767" lon="0.65502">
        <ele>70</ele>
        <time>2014-08-24T06:52:51Z</time>
      </trkpt>
      <trkpt lat="44.12762" lon="0.65502">
        <ele>70</ele>
        <time>2014-08-24T06:52:53Z</time>
      </trkpt>
      <trkpt lat="44.12756" lon="0.65504">
        <ele>70</ele>
        <time>2014-08-24T06:52:57Z</time>
      </trkpt>
      <trkpt lat="44.12752" lon="0.65507">
        <ele>70</ele>
        <time>2014-08-24T06:53:01Z</time>
      </trkpt>
      <trkpt lat="44.12746" lon="0.65509">
        <ele>70</ele>
        <time>2014-08-24T06:53:04Z</time>
      </trkpt>
      <trkpt lat="44.12742" lon="0.65511">
        <ele>70</ele>
        <time>2014-08-24T06:53:06Z</time>
      </trkpt>
      <trkpt lat="44.12737" lon="0.65513">
        <ele>70</ele>
        <time>2014-08-24T06:53:09Z</time>
      </trkpt>
      <trkpt lat="44.12732" lon="0.65516">
        <ele>70</ele>
        <time>2014-08-24T06:53:13Z</time>
      </trkpt>
      <trkpt lat="44.12726" lon="0.65518">
        <ele>71</ele>
        <time>2014-08-24T06:53:17Z</time>
      </trkpt>
      <trkpt lat="44.12721" lon="0.65519">
        <ele>71</ele>
        <time>2014-08-24T06:53:22Z</time>
      </trkpt>
      <trkpt lat="44.12716" lon="0.65519">
        <ele>72</ele>
        <time>2014-08-24T06:53:26Z</time>
      </trkpt>
      <trkpt lat="44.12711" lon="0.65517">
        <ele>72</ele>
        <time>2014-08-24T06:53:29Z</time>
      </trkpt>
      <trkpt lat="44.12706" lon="0.65513">
        <ele>73</ele>
        <time>2014-08-24T06:53:33Z</time>
      </trkpt>
      <trkpt lat="44.12703" lon="0.65507">
        <ele>73</ele>
        <time>2014-08-24T06:53:37Z</time>
      </trkpt>
      <trkpt lat="44.12701" lon="0.655">
        <ele>73</ele>
        <time>2014-08-24T06:53:41Z</time>
      </trkpt>
      <trkpt lat="44.12698" lon="0.65493">
        <ele>73</ele>
        <time>2014-08-24T06:53:44Z</time>
      </trkpt>
      <trkpt lat="44.12697" lon="0.65484">
        <ele>74</ele>
        <time>2014-08-24T06:53:47Z</time>
      </trkpt>
      <trkpt lat="44.12695" lon="0.65476">
        <ele>74</ele>
        <time>2014-08-24T06:53:50Z</time>
      </trkpt>
      <trkpt lat="44.12693" lon="0.6547">
        <ele>74</ele>
        <time>2014-08-24T06:53:53Z</time>
      </trkpt>
      <trkpt lat="44.1269" lon="0.65462">
        <ele>74</ele>
        <time>2014-08-24T06:53:56Z</time>
      </trkpt>
      <trkpt lat="44.12688" lon="0.65455">
        <ele>74</ele>
        <time>2014-08-24T06:53:59Z</time>
      </trkpt>
      <trkpt lat="44.12686" lon="0.65449">
        <ele>75</ele>
        <time>2014-08-24T06:54:02Z</time>
      </trkpt>
      <trkpt lat="44.12683" lon="0.65443">
        <ele>75</ele>
        <time>2014-08-24T06:54:05Z</time>
      </trkpt>
      <trkpt lat="44.1268" lon="0.65435">
        <ele>75</ele>
        <time>2014-08-24T06:54:08Z</time>
      </trkpt>
      <trkpt lat="44.12677" lon="0.65427">
        <ele>74</ele>
        <time>2014-08-24T06:54:11Z</time>
      </trkpt>
      <trkpt lat="44.12675" lon="0.6542">
        <ele>74</ele>
        <time>2014-08-24T06:54:14Z</time>
      </trkpt>
      <trkpt lat="44.12673" lon="0.65413">
        <ele>74</ele>
        <time>2014-08-24T06:54:17Z</time>
      </trkpt>
      <trkpt lat="44.12671" lon="0.65406">
        <ele>74</ele>
        <time>2014-08-24T06:54:20Z</time>
      </trkpt>
      <trkpt lat="44.12669" lon="0.65399">
        <ele>74</ele>
        <time>2014-08-24T06:54:23Z</time>
      </trkpt>
      <trkpt lat="44.12667" lon="0.65391">
        <ele>74</ele>
        <time>2014-08-24T06:54:26Z</time>
      </trkpt>
      <trkpt lat="44.12665" lon="0.65384">
        <ele>74</ele>
        <time>2014-08-24T06:54:29Z</time>
      </trkpt>
      <trkpt lat="44.12661" lon="0.65376">
        <ele>74</ele>
        <time>2014-08-24T06:54:32Z</time>
      </trkpt>
      <trkpt lat="44.12658" lon="0.65369">
        <ele>74</ele>
        <time>2014-08-24T06:54:35Z</time>
      </trkpt>
      <trkpt lat="44.12655" lon="0.65363">
        <ele>74</ele>
        <time>2014-08-24T06:54:38Z</time>
      </trkpt>
      <trkpt lat="44.12651" lon="0.65357">
        <ele>74</ele>
        <time>2014-08-24T06:54:41Z</time>
      </trkpt>
      <trkpt lat="44.12647" lon="0.65352">
        <ele>74</ele>
        <time>2014-08-24T06:54:44Z</time>
      </trkpt>
      <trkpt lat="44.12643" lon="0.65347">
        <ele>74</ele>
        <time>2014-08-24T06:54:47Z</time>
      </trkpt>
      <trkpt lat="44.12638" lon="0.65343">
        <ele>74</ele>
        <time>2014-08-24T06:54:50Z</time>
      </trkpt>
      <trkpt lat="44.12634" lon="0.65339">
        <ele>73</ele>
        <time>2014-08-24T06:54:53Z</time>
      </trkpt>
      <trkpt lat="44.12628" lon="0.65336">
        <ele>73</ele>
        <time>2014-08-24T06:54:57Z</time>
      </trkpt>
      <trkpt lat="44.12624" lon="0.65332">
        <ele>73</ele>
        <time>2014-08-24T06:55:00Z</time>
      </trkpt>
      <trkpt lat="44.1262" lon="0.65328">
        <ele>74</ele>
        <time>2014-08-24T06:55:03Z</time>
      </trkpt>
      <trkpt lat="44.12616" lon="0.65324">
        <ele>74</ele>
        <time>2014-08-24T06:55:06Z</time>
      </trkpt>
      <trkpt lat="44.12613" lon="0.65319">
        <ele>75</ele>
        <time>2014-08-24T06:55:09Z</time>
      </trkpt>
      <trkpt lat="44.12609" lon="0.65315">
        <ele>75</ele>
        <time>2014-08-24T06:55:12Z</time>
      </trkpt>
      <trkpt lat="44.12604" lon="0.6531">
        <ele>76</ele>
        <time>2014-08-24T06:55:16Z</time>
      </trkpt>
      <trkpt lat="44.126" lon="0.65307">
        <ele>77</ele>
        <time>2014-08-24T06:55:19Z</time>
      </trkpt>
      <trkpt lat="44.12595" lon="0.65303">
        <ele>77</ele>
        <time>2014-08-24T06:55:22Z</time>
      </trkpt>
      <trkpt lat="44.12592" lon="0.65298">
        <ele>78</ele>
        <time>2014-08-24T06:55:25Z</time>
      </trkpt>
      <trkpt lat="44.12589" lon="0.65293">
        <ele>79</ele>
        <time>2014-08-24T06:55:28Z</time>
      </trkpt>
      <trkpt lat="44.12586" lon="0.65289">
        <ele>80</ele>
        <time>2014-08-24T06:55:31Z</time>
      </trkpt>
      <trkpt lat="44.12582" lon="0.65284">
        <ele>81</ele>
        <time>2014-08-24T06:55:34Z</time>
      </trkpt>
      <trkpt lat="44.12578" lon="0.65279">
        <ele>81</ele>
        <time>2014-08-24T06:55:36Z</time>
      </trkpt>
      <trkpt lat="44.12574" lon="0.65275">
        <ele>82</ele>
        <time>2014-08-24T06:55:38Z</time>
      </trkpt>
      <trkpt lat="44.1257" lon="0.65271">
        <ele>83</ele>
        <time>2014-08-24T06:55:40Z</time>
      </trkpt>
      <trkpt lat="44.12567" lon="0.65266">
        <ele>83</ele>
        <time>2014-08-24T06:55:42Z</time>
      </trkpt>
      <trkpt lat="44.12564" lon="0.65261">
        <ele>83</ele>
        <time>2014-08-24T06:55:44Z</time>
      </trkpt>
      <trkpt lat="44.1256" lon="0.65255">
        <ele>84</ele>
        <time>2014-08-24T06:55:47Z</time>
      </trkpt>
      <trkpt lat="44.12557" lon="0.65249">
        <ele>84</ele>
        <time>2014-08-24T06:55:50Z</time>
      </trkpt>
      <trkpt lat="44.12554" lon="0.65243">
        <ele>85</ele>
        <time>2014-08-24T06:55:53Z</time>
      </trkpt>
      <trkpt lat="44.12552" lon="0.65236">
        <ele>85</ele>
        <time>2014-08-24T06:55:56Z</time>
      </trkpt>
      <trkpt lat="44.12548" lon="0.65231">
        <ele>86</ele>
        <time>2014-08-24T06:55:59Z</time>
      </trkpt>
      <trkpt lat="44.12545" lon="0.65225">
        <ele>86</ele>
        <time>2014-08-24T06:56:02Z</time>
      </trkpt>
      <trkpt lat="44.12542" lon="0.65218">
        <ele>87</ele>
        <time>2014-08-24T06:56:05Z</time>
      </trkpt>
      <trkpt lat="44.1254" lon="0.65211">
        <ele>87</ele>
        <time>2014-08-24T06:56:08Z</time>
      </trkpt>
      <trkpt lat="44.12538" lon="0.65205">
        <ele>88</ele>
        <time>2014-08-24T06:56:11Z</time>
      </trkpt>
      <trkpt lat="44.12535" lon="0.652">
        <ele>88</ele>
        <time>2014-08-24T06:56:14Z</time>
      </trkpt>
      <trkpt lat="44.12531" lon="0.65195">
        <ele>89</ele>
        <time>2014-08-24T06:56:17Z</time>
      </trkpt>
      <trkpt lat="44.12527" lon="0.65189">
        <ele>89</ele>
        <time>2014-08-24T06:56:20Z</time>
      </trkpt>
      <trkpt lat="44.12524" lon="0.65183">
        <ele>89</ele>
        <time>2014-08-24T06:56:23Z</time>
      </trkpt>
      <trkpt lat="44.12523" lon="0.65177">
        <ele>89</ele>
        <time>2014-08-24T06:56:26Z</time>
      </trkpt>
      <trkpt lat="44.1252" lon="0.65171">
        <ele>90</ele>
        <time>2014-08-24T06:56:29Z</time>
      </trkpt>
      <trkpt lat="44.12518" lon="0.65165">
        <ele>90</ele>
        <time>2014-08-24T06:56:32Z</time>
      </trkpt>
      <trkpt lat="44.12515" lon="0.6516">
        <ele>91</ele>
        <time>2014-08-24T06:56:35Z</time>
      </trkpt>
      <trkpt lat="44.12511" lon="0.65154">
        <ele>92</ele>
        <time>2014-08-24T06:56:39Z</time>
      </trkpt>
      <trkpt lat="44.12508" lon="0.65149">
        <ele>92</ele>
        <time>2014-08-24T06:56:42Z</time>
      </trkpt>
      <trkpt lat="44.12507" lon="0.65142">
        <ele>93</ele>
        <time>2014-08-24T06:56:45Z</time>
      </trkpt>
      <trkpt lat="44.12506" lon="0.65135">
        <ele>93</ele>
        <time>2014-08-24T06:56:48Z</time>
      </trkpt>
      <trkpt lat="44.12504" lon="0.65129">
        <ele>94</ele>
        <time>2014-08-24T06:56:51Z</time>
      </trkpt>
      <trkpt lat="44.125" lon="0.65122">
        <ele>95</ele>
        <time>2014-08-24T06:56:55Z</time>
      </trkpt>
      <trkpt lat="44.12497" lon="0.65115">
        <ele>95</ele>
        <time>2014-08-24T06:56:58Z</time>
      </trkpt>
      <trkpt lat="44.12493" lon="0.65107">
        <ele>96</ele>
        <time>2014-08-24T06:57:02Z</time>
      </trkpt>
      <trkpt lat="44.12489" lon="0.65103">
        <ele>96</ele>
        <time>2014-08-24T06:57:04Z</time>
      </trkpt>
      <trkpt lat="44.12486" lon="0.65096">
        <ele>97</ele>
        <time>2014-08-24T06:57:07Z</time>
      </trkpt>
      <trkpt lat="44.12483" lon="0.65089">
        <ele>97</ele>
        <time>2014-08-24T06:57:10Z</time>
      </trkpt>
      <trkpt lat="44.12483" lon="0.65081">
        <ele>97</ele>
        <time>2014-08-24T06:57:13Z</time>
      </trkpt>
      <trkpt lat="44.1248" lon="0.65075">
        <ele>97</ele>
        <time>2014-08-24T06:57:16Z</time>
      </trkpt>
      <trkpt lat="44.12478" lon="0.65069">
        <ele>98</ele>
        <time>2014-08-24T06:57:19Z</time>
      </trkpt>
      <trkpt lat="44.12476" lon="0.65061">
        <ele>98</ele>
        <time>2014-08-24T06:57:22Z</time>
      </trkpt>
      <trkpt lat="44.12475" lon="0.65054">
        <ele>98</ele>
        <time>2014-08-24T06:57:25Z</time>
      </trkpt>
      <trkpt lat="44.12473" lon="0.65046">
        <ele>98</ele>
        <time>2014-08-24T06:57:28Z</time>
      </trkpt>
      <trkpt lat="44.12473" lon="0.65039">
        <ele>98</ele>
        <time>2014-08-24T06:57:31Z</time>
      </trkpt>
      <trkpt lat="44.12471" lon="0.65032">
        <ele>98</ele>
        <time>2014-08-24T06:57:34Z</time>
      </trkpt>
      <trkpt lat="44.1247" lon="0.65025">
        <ele>98</ele>
        <time>2014-08-24T06:57:37Z</time>
      </trkpt>
      <trkpt lat="44.12468" lon="0.65017">
        <ele>99</ele>
        <time>2014-08-24T06:57:40Z</time>
      </trkpt>
      <trkpt lat="44.12469" lon="0.65009">
        <ele>100</ele>
        <time>2014-08-24T06:57:44Z</time>
      </trkpt>
      <trkpt lat="44.12467" lon="0.65">
        <ele>100</ele>
        <time>2014-08-24T06:57:47Z</time>
      </trkpt>
      <trkpt lat="44.12466" lon="0.64993">
        <ele>101</ele>
        <time>2014-08-24T06:57:50Z</time>
      </trkpt>
      <trkpt lat="44.12466" lon="0.64985">
        <ele>102</ele>
        <time>2014-08-24T06:57:53Z</time>
      </trkpt>
      <trkpt lat="44.12465" lon="0.64979">
        <ele>103</ele>
        <time>2014-08-24T06:57:56Z</time>
      </trkpt>
      <trkpt lat="44.12465" lon="0.64973">
        <ele>104</ele>
        <time>2014-08-24T06:57:59Z</time>
      </trkpt>
      <trkpt lat="44.12462" lon="0.64967">
        <ele>104</ele>
        <time>2014-08-24T06:58:02Z</time>
      </trkpt>
      <trkpt lat="44.12462" lon="0.6496">
        <ele>105</ele>
        <time>2014-08-24T06:58:05Z</time>
      </trkpt>
      <trkpt lat="44.1246" lon="0.64952">
        <ele>105</ele>
        <time>2014-08-24T06:58:08Z</time>
      </trkpt>
      <trkpt lat="44.12458" lon="0.64944">
        <ele>106</ele>
        <time>2014-08-24T06:58:11Z</time>
      </trkpt>
      <trkpt lat="44.12457" lon="0.64936">
        <ele>107</ele>
        <time>2014-08-24T06:58:14Z</time>
      </trkpt>
      <trkpt lat="44.12455" lon="0.6493">
        <ele>107</ele>
        <time>2014-08-24T06:58:17Z</time>
      </trkpt>
      <trkpt lat="44.12454" lon="0.64923">
        <ele>108</ele>
        <time>2014-08-24T06:58:20Z</time>
      </trkpt>
      <trkpt lat="44.12453" lon="0.64915">
        <ele>109</ele>
        <time>2014-08-24T06:58:23Z</time>
      </trkpt>
      <trkpt lat="44.12452" lon="0.64908">
        <ele>109</ele>
        <time>2014-08-24T06:58:26Z</time>
      </trkpt>
      <trkpt lat="44.1245" lon="0.649">
        <ele>110</ele>
        <time>2014-08-24T06:58:29Z</time>
      </trkpt>
      <trkpt lat="44.12449" lon="0.64892">
        <ele>110</ele>
        <time>2014-08-24T06:58:32Z</time>
      </trkpt>
      <trkpt lat="44.12447" lon="0.64885">
        <ele>110</ele>
        <time>2014-08-24T06:58:35Z</time>
      </trkpt>
      <trkpt lat="44.12445" lon="0.64878">
        <ele>111</ele>
        <time>2014-08-24T06:58:38Z</time>
      </trkpt>
      <trkpt lat="44.12442" lon="0.64871">
        <ele>112</ele>
        <time>2014-08-24T06:58:41Z</time>
      </trkpt>
      <trkpt lat="44.12439" lon="0.64864">
        <ele>112</ele>
        <time>2014-08-24T06:58:44Z</time>
      </trkpt>
      <trkpt lat="44.12437" lon="0.64857">
        <ele>112</ele>
        <time>2014-08-24T06:58:47Z</time>
      </trkpt>
      <trkpt lat="44.12433" lon="0.6485">
        <ele>112</ele>
        <time>2014-08-24T06:58:50Z</time>
      </trkpt>
      <trkpt lat="44.12431" lon="0.64844">
        <ele>112</ele>
        <time>2014-08-24T06:58:52Z</time>
      </trkpt>
      <trkpt lat="44.12429" lon="0.64836">
        <ele>113</ele>
        <time>2014-08-24T06:58:55Z</time>
      </trkpt>
      <trkpt lat="44.12427" lon="0.64829">
        <ele>113</ele>
        <time>2014-08-24T06:58:58Z</time>
      </trkpt>
      <trkpt lat="44.12425" lon="0.64823">
        <ele>113</ele>
        <time>2014-08-24T06:59:01Z</time>
      </trkpt>
      <trkpt lat="44.12422" lon="0.64817">
        <ele>113</ele>
        <time>2014-08-24T06:59:04Z</time>
      </trkpt>
      <trkpt lat="44.12418" lon="0.64811">
        <ele>113</ele>
        <time>2014-08-24T06:59:08Z</time>
      </trkpt>
      <trkpt lat="44.12413" lon="0.64806">
        <ele>113</ele>
        <time>2014-08-24T06:59:11Z</time>
      </trkpt>
      <trkpt lat="44.12409" lon="0.648">
        <ele>113</ele>
        <time>2014-08-24T06:59:14Z</time>
      </trkpt>
      <trkpt lat="44.12405" lon="0.64794">
        <ele>113</ele>
        <time>2014-08-24T06:59:17Z</time>
      </trkpt>
      <trkpt lat="44.12401" lon="0.64788">
        <ele>113</ele>
        <time>2014-08-24T06:59:20Z</time>
      </trkpt>
      <trkpt lat="44.12397" lon="0.64783">
        <ele>113</ele>
        <time>2014-08-24T06:59:23Z</time>
      </trkpt>
      <trkpt lat="44.12394" lon="0.64776">
        <ele>113</ele>
        <time>2014-08-24T06:59:26Z</time>
      </trkpt>
      <trkpt lat="44.12391" lon="0.6477">
        <ele>113</ele>
        <time>2014-08-24T06:59:29Z</time>
      </trkpt>
      <trkpt lat="44.12387" lon="0.64764">
        <ele>114</ele>
        <time>2014-08-24T06:59:32Z</time>
      </trkpt>
      <trkpt lat="44.12383" lon="0.64757">
        <ele>114</ele>
        <time>2014-08-24T06:59:35Z</time>
      </trkpt>
      <trkpt lat="44.12379" lon="0.6475">
        <ele>114</ele>
        <time>2014-08-24T06:59:38Z</time>
      </trkpt>
      <trkpt lat="44.12375" lon="0.64744">
        <ele>115</ele>
        <time>2014-08-24T06:59:41Z</time>
      </trkpt>
      <trkpt lat="44.1237" lon="0.64738">
        <ele>115</ele>
        <time>2014-08-24T06:59:44Z</time>
      </trkpt>
      <trkpt lat="44.12366" lon="0.64734">
        <ele>116</ele>
        <time>2014-08-24T06:59:46Z</time>
      </trkpt>
      <trkpt lat="44.12363" lon="0.64727">
        <ele>116</ele>
        <time>2014-08-24T06:59:49Z</time>
      </trkpt>
      <trkpt lat="44.12358" lon="0.64721">
        <ele>117</ele>
        <time>2014-08-24T06:59:52Z</time>
      </trkpt>
      <trkpt lat="44.12354" lon="0.64716">
        <ele>118</ele>
        <time>2014-08-24T06:59:55Z</time>
      </trkpt>
      <trkpt lat="44.12349" lon="0.64712">
        <ele>118</ele>
        <time>2014-08-24T06:59:58Z</time>
      </trkpt>
      <trkpt lat="44.12344" lon="0.64708">
        <ele>118</ele>
        <time>2014-08-24T07:00:01Z</time>
      </trkpt>
      <trkpt lat="44.12339" lon="0.64703">
        <ele>119</ele>
        <time>2014-08-24T07:00:04Z</time>
      </trkpt>
      <trkpt lat="44.12334" lon="0.64697">
        <ele>119</ele>
        <time>2014-08-24T07:00:07Z</time>
      </trkpt>
      <trkpt lat="44.1233" lon="0.64692">
        <ele>120</ele>
        <time>2014-08-24T07:00:10Z</time>
      </trkpt>
      <trkpt lat="44.12324" lon="0.64688">
        <ele>120</ele>
        <time>2014-08-24T07:00:13Z</time>
      </trkpt>
      <trkpt lat="44.12319" lon="0.64685">
        <ele>120</ele>
        <time>2014-08-24T07:00:16Z</time>
      </trkpt>
      <trkpt lat="44.12314" lon="0.64682">
        <ele>121</ele>
        <time>2014-08-24T07:00:19Z</time>
      </trkpt>
      <trkpt lat="44.12309" lon="0.6468">
        <ele>121</ele>
        <time>2014-08-24T07:00:22Z</time>
      </trkpt>
      <trkpt lat="44.12305" lon="0.64678">
        <ele>121</ele>
        <time>2014-08-24T07:00:24Z</time>
      </trkpt>
      <trkpt lat="44.12298" lon="0.64675">
        <ele>121</ele>
        <time>2014-08-24T07:00:27Z</time>
      </trkpt>
      <trkpt lat="44.12294" lon="0.64673">
        <ele>121</ele>
        <time>2014-08-24T07:00:29Z</time>
      </trkpt>
      <trkpt lat="44.12288" lon="0.64671">
        <ele>121</ele>
        <time>2014-08-24T07:00:31Z</time>
      </trkpt>
      <trkpt lat="44.12283" lon="0.64668">
        <ele>121</ele>
        <time>2014-08-24T07:00:33Z</time>
      </trkpt>
      <trkpt lat="44.12277" lon="0.64666">
        <ele>121</ele>
        <time>2014-08-24T07:00:36Z</time>
      </trkpt>
      <trkpt lat="44.12272" lon="0.64664">
        <ele>121</ele>
        <time>2014-08-24T07:00:39Z</time>
      </trkpt>
      <trkpt lat="44.12266" lon="0.64663">
        <ele>121</ele>
        <time>2014-08-24T07:00:42Z</time>
      </trkpt>
      <trkpt lat="44.12262" lon="0.64663">
        <ele>121</ele>
        <time>2014-08-24T07:00:44Z</time>
      </trkpt>
      <trkpt lat="44.12256" lon="0.64662">
        <ele>121</ele>
        <time>2014-08-24T07:00:47Z</time>
      </trkpt>
      <trkpt lat="44.1225" lon="0.64661">
        <ele>121</ele>
        <time>2014-08-24T07:00:50Z</time>
      </trkpt>
      <trkpt lat="44.12245" lon="0.64659">
        <ele>121</ele>
        <time>2014-08-24T07:00:53Z</time>
      </trkpt>
      <trkpt lat="44.12238" lon="0.64658">
        <ele>121</ele>
        <time>2014-08-24T07:00:56Z</time>
      </trkpt>
      <trkpt lat="44.12233" lon="0.64657">
        <ele>121</ele>
        <time>2014-08-24T07:00:58Z</time>
      </trkpt>
      <trkpt lat="44.12229" lon="0.64656">
        <ele>121</ele>
        <time>2014-08-24T07:01:00Z</time>
      </trkpt>
      <trkpt lat="44.12224" lon="0.64654">
        <ele>121</ele>
        <time>2014-08-24T07:01:03Z</time>
      </trkpt>
      <trkpt lat="44.12219" lon="0.64652">
        <ele>122</ele>
        <time>2014-08-24T07:01:06Z</time>
      </trkpt>
      <trkpt lat="44.12214" lon="0.6465">
        <ele>122</ele>
        <time>2014-08-24T07:01:09Z</time>
      </trkpt>
      <trkpt lat="44.12207" lon="0.64648">
        <ele>123</ele>
        <time>2014-08-24T07:01:12Z</time>
      </trkpt>
      <trkpt lat="44.12203" lon="0.64646">
        <ele>123</ele>
        <time>2014-08-24T07:01:14Z</time>
      </trkpt>
      <trkpt lat="44.12198" lon="0.64643">
        <ele>124</ele>
        <time>2014-08-24T07:01:17Z</time>
      </trkpt>
      <trkpt lat="44.12192" lon="0.64642">
        <ele>125</ele>
        <time>2014-08-24T07:01:20Z</time>
      </trkpt>
      <trkpt lat="44.12188" lon="0.64639">
        <ele>125</ele>
        <time>2014-08-24T07:01:23Z</time>
      </trkpt>
      <trkpt lat="44.12182" lon="0.64636">
        <ele>125</ele>
        <time>2014-08-24T07:01:26Z</time>
      </trkpt>
      <trkpt lat="44.12177" lon="0.64633">
        <ele>126</ele>
        <time>2014-08-24T07:01:29Z</time>
      </trkpt>
      <trkpt lat="44.12172" lon="0.6463">
        <ele>126</ele>
        <time>2014-08-24T07:01:32Z</time>
      </trkpt>
      <trkpt lat="44.12166" lon="0.64626">
        <ele>126</ele>
        <time>2014-08-24T07:01:35Z</time>
      </trkpt>
      <trkpt lat="44.12162" lon="0.64623">
        <ele>127</ele>
        <time>2014-08-24T07:01:37Z</time>
      </trkpt>
      <trkpt lat="44.12157" lon="0.64618">
        <ele>127</ele>
        <time>2014-08-24T07:01:40Z</time>
      </trkpt>
      <trkpt lat="44.12152" lon="0.64614">
        <ele>127</ele>
        <time>2014-08-24T07:01:43Z</time>
      </trkpt>
      <trkpt lat="44.12148" lon="0.64608">
        <ele>127</ele>
        <time>2014-08-24T07:01:46Z</time>
      </trkpt>
      <trkpt lat="44.12145" lon="0.64602">
        <ele>128</ele>
        <time>2014-08-24T07:01:49Z</time>
      </trkpt>
      <trkpt lat="44.12141" lon="0.64596">
        <ele>129</ele>
        <time>2014-08-24T07:01:52Z</time>
      </trkpt>
      <trkpt lat="44.12138" lon="0.6459">
        <ele>129</ele>
        <time>2014-08-24T07:01:55Z</time>
      </trkpt>
      <trkpt lat="44.12135" lon="0.64583">
        <ele>130</ele>
        <time>2014-08-24T07:01:58Z</time>
      </trkpt>
      <trkpt lat="44.12133" lon="0.64576">
        <ele>130</ele>
        <time>2014-08-24T07:02:01Z</time>
      </trkpt>
      <trkpt lat="44.12131" lon="0.6457">
        <ele>131</ele>
        <time>2014-08-24T07:02:04Z</time>
      </trkpt>
      <trkpt lat="44.12129" lon="0.64562">
        <ele>132</ele>
        <time>2014-08-24T07:02:07Z</time>
      </trkpt>
      <trkpt lat="44.12127" lon="0.64554">
        <ele>132</ele>
        <time>2014-08-24T07:02:10Z</time>
      </trkpt>
      <trkpt lat="44.12124" lon="0.64546">
        <ele>132</ele>
        <time>2014-08-24T07:02:13Z</time>
      </trkpt>
      <trkpt lat="44.12122" lon="0.64538">
        <ele>133</ele>
        <time>2014-08-24T07:02:16Z</time>
      </trkpt>
      <trkpt lat="44.1212" lon="0.6453">
        <ele>133</ele>
        <time>2014-08-24T07:02:19Z</time>
      </trkpt>
      <trkpt lat="44.12119" lon="0.64523">
        <ele>133</ele>
        <time>2014-08-24T07:02:22Z</time>
      </trkpt>
      <trkpt lat="44.12117" lon="0.64516">
        <ele>133</ele>
        <time>2014-08-24T07:02:25Z</time>
      </trkpt>
      <trkpt lat="44.12116" lon="0.64509">
        <ele>133</ele>
        <time>2014-08-24T07:02:28Z</time>
      </trkpt>
      <trkpt lat="44.12114" lon="0.64501">
        <ele>134</ele>
        <time>2014-08-24T07:02:31Z</time>
      </trkpt>
      <trkpt lat="44.12112" lon="0.64494">
        <ele>134</ele>
        <time>2014-08-24T07:02:34Z</time>
      </trkpt>
      <trkpt lat="44.1211" lon="0.64487">
        <ele>134</ele>
        <time>2014-08-24T07:02:37Z</time>
      </trkpt>
      <trkpt lat="44.12108" lon="0.64479">
        <ele>135</ele>
        <time>2014-08-24T07:02:40Z</time>
      </trkpt>
      <trkpt lat="44.12106" lon="0.64472">
        <ele>135</ele>
        <time>2014-08-24T07:02:43Z</time>
      </trkpt>
      <trkpt lat="44.12105" lon="0.64465">
        <ele>136</ele>
        <time>2014-08-24T07:02:46Z</time>
      </trkpt>
      <trkpt lat="44.12103" lon="0.64458">
        <ele>136</ele>
        <time>2014-08-24T07:02:49Z</time>
      </trkpt>
      <trkpt lat="44.12101" lon="0.6445">
        <ele>137</ele>
        <time>2014-08-24T07:02:52Z</time>
      </trkpt>
      <trkpt lat="44.12098" lon="0.64444">
        <ele>137</ele>
        <time>2014-08-24T07:02:55Z</time>
      </trkpt>
      <trkpt lat="44.12096" lon="0.64436">
        <ele>137</ele>
        <time>2014-08-24T07:02:58Z</time>
      </trkpt>
      <trkpt lat="44.12094" lon="0.64429">
        <ele>138</ele>
        <time>2014-08-24T07:03:01Z</time>
      </trkpt>
      <trkpt lat="44.12091" lon="0.64421">
        <ele>138</ele>
        <time>2014-08-24T07:03:04Z</time>
      </trkpt>
      <trkpt lat="44.1209" lon="0.64414">
        <ele>139</ele>
        <time>2014-08-24T07:03:07Z</time>
      </trkpt>
      <trkpt lat="44.12089" lon="0.64405">
        <ele>140</ele>
        <time>2014-08-24T07:03:10Z</time>
      </trkpt>
      <trkpt lat="44.12087" lon="0.64397">
        <ele>140</ele>
        <time>2014-08-24T07:03:13Z</time>
      </trkpt>
      <trkpt lat="44.12085" lon="0.64389">
        <ele>141</ele>
        <time>2014-08-24T07:03:16Z</time>
      </trkpt>
      <trkpt lat="44.12083" lon="0.64381">
        <ele>141</ele>
        <time>2014-08-24T07:03:19Z</time>
      </trkpt>
      <trkpt lat="44.12081" lon="0.64375">
        <ele>141</ele>
        <time>2014-08-24T07:03:21Z</time>
      </trkpt>
      <trkpt lat="44.12079" lon="0.64367">
        <ele>142</ele>
        <time>2014-08-24T07:03:24Z</time>
      </trkpt>
      <trkpt lat="44.12077" lon="0.64358">
        <ele>142</ele>
        <time>2014-08-24T07:03:27Z</time>
      </trkpt>
      <trkpt lat="44.12076" lon="0.6435">
        <ele>142</ele>
        <time>2014-08-24T07:03:30Z</time>
      </trkpt>
      <trkpt lat="44.12075" lon="0.64341">
        <ele>143</ele>
        <time>2014-08-24T07:03:33Z</time>
      </trkpt>
      <trkpt lat="44.12074" lon="0.64334">
        <ele>143</ele>
        <time>2014-08-24T07:03:36Z</time>
      </trkpt>
      <trkpt lat="44.12073" lon="0.64325">
        <ele>143</ele>
        <time>2014-08-24T07:03:39Z</time>
      </trkpt>
      <trkpt lat="44.12071" lon="0.64316">
        <ele>144</ele>
        <time>2014-08-24T07:03:42Z</time>
      </trkpt>
      <trkpt lat="44.12069" lon="0.64308">
        <ele>144</ele>
        <time>2014-08-24T07:03:45Z</time>
      </trkpt>
      <trkpt lat="44.12067" lon="0.643">
        <ele>144</ele>
        <time>2014-08-24T07:03:48Z</time>
      </trkpt>
      <trkpt lat="44.12066" lon="0.64292">
        <ele>144</ele>
        <time>2014-08-24T07:03:51Z</time>
      </trkpt>
      <trkpt lat="44.12065" lon="0.64284">
        <ele>144</ele>
        <time>2014-08-24T07:03:54Z</time>
      </trkpt>
      <trkpt lat="44.12064" lon="0.64278">
        <ele>144</ele>
        <time>2014-08-24T07:03:56Z</time>
      </trkpt>
      <trkpt lat="44.12063" lon="0.64272">
        <ele>145</ele>
        <time>2014-08-24T07:03:58Z</time>
      </trkpt>
      <trkpt lat="44.12061" lon="0.64264">
        <ele>145</ele>
        <time>2014-08-24T07:04:01Z</time>
      </trkpt>
      <trkpt lat="44.12059" lon="0.64256">
        <ele>145</ele>
        <time>2014-08-24T07:04:04Z</time>
      </trkpt>
      <trkpt lat="44.12058" lon="0.64248">
        <ele>146</ele>
        <time>2014-08-24T07:04:07Z</time>
      </trkpt>
      <trkpt lat="44.12056" lon="0.6424">
        <ele>146</ele>
        <time>2014-08-24T07:04:10Z</time>
      </trkpt>
      <trkpt lat="44.12054" lon="0.64232">
        <ele>147</ele>
        <time>2014-08-24T07:04:13Z</time>
      </trkpt>
      <trkpt lat="44.12053" lon="0.64226">
        <ele>147</ele>
        <time>2014-08-24T07:04:15Z</time>
      </trkpt>
      <trkpt lat="44.12051" lon="0.64219">
        <ele>147</ele>
        <time>2014-08-24T07:04:18Z</time>
      </trkpt>
      <trkpt lat="44.12049" lon="0.6421">
        <ele>147</ele>
        <time>2014-08-24T07:04:21Z</time>
      </trkpt>
      <trkpt lat="44.12046" lon="0.64203">
        <ele>148</ele>
        <time>2014-08-24T07:04:24Z</time>
      </trkpt>
      <trkpt lat="44.12046" lon="0.64195">
        <ele>148</ele>
        <time>2014-08-24T07:04:27Z</time>
      </trkpt>
      <trkpt lat="44.12045" lon="0.64188">
        <ele>148</ele>
        <time>2014-08-24T07:04:30Z</time>
      </trkpt>
      <trkpt lat="44.12044" lon="0.6418">
        <ele>148</ele>
        <time>2014-08-24T07:04:33Z</time>
      </trkpt>
      <trkpt lat="44.12042" lon="0.64172">
        <ele>148</ele>
        <time>2014-08-24T07:04:36Z</time>
      </trkpt>
      <trkpt lat="44.12041" lon="0.64164">
        <ele>149</ele>
        <time>2014-08-24T07:04:39Z</time>
      </trkpt>
      <trkpt lat="44.1204" lon="0.64157">
        <ele>149</ele>
        <time>2014-08-24T07:04:42Z</time>
      </trkpt>
      <trkpt lat="44.12038" lon="0.6415">
        <ele>149</ele>
        <time>2014-08-24T07:04:45Z</time>
      </trkpt>
      <trkpt lat="44.12037" lon="0.64143">
        <ele>149</ele>
        <time>2014-08-24T07:04:48Z</time>
      </trkpt>
      <trkpt lat="44.12035" lon="0.64136">
        <ele>149</ele>
        <time>2014-08-24T07:04:51Z</time>
      </trkpt>
      <trkpt lat="44.12034" lon="0.64128">
        <ele>149</ele>
        <time>2014-08-24T07:04:54Z</time>
      </trkpt>
      <trkpt lat="44.12033" lon="0.64119">
        <ele>150</ele>
        <time>2014-08-24T07:04:57Z</time>
      </trkpt>
      <trkpt lat="44.12032" lon="0.64112">
        <ele>150</ele>
        <time>2014-08-24T07:05:00Z</time>
      </trkpt>
      <trkpt lat="44.12031" lon="0.64105">
        <ele>150</ele>
        <time>2014-08-24T07:05:04Z</time>
      </trkpt>
      <trkpt lat="44.1203" lon="0.64097">
        <ele>150</ele>
        <time>2014-08-24T07:05:07Z</time>
      </trkpt>
      <trkpt lat="44.12028" lon="0.64089">
        <ele>151</ele>
        <time>2014-08-24T07:05:10Z</time>
      </trkpt>
      <trkpt lat="44.12026" lon="0.64081">
        <ele>151</ele>
        <time>2014-08-24T07:05:13Z</time>
      </trkpt>
      <trkpt lat="44.12023" lon="0.64073">
        <ele>152</ele>
        <time>2014-08-24T07:05:16Z</time>
      </trkpt>
      <trkpt lat="44.12021" lon="0.64066">
        <ele>152</ele>
        <time>2014-08-24T07:05:19Z</time>
      </trkpt>
      <trkpt lat="44.12019" lon="0.64058">
        <ele>152</ele>
        <time>2014-08-24T07:05:23Z</time>
      </trkpt>
      <trkpt lat="44.12017" lon="0.64051">
        <ele>153</ele>
        <time>2014-08-24T07:05:26Z</time>
      </trkpt>
      <trkpt lat="44.12017" lon="0.64043">
        <ele>153</ele>
        <time>2014-08-24T07:05:29Z</time>
      </trkpt>
      <trkpt lat="44.12016" lon="0.64036">
        <ele>154</ele>
        <time>2014-08-24T07:05:31Z</time>
      </trkpt>
      <trkpt lat="44.12015" lon="0.64028">
        <ele>154</ele>
        <time>2014-08-24T07:05:34Z</time>
      </trkpt>
      <trkpt lat="44.12015" lon="0.6402">
        <ele>155</ele>
        <time>2014-08-24T07:05:37Z</time>
      </trkpt>
      <trkpt lat="44.12015" lon="0.64013">
        <ele>156</ele>
        <time>2014-08-24T07:05:40Z</time>
      </trkpt>
      <trkpt lat="44.12015" lon="0.64005">
        <ele>156</ele>
        <time>2014-08-24T07:05:43Z</time>
      </trkpt>
      <trkpt lat="44.12015" lon="0.63997">
        <ele>157</ele>
        <time>2014-08-24T07:05:46Z</time>
      </trkpt>
      <trkpt lat="44.12016" lon="0.63989">
        <ele>157</ele>
        <time>2014-08-24T07:05:49Z</time>
      </trkpt>
      <trkpt lat="44.12016" lon="0.6398">
        <ele>158</ele>
        <time>2014-08-24T07:05:52Z</time>
      </trkpt>
      <trkpt lat="44.12017" lon="0.63974">
        <ele>158</ele>
        <time>2014-08-24T07:05:54Z</time>
      </trkpt>
      <trkpt lat="44.12018" lon="0.63966">
        <ele>158</ele>
        <time>2014-08-24T07:05:57Z</time>
      </trkpt>
      <trkpt lat="44.12018" lon="0.63959">
        <ele>159</ele>
        <time>2014-08-24T07:06:00Z</time>
      </trkpt>
      <trkpt lat="44.12018" lon="0.63952">
        <ele>159</ele>
        <time>2014-08-24T07:06:03Z</time>
      </trkpt>
      <trkpt lat="44.12019" lon="0.63944">
        <ele>159</ele>
        <time>2014-08-24T07:06:06Z</time>
      </trkpt>
      <trkpt lat="44.1202" lon="0.63938">
        <ele>160</ele>
        <time>2014-08-24T07:06:10Z</time>
      </trkpt>
      <trkpt lat="44.12021" lon="0.63931">
        <ele>160</ele>
        <time>2014-08-24T07:06:16Z</time>
      </trkpt>
      <trkpt lat="44.12021" lon="0.63924">
        <ele>161</ele>
        <time>2014-08-24T07:06:20Z</time>
      </trkpt>
      <trkpt lat="44.12022" lon="0.63918">
        <ele>162</ele>
        <time>2014-08-24T07:06:25Z</time>
      </trkpt>
      <trkpt lat="44.12023" lon="0.63911">
        <ele>163</ele>
        <time>2014-08-24T07:06:31Z</time>
      </trkpt>
      <trkpt lat="44.12024" lon="0.63905">
        <ele>163</ele>
        <time>2014-08-24T07:06:35Z</time>
      </trkpt>
      <trkpt lat="44.12025" lon="0.63898">
        <ele>164</ele>
        <time>2014-08-24T07:06:40Z</time>
      </trkpt>
      <trkpt lat="44.12026" lon="0.6389">
        <ele>165</ele>
        <time>2014-08-24T07:06:45Z</time>
      </trkpt>
      <trkpt lat="44.12027" lon="0.63884">
        <ele>165</ele>
        <time>2014-08-24T07:06:49Z</time>
      </trkpt>
      <trkpt lat="44.12029" lon="0.63876">
        <ele>165</ele>
        <time>2014-08-24T07:06:54Z</time>
      </trkpt>
      <trkpt lat="44.1203" lon="0.6387">
        <ele>165</ele>
        <time>2014-08-24T07:06:59Z</time>
      </trkpt>
      <trkpt lat="44.12031" lon="0.63863">
        <ele>165</ele>
        <time>2014-08-24T07:07:04Z</time>
      </trkpt>
      <trkpt lat="44.12032" lon="0.63857">
        <ele>165</ele>
        <time>2014-08-24T07:07:09Z</time>
      </trkpt>
      <trkpt lat="44.12034" lon="0.63849">
        <ele>164</ele>
        <time>2014-08-24T07:07:13Z</time>
      </trkpt>
      <trkpt lat="44.12035" lon="0.63843">
        <ele>164</ele>
        <time>2014-08-24T07:07:17Z</time>
      </trkpt>
      <trkpt lat="44.12037" lon="0.63836">
        <ele>164</ele>
        <time>2014-08-24T07:07:21Z</time>
      </trkpt>
      <trkpt lat="44.12038" lon="0.6383">
        <ele>164</ele>
        <time>2014-08-24T07:07:23Z</time>
      </trkpt>
      <trkpt lat="44.12038" lon="0.63822">
        <ele>163</ele>
        <time>2014-08-24T07:07:25Z</time>
      </trkpt>
      <trkpt lat="44.12039" lon="0.63812">
        <ele>163</ele>
        <time>2014-08-24T07:07:27Z</time>
      </trkpt>
      <trkpt lat="44.1204" lon="0.63805">
        <ele>163</ele>
        <time>2014-08-24T07:07:29Z</time>
      </trkpt>
      <trkpt lat="44.12041" lon="0.63797">
        <ele>163</ele>
        <time>2014-08-24T07:07:31Z</time>
      </trkpt>
      <trkpt lat="44.12041" lon="0.63789">
        <ele>163</ele>
        <time>2014-08-24T07:07:33Z</time>
      </trkpt>
      <trkpt lat="44.12042" lon="0.6378">
        <ele>163</ele>
        <time>2014-08-24T07:07:36Z</time>
      </trkpt>
      <trkpt lat="44.12042" lon="0.63772">
        <ele>163</ele>
        <time>2014-08-24T07:07:39Z</time>
      </trkpt>
      <trkpt lat="44.12044" lon="0.63763">
        <ele>164</ele>
        <time>2014-08-24T07:07:42Z</time>
      </trkpt>
      <trkpt lat="44.12045" lon="0.63754">
        <ele>164</ele>
        <time>2014-08-24T07:07:45Z</time>
      </trkpt>
      <trkpt lat="44.12046" lon="0.63747">
        <ele>164</ele>
        <time>2014-08-24T07:07:47Z</time>
      </trkpt>
      <trkpt lat="44.12046" lon="0.6374">
        <ele>164</ele>
        <time>2014-08-24T07:07:49Z</time>
      </trkpt>
      <trkpt lat="44.12048" lon="0.63733">
        <ele>164</ele>
        <time>2014-08-24T07:07:51Z</time>
      </trkpt>
      <trkpt lat="44.12049" lon="0.63726">
        <ele>165</ele>
        <time>2014-08-24T07:07:53Z</time>
      </trkpt>
      <trkpt lat="44.1205" lon="0.6372">
        <ele>165</ele>
        <time>2014-08-24T07:07:55Z</time>
      </trkpt>
      <trkpt lat="44.12051" lon="0.6371">
        <ele>165</ele>
        <time>2014-08-24T07:07:58Z</time>
      </trkpt>
      <trkpt lat="44.12051" lon="0.63704">
        <ele>165</ele>
        <time>2014-08-24T07:08:00Z</time>
      </trkpt>
      <trkpt lat="44.12051" lon="0.63696">
        <ele>165</ele>
        <time>2014-08-24T07:08:02Z</time>
      </trkpt>
      <trkpt lat="44.12051" lon="0.63689">
        <ele>165</ele>
        <time>2014-08-24T07:08:04Z</time>
      </trkpt>
      <trkpt lat="44.12051" lon="0.63683">
        <ele>165</ele>
        <time>2014-08-24T07:08:06Z</time>
      </trkpt>
      <trkpt lat="44.12052" lon="0.63674">
        <ele>165</ele>
        <time>2014-08-24T07:08:09Z</time>
      </trkpt>
      <trkpt lat="44.12053" lon="0.63665">
        <ele>165</ele>
        <time>2014-08-24T07:08:12Z</time>
      </trkpt>
      <trkpt lat="44.12053" lon="0.63656">
        <ele>166</ele>
        <time>2014-08-24T07:08:15Z</time>
      </trkpt>
      <trkpt lat="44.12053" lon="0.63648">
        <ele>166</ele>
        <time>2014-08-24T07:08:18Z</time>
      </trkpt>
      <trkpt lat="44.12053" lon="0.63639">
        <ele>166</ele>
        <time>2014-08-24T07:08:21Z</time>
      </trkpt>
      <trkpt lat="44.12053" lon="0.63632">
        <ele>165</ele>
        <time>2014-08-24T07:08:23Z</time>
      </trkpt>
      <trkpt lat="44.12053" lon="0.63625">
        <ele>165</ele>
        <time>2014-08-24T07:08:25Z</time>
      </trkpt>
      <trkpt lat="44.12053" lon="0.63618">
        <ele>166</ele>
        <time>2014-08-24T07:08:28Z</time>
      </trkpt>
      <trkpt lat="44.12052" lon="0.63609">
        <ele>166</ele>
        <time>2014-08-24T07:08:31Z</time>
      </trkpt>
      <trkpt lat="44.12051" lon="0.636">
        <ele>166</ele>
        <time>2014-08-24T07:08:34Z</time>
      </trkpt>
      <trkpt lat="44.12051" lon="0.63592">
        <ele>166</ele>
        <time>2014-08-24T07:08:37Z</time>
      </trkpt>
      <trkpt lat="44.12051" lon="0.63585">
        <ele>166</ele>
        <time>2014-08-24T07:08:39Z</time>
      </trkpt>
      <trkpt lat="44.1205" lon="0.63576">
        <ele>167</ele>
        <time>2014-08-24T07:08:42Z</time>
      </trkpt>
      <trkpt lat="44.12049" lon="0.63567">
        <ele>167</ele>
        <time>2014-08-24T07:08:45Z</time>
      </trkpt>
      <trkpt lat="44.12048" lon="0.63558">
        <ele>167</ele>
        <time>2014-08-24T07:08:48Z</time>
      </trkpt>
      <trkpt lat="44.12046" lon="0.63551">
        <ele>168</ele>
        <time>2014-08-24T07:08:50Z</time>
      </trkpt>
      <trkpt lat="44.12045" lon="0.63544">
        <ele>168</ele>
        <time>2014-08-24T07:08:52Z</time>
      </trkpt>
      <trkpt lat="44.12043" lon="0.63537">
        <ele>168</ele>
        <time>2014-08-24T07:08:54Z</time>
      </trkpt>
      <trkpt lat="44.12042" lon="0.63531">
        <ele>168</ele>
        <time>2014-08-24T07:08:56Z</time>
      </trkpt>
      <trkpt lat="44.1204" lon="0.63523">
        <ele>168</ele>
        <time>2014-08-24T07:08:58Z</time>
      </trkpt>
      <trkpt lat="44.12039" lon="0.63516">
        <ele>168</ele>
        <time>2014-08-24T07:09:00Z</time>
      </trkpt>
      <trkpt lat="44.12037" lon="0.63509">
        <ele>168</ele>
        <time>2014-08-24T07:09:02Z</time>
      </trkpt>
      <trkpt lat="44.12036" lon="0.63503">
        <ele>168</ele>
        <time>2014-08-24T07:09:04Z</time>
      </trkpt>
      <trkpt lat="44.12034" lon="0.63497">
        <ele>168</ele>
        <time>2014-08-24T07:09:06Z</time>
      </trkpt>
      <trkpt lat="44.12032" lon="0.63491">
        <ele>168</ele>
        <time>2014-08-24T07:09:08Z</time>
      </trkpt>
      <trkpt lat="44.1203" lon="0.63485">
        <ele>168</ele>
        <time>2014-08-24T07:09:10Z</time>
      </trkpt>
      <trkpt lat="44.12027" lon="0.63479">
        <ele>169</ele>
        <time>2014-08-24T07:09:12Z</time>
      </trkpt>
      <trkpt lat="44.12025" lon="0.63472">
        <ele>169</ele>
        <time>2014-08-24T07:09:14Z</time>
      </trkpt>
      <trkpt lat="44.12023" lon="0.63467">
        <ele>169</ele>
        <time>2014-08-24T07:09:16Z</time>
      </trkpt>
      <trkpt lat="44.1202" lon="0.63461">
        <ele>169</ele>
        <time>2014-08-24T07:09:18Z</time>
      </trkpt>
      <trkpt lat="44.12016" lon="0.63454">
        <ele>169</ele>
        <time>2014-08-24T07:09:21Z</time>
      </trkpt>
      <trkpt lat="44.12012" lon="0.63448">
        <ele>168</ele>
        <time>2014-08-24T07:09:24Z</time>
      </trkpt>
      <trkpt lat="44.12009" lon="0.63443">
        <ele>168</ele>
        <time>2014-08-24T07:09:26Z</time>
      </trkpt>
      <trkpt lat="44.12005" lon="0.63437">
        <ele>168</ele>
        <time>2014-08-24T07:09:28Z</time>
      </trkpt>
      <trkpt lat="44.12001" lon="0.63432">
        <ele>168</ele>
        <time>2014-08-24T07:09:30Z</time>
      </trkpt>
      <trkpt lat="44.11998" lon="0.63427">
        <ele>168</ele>
        <time>2014-08-24T07:09:32Z</time>
      </trkpt>
      <trkpt lat="44.11994" lon="0.63423">
        <ele>168</ele>
        <time>2014-08-24T07:09:34Z</time>
      </trkpt>
      <trkpt lat="44.1199" lon="0.63418">
        <ele>168</ele>
        <time>2014-08-24T07:09:36Z</time>
      </trkpt>
      <trkpt lat="44.11985" lon="0.63414">
        <ele>168</ele>
        <time>2014-08-24T07:09:38Z</time>
      </trkpt>
      <trkpt lat="44.11981" lon="0.63411">
        <ele>168</ele>
        <time>2014-08-24T07:09:40Z</time>
      </trkpt>
      <trkpt lat="44.11977" lon="0.63407">
        <ele>168</ele>
        <time>2014-08-24T07:09:42Z</time>
      </trkpt>
      <trkpt lat="44.11972" lon="0.63403">
        <ele>168</ele>
        <time>2014-08-24T07:09:44Z</time>
      </trkpt>
      <trkpt lat="44.11968" lon="0.63399">
        <ele>167</ele>
        <time>2014-08-24T07:09:46Z</time>
      </trkpt>
      <trkpt lat="44.11964" lon="0.63396">
        <ele>167</ele>
        <time>2014-08-24T07:09:48Z</time>
      </trkpt>
      <trkpt lat="44.11959" lon="0.63392">
        <ele>167</ele>
        <time>2014-08-24T07:09:51Z</time>
      </trkpt>
      <trkpt lat="44.11955" lon="0.63389">
        <ele>167</ele>
        <time>2014-08-24T07:09:53Z</time>
      </trkpt>
      <trkpt lat="44.11951" lon="0.63385">
        <ele>166</ele>
        <time>2014-08-24T07:09:55Z</time>
      </trkpt>
      <trkpt lat="44.11947" lon="0.63382">
        <ele>166</ele>
        <time>2014-08-24T07:09:57Z</time>
      </trkpt>
      <trkpt lat="44.11942" lon="0.63379">
        <ele>166</ele>
        <time>2014-08-24T07:09:59Z</time>
      </trkpt>
      <trkpt lat="44.11938" lon="0.63375">
        <ele>165</ele>
        <time>2014-08-24T07:10:01Z</time>
      </trkpt>
      <trkpt lat="44.11934" lon="0.63372">
        <ele>165</ele>
        <time>2014-08-24T07:10:03Z</time>
      </trkpt>
      <trkpt lat="44.1193" lon="0.63369">
        <ele>164</ele>
        <time>2014-08-24T07:10:05Z</time>
      </trkpt>
      <trkpt lat="44.11925" lon="0.63365">
        <ele>164</ele>
        <time>2014-08-24T07:10:08Z</time>
      </trkpt>
      <trkpt lat="44.11921" lon="0.63362">
        <ele>164</ele>
        <time>2014-08-24T07:10:11Z</time>
      </trkpt>
      <trkpt lat="44.11915" lon="0.63358">
        <ele>164</ele>
        <time>2014-08-24T07:10:14Z</time>
      </trkpt>
      <trkpt lat="44.1191" lon="0.63355">
        <ele>164</ele>
        <time>2014-08-24T07:10:18Z</time>
      </trkpt>
      <trkpt lat="44.11905" lon="0.63352">
        <ele>164</ele>
        <time>2014-08-24T07:10:21Z</time>
      </trkpt>
      <trkpt lat="44.119" lon="0.63348">
        <ele>164</ele>
        <time>2014-08-24T07:10:24Z</time>
      </trkpt>
      <trkpt lat="44.11895" lon="0.63345">
        <ele>164</ele>
        <time>2014-08-24T07:10:27Z</time>
      </trkpt>
      <trkpt lat="44.11889" lon="0.6334">
        <ele>164</ele>
        <time>2014-08-24T07:10:30Z</time>
      </trkpt>
      <trkpt lat="44.11884" lon="0.63337">
        <ele>164</ele>
        <time>2014-08-24T07:10:33Z</time>
      </trkpt>
      <trkpt lat="44.11878" lon="0.63332">
        <ele>164</ele>
        <time>2014-08-24T07:10:36Z</time>
      </trkpt>
      <trkpt lat="44.11873" lon="0.63328">
        <ele>164</ele>
        <time>2014-08-24T07:10:39Z</time>
      </trkpt>
      <trkpt lat="44.11868" lon="0.63323">
        <ele>164</ele>
        <time>2014-08-24T07:10:42Z</time>
      </trkpt>
      <trkpt lat="44.11864" lon="0.63318">
        <ele>164</ele>
        <time>2014-08-24T07:10:45Z</time>
      </trkpt>
      <trkpt lat="44.1186" lon="0.63312">
        <ele>164</ele>
        <time>2014-08-24T07:10:48Z</time>
      </trkpt>
      <trkpt lat="44.11855" lon="0.63306">
        <ele>164</ele>
        <time>2014-08-24T07:10:51Z</time>
      </trkpt>
      <trkpt lat="44.11851" lon="0.633">
        <ele>164</ele>
        <time>2014-08-24T07:10:54Z</time>
      </trkpt>
      <trkpt lat="44.11846" lon="0.63295">
        <ele>164</ele>
        <time>2014-08-24T07:10:57Z</time>
      </trkpt>
      <trkpt lat="44.11841" lon="0.63289">
        <ele>165</ele>
        <time>2014-08-24T07:11:00Z</time>
      </trkpt>
      <trkpt lat="44.11838" lon="0.63285">
        <ele>165</ele>
        <time>2014-08-24T07:11:02Z</time>
      </trkpt>
      <trkpt lat="44.11833" lon="0.63279">
        <ele>166</ele>
        <time>2014-08-24T07:11:05Z</time>
      </trkpt>
      <trkpt lat="44.1183" lon="0.63271">
        <ele>166</ele>
        <time>2014-08-24T07:11:08Z</time>
      </trkpt>
      <trkpt lat="44.11826" lon="0.63263">
        <ele>166</ele>
        <time>2014-08-24T07:11:11Z</time>
      </trkpt>
      <trkpt lat="44.11823" lon="0.63258">
        <ele>167</ele>
        <time>2014-08-24T07:11:13Z</time>
      </trkpt>
      <trkpt lat="44.11821" lon="0.63252">
        <ele>167</ele>
        <time>2014-08-24T07:11:15Z</time>
      </trkpt>
      <trkpt lat="44.11818" lon="0.63245">
        <ele>167</ele>
        <time>2014-08-24T07:11:17Z</time>
      </trkpt>
      <trkpt lat="44.11816" lon="0.63239">
        <ele>167</ele>
        <time>2014-08-24T07:11:19Z</time>
      </trkpt>
      <trkpt lat="44.11813" lon="0.63232">
        <ele>167</ele>
        <time>2014-08-24T07:11:21Z</time>
      </trkpt>
      <trkpt lat="44.1181" lon="0.63225">
        <ele>167</ele>
        <time>2014-08-24T07:11:24Z</time>
      </trkpt>
      <trkpt lat="44.11807" lon="0.63218">
        <ele>167</ele>
        <time>2014-08-24T07:11:27Z</time>
      </trkpt>
      <trkpt lat="44.11805" lon="0.63212">
        <ele>168</ele>
        <time>2014-08-24T07:11:29Z</time>
      </trkpt>
      <trkpt lat="44.11801" lon="0.63205">
        <ele>168</ele>
        <time>2014-08-24T07:11:32Z</time>
      </trkpt>
      <trkpt lat="44.11798" lon="0.632">
        <ele>168</ele>
        <time>2014-08-24T07:11:34Z</time>
      </trkpt>
      <trkpt lat="44.11796" lon="0.63195">
        <ele>168</ele>
        <time>2014-08-24T07:11:36Z</time>
      </trkpt>
      <trkpt lat="44.11792" lon="0.63188">
        <ele>169</ele>
        <time>2014-08-24T07:11:39Z</time>
      </trkpt>
      <trkpt lat="44.11789" lon="0.6318">
        <ele>169</ele>
        <time>2014-08-24T07:11:42Z</time>
      </trkpt>
      <trkpt lat="44.11785" lon="0.63173">
        <ele>170</ele>
        <time>2014-08-24T07:11:45Z</time>
      </trkpt>
      <trkpt lat="44.11783" lon="0.63167">
        <ele>170</ele>
        <time>2014-08-24T07:11:47Z</time>
      </trkpt>
      <trkpt lat="44.1178" lon="0.6316">
        <ele>170</ele>
        <time>2014-08-24T07:11:50Z</time>
      </trkpt>
      <trkpt lat="44.11775" lon="0.63153">
        <ele>170</ele>
        <time>2014-08-24T07:11:53Z</time>
      </trkpt>
      <trkpt lat="44.11772" lon="0.63148">
        <ele>170</ele>
        <time>2014-08-24T07:11:55Z</time>
      </trkpt>
      <trkpt lat="44.11769" lon="0.63143">
        <ele>170</ele>
        <time>2014-08-24T07:11:57Z</time>
      </trkpt>
      <trkpt lat="44.11766" lon="0.63138">
        <ele>171</ele>
        <time>2014-08-24T07:11:59Z</time>
      </trkpt>
      <trkpt lat="44.11762" lon="0.6313">
        <ele>171</ele>
        <time>2014-08-24T07:12:02Z</time>
      </trkpt>
      <trkpt lat="44.11757" lon="0.63123">
        <ele>171</ele>
        <time>2014-08-24T07:12:05Z</time>
      </trkpt>
      <trkpt lat="44.11754" lon="0.63116">
        <ele>172</ele>
        <time>2014-08-24T07:12:08Z</time>
      </trkpt>
      <trkpt lat="44.11751" lon="0.6311">
        <ele>172</ele>
        <time>2014-08-24T07:12:10Z</time>
      </trkpt>
      <trkpt lat="44.11749" lon="0.63104">
        <ele>172</ele>
        <time>2014-08-24T07:12:12Z</time>
      </trkpt>
      <trkpt lat="44.11746" lon="0.63099">
        <ele>172</ele>
        <time>2014-08-24T07:12:14Z</time>
      </trkpt>
      <trkpt lat="44.11743" lon="0.63091">
        <ele>172</ele>
        <time>2014-08-24T07:12:17Z</time>
      </trkpt>
      <trkpt lat="44.11741" lon="0.63085">
        <ele>173</ele>
        <time>2014-08-24T07:12:19Z</time>
      </trkpt>
      <trkpt lat="44.11738" lon="0.63079">
        <ele>173</ele>
        <time>2014-08-24T07:12:21Z</time>
      </trkpt>
      <trkpt lat="44.11736" lon="0.63069">
        <ele>173</ele>
        <time>2014-08-24T07:12:24Z</time>
      </trkpt>
      <trkpt lat="44.11734" lon="0.63064">
        <ele>173</ele>
        <time>2014-08-24T07:12:26Z</time>
      </trkpt>
      <trkpt lat="44.11732" lon="0.63058">
        <ele>173</ele>
        <time>2014-08-24T07:12:28Z</time>
      </trkpt>
      <trkpt lat="44.11729" lon="0.63052">
        <ele>174</ele>
        <time>2014-08-24T07:12:30Z</time>
      </trkpt>
      <trkpt lat="44.11727" lon="0.63045">
        <ele>174</ele>
        <time>2014-08-24T07:12:32Z</time>
      </trkpt>
      <trkpt lat="44.11725" lon="0.6304">
        <ele>174</ele>
        <time>2014-08-24T07:12:34Z</time>
      </trkpt>
      <trkpt lat="44.11722" lon="0.63035">
        <ele>175</ele>
        <time>2014-08-24T07:12:36Z</time>
      </trkpt>
      <trkpt lat="44.1172" lon="0.63028">
        <ele>175</ele>
        <time>2014-08-24T07:12:38Z</time>
      </trkpt>
      <trkpt lat="44.11718" lon="0.63022">
        <ele>175</ele>
        <time>2014-08-24T07:12:40Z</time>
      </trkpt>
      <trkpt lat="44.11716" lon="0.63016">
        <ele>175</ele>
        <time>2014-08-24T07:12:42Z</time>
      </trkpt>
      <trkpt lat="44.11713" lon="0.6301">
        <ele>175</ele>
        <time>2014-08-24T07:12:44Z</time>
      </trkpt>
      <trkpt lat="44.11712" lon="0.63003">
        <ele>175</ele>
        <time>2014-08-24T07:12:46Z</time>
      </trkpt>
      <trkpt lat="44.1171" lon="0.62997">
        <ele>176</ele>
        <time>2014-08-24T07:12:48Z</time>
      </trkpt>
      <trkpt lat="44.11709" lon="0.62989">
        <ele>176</ele>
        <time>2014-08-24T07:12:51Z</time>
      </trkpt>
      <trkpt lat="44.11706" lon="0.62981">
        <ele>176</ele>
        <time>2014-08-24T07:12:54Z</time>
      </trkpt>
      <trkpt lat="44.11705" lon="0.62975">
        <ele>176</ele>
        <time>2014-08-24T07:12:56Z</time>
      </trkpt>
      <trkpt lat="44.11703" lon="0.62968">
        <ele>176</ele>
        <time>2014-08-24T07:12:58Z</time>
      </trkpt>
      <trkpt lat="44.11702" lon="0.62961">
        <ele>176</ele>
        <time>2014-08-24T07:13:00Z</time>
      </trkpt>
      <trkpt lat="44.117" lon="0.62953">
        <ele>176</ele>
        <time>2014-08-24T07:13:02Z</time>
      </trkpt>
      <trkpt lat="44.11697" lon="0.62946">
        <ele>176</ele>
        <time>2014-08-24T07:13:04Z</time>
      </trkpt>
      <trkpt lat="44.11695" lon="0.62938">
        <ele>176</ele>
        <time>2014-08-24T07:13:07Z</time>
      </trkpt>
      <trkpt lat="44.11693" lon="0.6293">
        <ele>176</ele>
        <time>2014-08-24T07:13:10Z</time>
      </trkpt>
      <trkpt lat="44.11691" lon="0.62921">
        <ele>176</ele>
        <time>2014-08-24T07:13:13Z</time>
      </trkpt>
      <trkpt lat="44.11689" lon="0.62914">
        <ele>176</ele>
        <time>2014-08-24T07:13:15Z</time>
      </trkpt>
      <trkpt lat="44.11687" lon="0.62908">
        <ele>176</ele>
        <time>2014-08-24T07:13:17Z</time>
      </trkpt>
      <trkpt lat="44.11685" lon="0.629">
        <ele>176</ele>
        <time>2014-08-24T07:13:19Z</time>
      </trkpt>
      <trkpt lat="44.11683" lon="0.62893">
        <ele>176</ele>
        <time>2014-08-24T07:13:21Z</time>
      </trkpt>
      <trkpt lat="44.11682" lon="0.62887">
        <ele>175</ele>
        <time>2014-08-24T07:13:23Z</time>
      </trkpt>
      <trkpt lat="44.1168" lon="0.62878">
        <ele>175</ele>
        <time>2014-08-24T07:13:26Z</time>
      </trkpt>
      <trkpt lat="44.11678" lon="0.62869">
        <ele>175</ele>
        <time>2014-08-24T07:13:29Z</time>
      </trkpt>
      <trkpt lat="44.11676" lon="0.62863">
        <ele>175</ele>
        <time>2014-08-24T07:13:31Z</time>
      </trkpt>
      <trkpt lat="44.11675" lon="0.62857">
        <ele>175</ele>
        <time>2014-08-24T07:13:33Z</time>
      </trkpt>
      <trkpt lat="44.11673" lon="0.62851">
        <ele>175</ele>
        <time>2014-08-24T07:13:35Z</time>
      </trkpt>
      <trkpt lat="44.11672" lon="0.62844">
        <ele>174</ele>
        <time>2014-08-24T07:13:37Z</time>
      </trkpt>
      <trkpt lat="44.1167" lon="0.62837">
        <ele>174</ele>
        <time>2014-08-24T07:13:39Z</time>
      </trkpt>
      <trkpt lat="44.11668" lon="0.6283">
        <ele>174</ele>
        <time>2014-08-24T07:13:41Z</time>
      </trkpt>
      <trkpt lat="44.11667" lon="0.62823">
        <ele>174</ele>
        <time>2014-08-24T07:13:43Z</time>
      </trkpt>
      <trkpt lat="44.11665" lon="0.62815">
        <ele>174</ele>
        <time>2014-08-24T07:13:45Z</time>
      </trkpt>
      <trkpt lat="44.11663" lon="0.62809">
        <ele>173</ele>
        <time>2014-08-24T07:13:47Z</time>
      </trkpt>
      <trkpt lat="44.11662" lon="0.62802">
        <ele>173</ele>
        <time>2014-08-24T07:13:49Z</time>
      </trkpt>
      <trkpt lat="44.1166" lon="0.62796">
        <ele>173</ele>
        <time>2014-08-24T07:13:51Z</time>
      </trkpt>
      <trkpt lat="44.11659" lon="0.62789">
        <ele>173</ele>
        <time>2014-08-24T07:13:53Z</time>
      </trkpt>
      <trkpt lat="44.11658" lon="0.62783">
        <ele>173</ele>
        <time>2014-08-24T07:13:55Z</time>
      </trkpt>
      <trkpt lat="44.11655" lon="0.62775">
        <ele>173</ele>
        <time>2014-08-24T07:13:58Z</time>
      </trkpt>
      <trkpt lat="44.11653" lon="0.62766">
        <ele>173</ele>
        <time>2014-08-24T07:14:01Z</time>
      </trkpt>
      <trkpt lat="44.11651" lon="0.6276">
        <ele>173</ele>
        <time>2014-08-24T07:14:03Z</time>
      </trkpt>
      <trkpt lat="44.1165" lon="0.62754">
        <ele>173</ele>
        <time>2014-08-24T07:14:05Z</time>
      </trkpt>
      <trkpt lat="44.11649" lon="0.62748">
        <ele>173</ele>
        <time>2014-08-24T07:14:07Z</time>
      </trkpt>
      <trkpt lat="44.11646" lon="0.62742">
        <ele>172</ele>
        <time>2014-08-24T07:14:09Z</time>
      </trkpt>
      <trkpt lat="44.11644" lon="0.62736">
        <ele>172</ele>
        <time>2014-08-24T07:14:11Z</time>
      </trkpt>
      <trkpt lat="44.11643" lon="0.6273">
        <ele>172</ele>
        <time>2014-08-24T07:14:13Z</time>
      </trkpt>
      <trkpt lat="44.11639" lon="0.62722">
        <ele>172</ele>
        <time>2014-08-24T07:14:16Z</time>
      </trkpt>
      <trkpt lat="44.11637" lon="0.62714">
        <ele>172</ele>
        <time>2014-08-24T07:14:19Z</time>
      </trkpt>
      <trkpt lat="44.11635" lon="0.62706">
        <ele>172</ele>
        <time>2014-08-24T07:14:22Z</time>
      </trkpt>
      <trkpt lat="44.11632" lon="0.62698">
        <ele>172</ele>
        <time>2014-08-24T07:14:25Z</time>
      </trkpt>
      <trkpt lat="44.1163" lon="0.62691">
        <ele>172</ele>
        <time>2014-08-24T07:14:28Z</time>
      </trkpt>
      <trkpt lat="44.11627" lon="0.62683">
        <ele>172</ele>
        <time>2014-08-24T07:14:31Z</time>
      </trkpt>
      <trkpt lat="44.11625" lon="0.62678">
        <ele>172</ele>
        <time>2014-08-24T07:14:33Z</time>
      </trkpt>
      <trkpt lat="44.11622" lon="0.6267">
        <ele>172</ele>
        <time>2014-08-24T07:14:36Z</time>
      </trkpt>
      <trkpt lat="44.1162" lon="0.62665">
        <ele>171</ele>
        <time>2014-08-24T07:14:38Z</time>
      </trkpt>
      <trkpt lat="44.11617" lon="0.62658">
        <ele>171</ele>
        <time>2014-08-24T07:14:41Z</time>
      </trkpt>
      <trkpt lat="44.11613" lon="0.62651">
        <ele>171</ele>
        <time>2014-08-24T07:14:44Z</time>
      </trkpt>
      <trkpt lat="44.1161" lon="0.62646">
        <ele>172</ele>
        <time>2014-08-24T07:14:46Z</time>
      </trkpt>
      <trkpt lat="44.11608" lon="0.6264">
        <ele>172</ele>
        <time>2014-08-24T07:14:48Z</time>
      </trkpt>
      <trkpt lat="44.11604" lon="0.62633">
        <ele>172</ele>
        <time>2014-08-24T07:14:51Z</time>
      </trkpt>
      <trkpt lat="44.11601" lon="0.62627">
        <ele>172</ele>
        <time>2014-08-24T07:14:54Z</time>
      </trkpt>
      <trkpt lat="44.11599" lon="0.6262">
        <ele>172</ele>
        <time>2014-08-24T07:14:57Z</time>
      </trkpt>
      <trkpt lat="44.11596" lon="0.62613">
        <ele>172</ele>
        <time>2014-08-24T07:15:00Z</time>
      </trkpt>
      <trkpt lat="44.11594" lon="0.62607">
        <ele>173</ele>
        <time>2014-08-24T07:15:02Z</time>
      </trkpt>
      <trkpt lat="44.11591" lon="0.626">
        <ele>173</ele>
        <time>2014-08-24T07:15:05Z</time>
      </trkpt>
      <trkpt lat="44.11588" lon="0.62592">
        <ele>173</ele>
        <time>2014-08-24T07:15:08Z</time>
      </trkpt>
      <trkpt lat="44.11585" lon="0.62584">
        <ele>173</ele>
        <time>2014-08-24T07:15:11Z</time>
      </trkpt>
      <trkpt lat="44.11583" lon="0.62578">
        <ele>174</ele>
        <time>2014-08-24T07:15:13Z</time>
      </trkpt>
      <trkpt lat="44.11581" lon="0.62572">
        <ele>174</ele>
        <time>2014-08-24T07:15:15Z</time>
      </trkpt>
      <trkpt lat="44.11578" lon="0.62567">
        <ele>174</ele>
        <time>2014-08-24T07:15:17Z</time>
      </trkpt>
      <trkpt lat="44.11576" lon="0.62561">
        <ele>174</ele>
        <time>2014-08-24T07:15:19Z</time>
      </trkpt>
      <trkpt lat="44.11572" lon="0.62554">
        <ele>174</ele>
        <time>2014-08-24T07:15:22Z</time>
      </trkpt>
      <trkpt lat="44.11569" lon="0.62547">
        <ele>174</ele>
        <time>2014-08-24T07:15:25Z</time>
      </trkpt>
      <trkpt lat="44.11568" lon="0.62541">
        <ele>174</ele>
        <time>2014-08-24T07:15:27Z</time>
      </trkpt>
      <trkpt lat="44.11565" lon="0.62532">
        <ele>174</ele>
        <time>2014-08-24T07:15:30Z</time>
      </trkpt>
      <trkpt lat="44.11562" lon="0.62526">
        <ele>175</ele>
        <time>2014-08-24T07:15:32Z</time>
      </trkpt>
      <trkpt lat="44.1156" lon="0.62517">
        <ele>175</ele>
        <time>2014-08-24T07:15:35Z</time>
      </trkpt>
      <trkpt lat="44.11558" lon="0.62511">
        <ele>175</ele>
        <time>2014-08-24T07:15:37Z</time>
      </trkpt>
      <trkpt lat="44.11556" lon="0.62503">
        <ele>175</ele>
        <time>2014-08-24T07:15:39Z</time>
      </trkpt>
      <trkpt lat="44.11553" lon="0.62496">
        <ele>175</ele>
        <time>2014-08-24T07:15:41Z</time>
      </trkpt>
      <trkpt lat="44.11551" lon="0.62489">
        <ele>176</ele>
        <time>2014-08-24T07:15:43Z</time>
      </trkpt>
      <trkpt lat="44.11549" lon="0.62481">
        <ele>176</ele>
        <time>2014-08-24T07:15:45Z</time>
      </trkpt>
      <trkpt lat="44.11546" lon="0.62474">
        <ele>176</ele>
        <time>2014-08-24T07:15:47Z</time>
      </trkpt>
      <trkpt lat="44.11544" lon="0.62466">
        <ele>176</ele>
        <time>2014-08-24T07:15:49Z</time>
      </trkpt>
      <trkpt lat="44.11542" lon="0.6246">
        <ele>176</ele>
        <time>2014-08-24T07:15:51Z</time>
      </trkpt>
      <trkpt lat="44.11539" lon="0.62453">
        <ele>176</ele>
        <time>2014-08-24T07:15:53Z</time>
      </trkpt>
      <trkpt lat="44.11536" lon="0.62445">
        <ele>176</ele>
        <time>2014-08-24T07:15:56Z</time>
      </trkpt>
      <trkpt lat="44.11534" lon="0.62439">
        <ele>176</ele>
        <time>2014-08-24T07:15:58Z</time>
      </trkpt>
      <trkpt lat="44.11531" lon="0.62433">
        <ele>176</ele>
        <time>2014-08-24T07:16:00Z</time>
      </trkpt>
      <trkpt lat="44.11528" lon="0.62427">
        <ele>176</ele>
        <time>2014-08-24T07:16:02Z</time>
      </trkpt>
      <trkpt lat="44.11525" lon="0.62421">
        <ele>176</ele>
        <time>2014-08-24T07:16:04Z</time>
      </trkpt>
      <trkpt lat="44.11522" lon="0.62415">
        <ele>176</ele>
        <time>2014-08-24T07:16:06Z</time>
      </trkpt>
      <trkpt lat="44.11518" lon="0.62409">
        <ele>176</ele>
        <time>2014-08-24T07:16:09Z</time>
      </trkpt>
      <trkpt lat="44.11513" lon="0.62402">
        <ele>176</ele>
        <time>2014-08-24T07:16:12Z</time>
      </trkpt>
      <trkpt lat="44.1151" lon="0.62395">
        <ele>176</ele>
        <time>2014-08-24T07:16:15Z</time>
      </trkpt>
      <trkpt lat="44.11506" lon="0.62388">
        <ele>176</ele>
        <time>2014-08-24T07:16:18Z</time>
      </trkpt>
      <trkpt lat="44.11504" lon="0.62383">
        <ele>176</ele>
        <time>2014-08-24T07:16:20Z</time>
      </trkpt>
      <trkpt lat="44.11501" lon="0.62378">
        <ele>176</ele>
        <time>2014-08-24T07:16:22Z</time>
      </trkpt>
      <trkpt lat="44.11497" lon="0.62373">
        <ele>176</ele>
        <time>2014-08-24T07:16:24Z</time>
      </trkpt>
      <trkpt lat="44.11494" lon="0.62366">
        <ele>176</ele>
        <time>2014-08-24T07:16:26Z</time>
      </trkpt>
      <trkpt lat="44.11491" lon="0.62361">
        <ele>176</ele>
        <time>2014-08-24T07:16:28Z</time>
      </trkpt>
      <trkpt lat="44.11489" lon="0.62355">
        <ele>176</ele>
        <time>2014-08-24T07:16:30Z</time>
      </trkpt>
      <trkpt lat="44.11486" lon="0.62349">
        <ele>176</ele>
        <time>2014-08-24T07:16:32Z</time>
      </trkpt>
      <trkpt lat="44.11484" lon="0.62342">
        <ele>176</ele>
        <time>2014-08-24T07:16:34Z</time>
      </trkpt>
      <trkpt lat="44.11481" lon="0.62334">
        <ele>176</ele>
        <time>2014-08-24T07:16:37Z</time>
      </trkpt>
      <trkpt lat="44.11478" lon="0.62329">
        <ele>176</ele>
        <time>2014-08-24T07:16:39Z</time>
      </trkpt>
      <trkpt lat="44.11476" lon="0.62323">
        <ele>177</ele>
        <time>2014-08-24T07:16:41Z</time>
      </trkpt>
      <trkpt lat="44.11474" lon="0.62317">
        <ele>177</ele>
        <time>2014-08-24T07:16:43Z</time>
      </trkpt>
      <trkpt lat="44.11473" lon="0.6231">
        <ele>177</ele>
        <time>2014-08-24T07:16:46Z</time>
      </trkpt>
      <trkpt lat="44.1147" lon="0.62301">
        <ele>177</ele>
        <time>2014-08-24T07:16:49Z</time>
      </trkpt>
      <trkpt lat="44.11468" lon="0.62294">
        <ele>177</ele>
        <time>2014-08-24T07:16:52Z</time>
      </trkpt>
      <trkpt lat="44.11466" lon="0.62287">
        <ele>177</ele>
        <time>2014-08-24T07:16:55Z</time>
      </trkpt>
      <trkpt lat="44.11463" lon="0.62279">
        <ele>177</ele>
        <time>2014-08-24T07:16:58Z</time>
      </trkpt>
      <trkpt lat="44.11459" lon="0.62273">
        <ele>177</ele>
        <time>2014-08-24T07:17:01Z</time>
      </trkpt>
      <trkpt lat="44.11456" lon="0.62266">
        <ele>177</ele>
        <time>2014-08-24T07:17:04Z</time>
      </trkpt>
      <trkpt lat="44.11454" lon="0.62259">
        <ele>177</ele>
        <time>2014-08-24T07:17:06Z</time>
      </trkpt>
      <trkpt lat="44.11453" lon="0.62253">
        <ele>177</ele>
        <time>2014-08-24T07:17:08Z</time>
      </trkpt>
      <trkpt lat="44.11452" lon="0.62247">
        <ele>177</ele>
        <time>2014-08-24T07:17:10Z</time>
      </trkpt>
      <trkpt lat="44.11451" lon="0.62241">
        <ele>177</ele>
        <time>2014-08-24T07:17:12Z</time>
      </trkpt>
      <trkpt lat="44.11449" lon="0.62232">
        <ele>177</ele>
        <time>2014-08-24T07:17:15Z</time>
      </trkpt>
      <trkpt lat="44.11447" lon="0.62225">
        <ele>178</ele>
        <time>2014-08-24T07:17:18Z</time>
      </trkpt>
      <trkpt lat="44.11445" lon="0.62215">
        <ele>178</ele>
        <time>2014-08-24T07:17:21Z</time>
      </trkpt>
      <trkpt lat="44.11443" lon="0.62207">
        <ele>178</ele>
        <time>2014-08-24T07:17:23Z</time>
      </trkpt>
      <trkpt lat="44.11443" lon="0.62198">
        <ele>178</ele>
        <time>2014-08-24T07:17:25Z</time>
      </trkpt>
      <trkpt lat="44.11443" lon="0.62188">
        <ele>178</ele>
        <time>2014-08-24T07:17:27Z</time>
      </trkpt>
      <trkpt lat="44.11442" lon="0.62179">
        <ele>178</ele>
        <time>2014-08-24T07:17:29Z</time>
      </trkpt>
      <trkpt lat="44.11441" lon="0.62172">
        <ele>178</ele>
        <time>2014-08-24T07:17:31Z</time>
      </trkpt>
      <trkpt lat="44.1144" lon="0.62165">
        <ele>178</ele>
        <time>2014-08-24T07:17:33Z</time>
      </trkpt>
      <trkpt lat="44.1144" lon="0.62159">
        <ele>178</ele>
        <time>2014-08-24T07:17:35Z</time>
      </trkpt>
      <trkpt lat="44.1144" lon="0.62151">
        <ele>178</ele>
        <time>2014-08-24T07:17:37Z</time>
      </trkpt>
      <trkpt lat="44.11438" lon="0.62143">
        <ele>178</ele>
        <time>2014-08-24T07:17:40Z</time>
      </trkpt>
      <trkpt lat="44.11437" lon="0.62135">
        <ele>178</ele>
        <time>2014-08-24T07:17:42Z</time>
      </trkpt>
      <trkpt lat="44.11435" lon="0.62126">
        <ele>178</ele>
        <time>2014-08-24T07:17:45Z</time>
      </trkpt>
      <trkpt lat="44.11433" lon="0.62119">
        <ele>178</ele>
        <time>2014-08-24T07:17:47Z</time>
      </trkpt>
      <trkpt lat="44.11432" lon="0.62112">
        <ele>178</ele>
        <time>2014-08-24T07:17:49Z</time>
      </trkpt>
      <trkpt lat="44.11431" lon="0.62104">
        <ele>178</ele>
        <time>2014-08-24T07:17:52Z</time>
      </trkpt>
      <trkpt lat="44.1143" lon="0.62096">
        <ele>179</ele>
        <time>2014-08-24T07:17:55Z</time>
      </trkpt>
      <trkpt lat="44.1143" lon="0.62089">
        <ele>179</ele>
        <time>2014-08-24T07:17:57Z</time>
      </trkpt>
      <trkpt lat="44.1143" lon="0.62083">
        <ele>180</ele>
        <time>2014-08-24T07:17:59Z</time>
      </trkpt>
      <trkpt lat="44.11434" lon="0.62077">
        <ele>180</ele>
        <time>2014-08-24T07:18:02Z</time>
      </trkpt>
      <trkpt lat="44.11438" lon="0.62074">
        <ele>180</ele>
        <time>2014-08-24T07:18:05Z</time>
      </trkpt>
      <trkpt lat="44.11444" lon="0.62072">
        <ele>180</ele>
        <time>2014-08-24T07:18:08Z</time>
      </trkpt>
      <trkpt lat="44.11451" lon="0.62069">
        <ele>180</ele>
        <time>2014-08-24T07:18:11Z</time>
      </trkpt>
      <trkpt lat="44.11457" lon="0.62067">
        <ele>180</ele>
        <time>2014-08-24T07:18:14Z</time>
      </trkpt>
      <trkpt lat="44.11464" lon="0.62065">
        <ele>180</ele>
        <time>2014-08-24T07:18:17Z</time>
      </trkpt>
      <trkpt lat="44.11469" lon="0.62064">
        <ele>180</ele>
        <time>2014-08-24T07:18:19Z</time>
      </trkpt>
      <trkpt lat="44.11475" lon="0.62063">
        <ele>180</ele>
        <time>2014-08-24T07:18:22Z</time>
      </trkpt>
      <trkpt lat="44.11481" lon="0.62061">
        <ele>180</ele>
        <time>2014-08-24T07:18:25Z</time>
      </trkpt>
      <trkpt lat="44.11487" lon="0.62059">
        <ele>179</ele>
        <time>2014-08-24T07:18:28Z</time>
      </trkpt>
      <trkpt lat="44.11492" lon="0.62058">
        <ele>179</ele>
        <time>2014-08-24T07:18:30Z</time>
      </trkpt>
      <trkpt lat="44.11497" lon="0.62058">
        <ele>179</ele>
        <time>2014-08-24T07:18:32Z</time>
      </trkpt>
      <trkpt lat="44.11504" lon="0.62057">
        <ele>179</ele>
        <time>2014-08-24T07:18:35Z</time>
      </trkpt>
      <trkpt lat="44.11509" lon="0.62056">
        <ele>179</ele>
        <time>2014-08-24T07:18:37Z</time>
      </trkpt>
      <trkpt lat="44.11514" lon="0.62055">
        <ele>179</ele>
        <time>2014-08-24T07:18:39Z</time>
      </trkpt>
      <trkpt lat="44.11519" lon="0.62054">
        <ele>179</ele>
        <time>2014-08-24T07:18:41Z</time>
      </trkpt>
      <trkpt lat="44.11525" lon="0.62054">
        <ele>179</ele>
        <time>2014-08-24T07:18:44Z</time>
      </trkpt>
      <trkpt lat="44.11531" lon="0.62053">
        <ele>179</ele>
        <time>2014-08-24T07:18:47Z</time>
      </trkpt>
      <trkpt lat="44.11536" lon="0.62053">
        <ele>179</ele>
        <time>2014-08-24T07:18:51Z</time>
      </trkpt>
      <trkpt lat="44.11541" lon="0.62051">
        <ele>179</ele>
        <time>2014-08-24T07:18:55Z</time>
      </trkpt>
      <trkpt lat="44.11546" lon="0.6205">
        <ele>180</ele>
        <time>2014-08-24T07:18:59Z</time>
      </trkpt>
      <trkpt lat="44.11551" lon="0.62047">
        <ele>180</ele>
        <time>2014-08-24T07:19:02Z</time>
      </trkpt>
      <trkpt lat="44.11556" lon="0.62045">
        <ele>180</ele>
        <time>2014-08-24T07:19:04Z</time>
      </trkpt>
      <trkpt lat="44.1156" lon="0.62043">
        <ele>180</ele>
        <time>2014-08-24T07:19:06Z</time>
      </trkpt>
      <trkpt lat="44.11564" lon="0.6204">
        <ele>179</ele>
        <time>2014-08-24T07:19:08Z</time>
      </trkpt>
      <trkpt lat="44.11569" lon="0.62036">
        <ele>179</ele>
        <time>2014-08-24T07:19:10Z</time>
      </trkpt>
      <trkpt lat="44.11573" lon="0.62034">
        <ele>179</ele>
        <time>2014-08-24T07:19:12Z</time>
      </trkpt>
      <trkpt lat="44.11578" lon="0.62031">
        <ele>179</ele>
        <time>2014-08-24T07:19:14Z</time>
      </trkpt>
      <trkpt lat="44.11583" lon="0.62027">
        <ele>179</ele>
        <time>2014-08-24T07:19:16Z</time>
      </trkpt>
      <trkpt lat="44.11589" lon="0.62022">
        <ele>180</ele>
        <time>2014-08-24T07:19:19Z</time>
      </trkpt>
      <trkpt lat="44.11593" lon="0.62018">
        <ele>180</ele>
        <time>2014-08-24T07:19:21Z</time>
      </trkpt>
      <trkpt lat="44.11598" lon="0.62013">
        <ele>180</ele>
        <time>2014-08-24T07:19:24Z</time>
      </trkpt>
      <trkpt lat="44.11604" lon="0.62007">
        <ele>180</ele>
        <time>2014-08-24T07:19:27Z</time>
      </trkpt>
      <trkpt lat="44.11608" lon="0.62004">
        <ele>180</ele>
        <time>2014-08-24T07:19:29Z</time>
      </trkpt>
      <trkpt lat="44.11613" lon="0.62">
        <ele>180</ele>
        <time>2014-08-24T07:19:31Z</time>
      </trkpt>
      <trkpt lat="44.11619" lon="0.61995">
        <ele>180</ele>
        <time>2014-08-24T07:19:34Z</time>
      </trkpt>
      <trkpt lat="44.11623" lon="0.61992">
        <ele>180</ele>
        <time>2014-08-24T07:19:36Z</time>
      </trkpt>
      <trkpt lat="44.11627" lon="0.61988">
        <ele>180</ele>
        <time>2014-08-24T07:19:39Z</time>
      </trkpt>
      <trkpt lat="44.11631" lon="0.61986">
        <ele>179</ele>
        <time>2014-08-24T07:19:42Z</time>
      </trkpt>
      <trkpt lat="44.11636" lon="0.61983">
        <ele>179</ele>
        <time>2014-08-24T07:19:45Z</time>
      </trkpt>
      <trkpt lat="44.11642" lon="0.61977">
        <ele>178</ele>
        <time>2014-08-24T07:19:49Z</time>
      </trkpt>
      <trkpt lat="44.11647" lon="0.61975">
        <ele>177</ele>
        <time>2014-08-24T07:19:51Z</time>
      </trkpt>
      <trkpt lat="44.11653" lon="0.61972">
        <ele>177</ele>
        <time>2014-08-24T07:19:53Z</time>
      </trkpt>
      <trkpt lat="44.11658" lon="0.6197">
        <ele>177</ele>
        <time>2014-08-24T07:19:55Z</time>
      </trkpt>
      <trkpt lat="44.11664" lon="0.61969">
        <ele>176</ele>
        <time>2014-08-24T07:19:58Z</time>
      </trkpt>
      <trkpt lat="44.11668" lon="0.61967">
        <ele>176</ele>
        <time>2014-08-24T07:20:00Z</time>
      </trkpt>
      <trkpt lat="44.11675" lon="0.61963">
        <ele>175</ele>
        <time>2014-08-24T07:20:03Z</time>
      </trkpt>
      <trkpt lat="44.1168" lon="0.61962">
        <ele>175</ele>
        <time>2014-08-24T07:20:06Z</time>
      </trkpt>
      <trkpt lat="44.11686" lon="0.61963">
        <ele>174</ele>
        <time>2014-08-24T07:20:09Z</time>
      </trkpt>
      <trkpt lat="44.11692" lon="0.61962">
        <ele>174</ele>
        <time>2014-08-24T07:20:11Z</time>
      </trkpt>
      <trkpt lat="44.11697" lon="0.61964">
        <ele>173</ele>
        <time>2014-08-24T07:20:15Z</time>
      </trkpt>
      <trkpt lat="44.11703" lon="0.61965">
        <ele>172</ele>
        <time>2014-08-24T07:20:18Z</time>
      </trkpt>
      <trkpt lat="44.1171" lon="0.61964">
        <ele>171</ele>
        <time>2014-08-24T07:20:20Z</time>
      </trkpt>
      <trkpt lat="44.11716" lon="0.61963">
        <ele>171</ele>
        <time>2014-08-24T07:20:22Z</time>
      </trkpt>
      <trkpt lat="44.11723" lon="0.61961">
        <ele>171</ele>
        <time>2014-08-24T07:20:24Z</time>
      </trkpt>
      <trkpt lat="44.1173" lon="0.61959">
        <ele>170</ele>
        <time>2014-08-24T07:20:26Z</time>
      </trkpt>
      <trkpt lat="44.11738" lon="0.61957">
        <ele>170</ele>
        <time>2014-08-24T07:20:28Z</time>
      </trkpt>
      <trkpt lat="44.11745" lon="0.61954">
        <ele>169</ele>
        <time>2014-08-24T07:20:30Z</time>
      </trkpt>
      <trkpt lat="44.11751" lon="0.61952">
        <ele>169</ele>
        <time>2014-08-24T07:20:32Z</time>
      </trkpt>
      <trkpt lat="44.11758" lon="0.6195">
        <ele>168</ele>
        <time>2014-08-24T07:20:34Z</time>
      </trkpt>
      <trkpt lat="44.11764" lon="0.61948">
        <ele>168</ele>
        <time>2014-08-24T07:20:36Z</time>
      </trkpt>
      <trkpt lat="44.11769" lon="0.61947">
        <ele>168</ele>
        <time>2014-08-24T07:20:38Z</time>
      </trkpt>
      <trkpt lat="44.11774" lon="0.61946">
        <ele>167</ele>
        <time>2014-08-24T07:20:40Z</time>
      </trkpt>
      <trkpt lat="44.11782" lon="0.61946">
        <ele>167</ele>
        <time>2014-08-24T07:20:42Z</time>
      </trkpt>
      <trkpt lat="44.11788" lon="0.61947">
        <ele>167</ele>
        <time>2014-08-24T07:20:44Z</time>
      </trkpt>
      <trkpt lat="44.11794" lon="0.61948">
        <ele>166</ele>
        <time>2014-08-24T07:20:46Z</time>
      </trkpt>
      <trkpt lat="44.11799" lon="0.61949">
        <ele>166</ele>
        <time>2014-08-24T07:20:48Z</time>
      </trkpt>
      <trkpt lat="44.11805" lon="0.6195">
        <ele>166</ele>
        <time>2014-08-24T07:20:50Z</time>
      </trkpt>
      <trkpt lat="44.1181" lon="0.61951">
        <ele>165</ele>
        <time>2014-08-24T07:20:52Z</time>
      </trkpt>
      <trkpt lat="44.11816" lon="0.61953">
        <ele>165</ele>
        <time>2014-08-24T07:20:54Z</time>
      </trkpt>
      <trkpt lat="44.11821" lon="0.61953">
        <ele>164</ele>
        <time>2014-08-24T07:20:56Z</time>
      </trkpt>
      <trkpt lat="44.11827" lon="0.61955">
        <ele>164</ele>
        <time>2014-08-24T07:20:58Z</time>
      </trkpt>
      <trkpt lat="44.11832" lon="0.61956">
        <ele>164</ele>
        <time>2014-08-24T07:21:00Z</time>
      </trkpt>
      <trkpt lat="44.11838" lon="0.61958">
        <ele>163</ele>
        <time>2014-08-24T07:21:02Z</time>
      </trkpt>
      <trkpt lat="44.11845" lon="0.61959">
        <ele>163</ele>
        <time>2014-08-24T07:21:04Z</time>
      </trkpt>
      <trkpt lat="44.11852" lon="0.61961">
        <ele>163</ele>
        <time>2014-08-24T07:21:06Z</time>
      </trkpt>
      <trkpt lat="44.11858" lon="0.61963">
        <ele>163</ele>
        <time>2014-08-24T07:21:08Z</time>
      </trkpt>
      <trkpt lat="44.11863" lon="0.61965">
        <ele>163</ele>
        <time>2014-08-24T07:21:10Z</time>
      </trkpt>
      <trkpt lat="44.11868" lon="0.61967">
        <ele>163</ele>
        <time>2014-08-24T07:21:12Z</time>
      </trkpt>
      <trkpt lat="44.11873" lon="0.6197">
        <ele>162</ele>
        <time>2014-08-24T07:21:14Z</time>
      </trkpt>
      <trkpt lat="44.11877" lon="0.61973">
        <ele>162</ele>
        <time>2014-08-24T07:21:16Z</time>
      </trkpt>
      <trkpt lat="44.11881" lon="0.61976">
        <ele>162</ele>
        <time>2014-08-24T07:21:18Z</time>
      </trkpt>
      <trkpt lat="44.11886" lon="0.61978">
        <ele>162</ele>
        <time>2014-08-24T07:21:20Z</time>
      </trkpt>
      <trkpt lat="44.11891" lon="0.61981">
        <ele>162</ele>
        <time>2014-08-24T07:21:22Z</time>
      </trkpt>
      <trkpt lat="44.11896" lon="0.61984">
        <ele>162</ele>
        <time>2014-08-24T07:21:24Z</time>
      </trkpt>
      <trkpt lat="44.119" lon="0.61987">
        <ele>161</ele>
        <time>2014-08-24T07:21:26Z</time>
      </trkpt>
      <trkpt lat="44.11905" lon="0.6199">
        <ele>161</ele>
        <time>2014-08-24T07:21:28Z</time>
      </trkpt>
      <trkpt lat="44.1191" lon="0.61992">
        <ele>161</ele>
        <time>2014-08-24T07:21:30Z</time>
      </trkpt>
      <trkpt lat="44.11915" lon="0.61995">
        <ele>161</ele>
        <time>2014-08-24T07:21:32Z</time>
      </trkpt>
      <trkpt lat="44.11921" lon="0.61999">
        <ele>160</ele>
        <time>2014-08-24T07:21:34Z</time>
      </trkpt>
      <trkpt lat="44.11925" lon="0.62002">
        <ele>160</ele>
        <time>2014-08-24T07:21:36Z</time>
      </trkpt>
      <trkpt lat="44.1193" lon="0.62005">
        <ele>160</ele>
        <time>2014-08-24T07:21:38Z</time>
      </trkpt>
      <trkpt lat="44.11935" lon="0.62008">
        <ele>159</ele>
        <time>2014-08-24T07:21:41Z</time>
      </trkpt>
      <trkpt lat="44.1194" lon="0.6201">
        <ele>159</ele>
        <time>2014-08-24T07:21:44Z</time>
      </trkpt>
      <trkpt lat="44.11946" lon="0.62013">
        <ele>158</ele>
        <time>2014-08-24T07:21:47Z</time>
      </trkpt>
      <trkpt lat="44.11952" lon="0.62017">
        <ele>158</ele>
        <time>2014-08-24T07:21:50Z</time>
      </trkpt>
      <trkpt lat="44.11958" lon="0.6202">
        <ele>158</ele>
        <time>2014-08-24T07:21:53Z</time>
      </trkpt>
      <trkpt lat="44.11964" lon="0.62023">
        <ele>157</ele>
        <time>2014-08-24T07:21:56Z</time>
      </trkpt>
      <trkpt lat="44.11968" lon="0.62026">
        <ele>157</ele>
        <time>2014-08-24T07:21:58Z</time>
      </trkpt>
      <trkpt lat="44.11972" lon="0.62029">
        <ele>157</ele>
        <time>2014-08-24T07:22:00Z</time>
      </trkpt>
      <trkpt lat="44.11978" lon="0.62033">
        <ele>156</ele>
        <time>2014-08-24T07:22:03Z</time>
      </trkpt>
      <trkpt lat="44.11984" lon="0.62038">
        <ele>156</ele>
        <time>2014-08-24T07:22:06Z</time>
      </trkpt>
      <trkpt lat="44.11988" lon="0.62041">
        <ele>156</ele>
        <time>2014-08-24T07:22:09Z</time>
      </trkpt>
      <trkpt lat="44.11994" lon="0.62045">
        <ele>156</ele>
        <time>2014-08-24T07:22:12Z</time>
      </trkpt>
      <trkpt lat="44.11999" lon="0.62048">
        <ele>156</ele>
        <time>2014-08-24T07:22:15Z</time>
      </trkpt>
      <trkpt lat="44.12005" lon="0.62052">
        <ele>156</ele>
        <time>2014-08-24T07:22:18Z</time>
      </trkpt>
      <trkpt lat="44.12011" lon="0.62056">
        <ele>156</ele>
        <time>2014-08-24T07:22:21Z</time>
      </trkpt>
      <trkpt lat="44.12017" lon="0.6206">
        <ele>156</ele>
        <time>2014-08-24T07:22:24Z</time>
      </trkpt>
      <trkpt lat="44.12023" lon="0.62063">
        <ele>156</ele>
        <time>2014-08-24T07:22:27Z</time>
      </trkpt>
      <trkpt lat="44.12029" lon="0.62065">
        <ele>155</ele>
        <time>2014-08-24T07:22:30Z</time>
      </trkpt>
      <trkpt lat="44.12035" lon="0.62068">
        <ele>155</ele>
        <time>2014-08-24T07:22:33Z</time>
      </trkpt>
      <trkpt lat="44.12041" lon="0.62071">
        <ele>155</ele>
        <time>2014-08-24T07:22:36Z</time>
      </trkpt>
      <trkpt lat="44.12048" lon="0.62074">
        <ele>155</ele>
        <time>2014-08-24T07:22:39Z</time>
      </trkpt>
      <trkpt lat="44.12052" lon="0.62077">
        <ele>155</ele>
        <time>2014-08-24T07:22:41Z</time>
      </trkpt>
      <trkpt lat="44.12056" lon="0.62079">
        <ele>155</ele>
        <time>2014-08-24T07:22:43Z</time>
      </trkpt>
      <trkpt lat="44.12061" lon="0.62081">
        <ele>155</ele>
        <time>2014-08-24T07:22:45Z</time>
      </trkpt>
      <trkpt lat="44.12066" lon="0.62083">
        <ele>155</ele>
        <time>2014-08-24T07:22:47Z</time>
      </trkpt>
      <trkpt lat="44.1207" lon="0.62085">
        <ele>155</ele>
        <time>2014-08-24T07:22:49Z</time>
      </trkpt>
      <trkpt lat="44.12076" lon="0.62086">
        <ele>155</ele>
        <time>2014-08-24T07:22:52Z</time>
      </trkpt>
      <trkpt lat="44.1208" lon="0.62089">
        <ele>155</ele>
        <time>2014-08-24T07:22:54Z</time>
      </trkpt>
      <trkpt lat="44.12084" lon="0.62092">
        <ele>155</ele>
        <time>2014-08-24T07:22:56Z</time>
      </trkpt>
      <trkpt lat="44.12088" lon="0.62095">
        <ele>155</ele>
        <time>2014-08-24T07:22:58Z</time>
      </trkpt>
      <trkpt lat="44.12093" lon="0.62097">
        <ele>155</ele>
        <time>2014-08-24T07:23:00Z</time>
      </trkpt>
      <trkpt lat="44.12097" lon="0.621">
        <ele>155</ele>
        <time>2014-08-24T07:23:02Z</time>
      </trkpt>
      <trkpt lat="44.12103" lon="0.62104">
        <ele>155</ele>
        <time>2014-08-24T07:23:05Z</time>
      </trkpt>
      <trkpt lat="44.12107" lon="0.62107">
        <ele>155</ele>
        <time>2014-08-24T07:23:07Z</time>
      </trkpt>
      <trkpt lat="44.12111" lon="0.6211">
        <ele>155</ele>
        <time>2014-08-24T07:23:09Z</time>
      </trkpt>
      <trkpt lat="44.12115" lon="0.62113">
        <ele>155</ele>
        <time>2014-08-24T07:23:11Z</time>
      </trkpt>
      <trkpt lat="44.12119" lon="0.62117">
        <ele>155</ele>
        <time>2014-08-24T07:23:13Z</time>
      </trkpt>
      <trkpt lat="44.12123" lon="0.6212">
        <ele>155</ele>
        <time>2014-08-24T07:23:15Z</time>
      </trkpt>
      <trkpt lat="44.12128" lon="0.62125">
        <ele>156</ele>
        <time>2014-08-24T07:23:18Z</time>
      </trkpt>
      <trkpt lat="44.12132" lon="0.62127">
        <ele>156</ele>
        <time>2014-08-24T07:23:20Z</time>
      </trkpt>
      <trkpt lat="44.12137" lon="0.6213">
        <ele>156</ele>
        <time>2014-08-24T07:23:22Z</time>
      </trkpt>
      <trkpt lat="44.12141" lon="0.62133">
        <ele>156</ele>
        <time>2014-08-24T07:23:24Z</time>
      </trkpt>
      <trkpt lat="44.12146" lon="0.62136">
        <ele>156</ele>
        <time>2014-08-24T07:23:26Z</time>
      </trkpt>
      <trkpt lat="44.12151" lon="0.62139">
        <ele>156</ele>
        <time>2014-08-24T07:23:28Z</time>
      </trkpt>
      <trkpt lat="44.12155" lon="0.62142">
        <ele>156</ele>
        <time>2014-08-24T07:23:30Z</time>
      </trkpt>
      <trkpt lat="44.1216" lon="0.62145">
        <ele>155</ele>
        <time>2014-08-24T07:23:32Z</time>
      </trkpt>
      <trkpt lat="44.12164" lon="0.62147">
        <ele>155</ele>
        <time>2014-08-24T07:23:34Z</time>
      </trkpt>
      <trkpt lat="44.1217" lon="0.6215">
        <ele>155</ele>
        <time>2014-08-24T07:23:37Z</time>
      </trkpt>
      <trkpt lat="44.12175" lon="0.62152">
        <ele>155</ele>
        <time>2014-08-24T07:23:39Z</time>
      </trkpt>
      <trkpt lat="44.12181" lon="0.62154">
        <ele>155</ele>
        <time>2014-08-24T07:23:42Z</time>
      </trkpt>
      <trkpt lat="44.12186" lon="0.62156">
        <ele>155</ele>
        <time>2014-08-24T07:23:44Z</time>
      </trkpt>
      <trkpt lat="44.12191" lon="0.62158">
        <ele>155</ele>
        <time>2014-08-24T07:23:46Z</time>
      </trkpt>
      <trkpt lat="44.12196" lon="0.62159">
        <ele>155</ele>
        <time>2014-08-24T07:23:48Z</time>
      </trkpt>
      <trkpt lat="44.12201" lon="0.6216">
        <ele>155</ele>
        <time>2014-08-24T07:23:51Z</time>
      </trkpt>
      <trkpt lat="44.12207" lon="0.62163">
        <ele>155</ele>
        <time>2014-08-24T07:23:54Z</time>
      </trkpt>
      <trkpt lat="44.12213" lon="0.62165">
        <ele>155</ele>
        <time>2014-08-24T07:23:57Z</time>
      </trkpt>
      <trkpt lat="44.12218" lon="0.62168">
        <ele>154</ele>
        <time>2014-08-24T07:24:00Z</time>
      </trkpt>
      <trkpt lat="44.12222" lon="0.62172">
        <ele>154</ele>
        <time>2014-08-24T07:24:03Z</time>
      </trkpt>
      <trkpt lat="44.12226" lon="0.62179">
        <ele>154</ele>
        <time>2014-08-24T07:24:06Z</time>
      </trkpt>
      <trkpt lat="44.12228" lon="0.62183">
        <ele>154</ele>
        <time>2014-08-24T07:24:08Z</time>
      </trkpt>
      <trkpt lat="44.12231" lon="0.62188">
        <ele>154</ele>
        <time>2014-08-24T07:24:10Z</time>
      </trkpt>
      <trkpt lat="44.12235" lon="0.62194">
        <ele>154</ele>
        <time>2014-08-24T07:24:13Z</time>
      </trkpt>
      <trkpt lat="44.12239" lon="0.62198">
        <ele>154</ele>
        <time>2014-08-24T07:24:16Z</time>
      </trkpt>
      <trkpt lat="44.12243" lon="0.62205">
        <ele>154</ele>
        <time>2014-08-24T07:24:19Z</time>
      </trkpt>
      <trkpt lat="44.12248" lon="0.62211">
        <ele>154</ele>
        <time>2014-08-24T07:24:22Z</time>
      </trkpt>
      <trkpt lat="44.12252" lon="0.62215">
        <ele>154</ele>
        <time>2014-08-24T07:24:24Z</time>
      </trkpt>
      <trkpt lat="44.12257" lon="0.6222">
        <ele>154</ele>
        <time>2014-08-24T07:24:26Z</time>
      </trkpt>
      <trkpt lat="44.12262" lon="0.62224">
        <ele>154</ele>
        <time>2014-08-24T07:24:28Z</time>
      </trkpt>
      <trkpt lat="44.12267" lon="0.62227">
        <ele>154</ele>
        <time>2014-08-24T07:24:30Z</time>
      </trkpt>
      <trkpt lat="44.12272" lon="0.62229">
        <ele>154</ele>
        <time>2014-08-24T07:24:32Z</time>
      </trkpt>
      <trkpt lat="44.12277" lon="0.62231">
        <ele>154</ele>
        <time>2014-08-24T07:24:34Z</time>
      </trkpt>
      <trkpt lat="44.12281" lon="0.62233">
        <ele>155</ele>
        <time>2014-08-24T07:24:36Z</time>
      </trkpt>
      <trkpt lat="44.12286" lon="0.62235">
        <ele>155</ele>
        <time>2014-08-24T07:24:38Z</time>
      </trkpt>
      <trkpt lat="44.12291" lon="0.62237">
        <ele>154</ele>
        <time>2014-08-24T07:24:40Z</time>
      </trkpt>
      <trkpt lat="44.12296" lon="0.62239">
        <ele>154</ele>
        <time>2014-08-24T07:24:42Z</time>
      </trkpt>
      <trkpt lat="44.123" lon="0.62241">
        <ele>154</ele>
        <time>2014-08-24T07:24:44Z</time>
      </trkpt>
      <trkpt lat="44.12305" lon="0.62244">
        <ele>154</ele>
        <time>2014-08-24T07:24:46Z</time>
      </trkpt>
      <trkpt lat="44.1231" lon="0.62246">
        <ele>154</ele>
        <time>2014-08-24T07:24:48Z</time>
      </trkpt>
      <trkpt lat="44.12315" lon="0.62249">
        <ele>154</ele>
        <time>2014-08-24T07:24:50Z</time>
      </trkpt>
      <trkpt lat="44.1232" lon="0.62251">
        <ele>154</ele>
        <time>2014-08-24T07:24:52Z</time>
      </trkpt>
      <trkpt lat="44.12325" lon="0.62253">
        <ele>153</ele>
        <time>2014-08-24T07:24:54Z</time>
      </trkpt>
      <trkpt lat="44.1233" lon="0.62255">
        <ele>153</ele>
        <time>2014-08-24T07:24:56Z</time>
      </trkpt>
      <trkpt lat="44.12336" lon="0.62257">
        <ele>153</ele>
        <time>2014-08-24T07:24:58Z</time>
      </trkpt>
      <trkpt lat="44.12341" lon="0.62258">
        <ele>153</ele>
        <time>2014-08-24T07:25:00Z</time>
      </trkpt>
      <trkpt lat="44.12346" lon="0.6226">
        <ele>153</ele>
        <time>2014-08-24T07:25:02Z</time>
      </trkpt>
      <trkpt lat="44.12351" lon="0.62262">
        <ele>153</ele>
        <time>2014-08-24T07:25:04Z</time>
      </trkpt>
      <trkpt lat="44.12356" lon="0.62263">
        <ele>153</ele>
        <time>2014-08-24T07:25:06Z</time>
      </trkpt>
      <trkpt lat="44.12362" lon="0.62265">
        <ele>153</ele>
        <time>2014-08-24T07:25:08Z</time>
      </trkpt>
      <trkpt lat="44.12367" lon="0.62266">
        <ele>153</ele>
        <time>2014-08-24T07:25:10Z</time>
      </trkpt>
      <trkpt lat="44.12372" lon="0.62267">
        <ele>153</ele>
        <time>2014-08-24T07:25:12Z</time>
      </trkpt>
      <trkpt lat="44.12377" lon="0.62268">
        <ele>153</ele>
        <time>2014-08-24T07:25:14Z</time>
      </trkpt>
      <trkpt lat="44.12383" lon="0.62269">
        <ele>153</ele>
        <time>2014-08-24T07:25:16Z</time>
      </trkpt>
      <trkpt lat="44.12388" lon="0.6227">
        <ele>153</ele>
        <time>2014-08-24T07:25:18Z</time>
      </trkpt>
      <trkpt lat="44.12393" lon="0.6227">
        <ele>152</ele>
        <time>2014-08-24T07:25:20Z</time>
      </trkpt>
      <trkpt lat="44.12398" lon="0.62271">
        <ele>152</ele>
        <time>2014-08-24T07:25:22Z</time>
      </trkpt>
      <trkpt lat="44.12403" lon="0.62271">
        <ele>152</ele>
        <time>2014-08-24T07:25:24Z</time>
      </trkpt>
      <trkpt lat="44.12408" lon="0.62271">
        <ele>152</ele>
        <time>2014-08-24T07:25:26Z</time>
      </trkpt>
      <trkpt lat="44.12413" lon="0.62271">
        <ele>152</ele>
        <time>2014-08-24T07:25:28Z</time>
      </trkpt>
      <trkpt lat="44.12418" lon="0.62271">
        <ele>152</ele>
        <time>2014-08-24T07:25:30Z</time>
      </trkpt>
      <trkpt lat="44.12422" lon="0.62271">
        <ele>151</ele>
        <time>2014-08-24T07:25:32Z</time>
      </trkpt>
      <trkpt lat="44.12428" lon="0.62272">
        <ele>151</ele>
        <time>2014-08-24T07:25:34Z</time>
      </trkpt>
      <trkpt lat="44.12432" lon="0.62273">
        <ele>151</ele>
        <time>2014-08-24T07:25:36Z</time>
      </trkpt>
      <trkpt lat="44.12437" lon="0.62274">
        <ele>151</ele>
        <time>2014-08-24T07:25:38Z</time>
      </trkpt>
      <trkpt lat="44.12442" lon="0.62275">
        <ele>151</ele>
        <time>2014-08-24T07:25:40Z</time>
      </trkpt>
      <trkpt lat="44.12447" lon="0.62276">
        <ele>151</ele>
        <time>2014-08-24T07:25:42Z</time>
      </trkpt>
      <trkpt lat="44.12452" lon="0.62278">
        <ele>151</ele>
        <time>2014-08-24T07:25:44Z</time>
      </trkpt>
      <trkpt lat="44.12457" lon="0.62279">
        <ele>151</ele>
        <time>2014-08-24T07:25:46Z</time>
      </trkpt>
      <trkpt lat="44.12462" lon="0.6228">
        <ele>151</ele>
        <time>2014-08-24T07:25:48Z</time>
      </trkpt>
      <trkpt lat="44.12466" lon="0.62282">
        <ele>151</ele>
        <time>2014-08-24T07:25:50Z</time>
      </trkpt>
      <trkpt lat="44.12473" lon="0.62284">
        <ele>151</ele>
        <time>2014-08-24T07:25:53Z</time>
      </trkpt>
      <trkpt lat="44.12478" lon="0.62286">
        <ele>151</ele>
        <time>2014-08-24T07:25:55Z</time>
      </trkpt>
      <trkpt lat="44.12484" lon="0.62287">
        <ele>151</ele>
        <time>2014-08-24T07:25:57Z</time>
      </trkpt>
      <trkpt lat="44.12489" lon="0.62289">
        <ele>150</ele>
        <time>2014-08-24T07:25:59Z</time>
      </trkpt>
      <trkpt lat="44.12494" lon="0.6229">
        <ele>150</ele>
        <time>2014-08-24T07:26:01Z</time>
      </trkpt>
      <trkpt lat="44.12499" lon="0.62292">
        <ele>150</ele>
        <time>2014-08-24T07:26:03Z</time>
      </trkpt>
      <trkpt lat="44.12503" lon="0.62294">
        <ele>150</ele>
        <time>2014-08-24T07:26:05Z</time>
      </trkpt>
      <trkpt lat="44.12508" lon="0.62295">
        <ele>150</ele>
        <time>2014-08-24T07:26:07Z</time>
      </trkpt>
      <trkpt lat="44.12513" lon="0.62297">
        <ele>150</ele>
        <time>2014-08-24T07:26:09Z</time>
      </trkpt>
      <trkpt lat="44.12518" lon="0.62299">
        <ele>150</ele>
        <time>2014-08-24T07:26:11Z</time>
      </trkpt>
      <trkpt lat="44.12524" lon="0.62302">
        <ele>150</ele>
        <time>2014-08-24T07:26:13Z</time>
      </trkpt>
      <trkpt lat="44.12529" lon="0.62304">
        <ele>150</ele>
        <time>2014-08-24T07:26:15Z</time>
      </trkpt>
      <trkpt lat="44.12535" lon="0.62305">
        <ele>150</ele>
        <time>2014-08-24T07:26:17Z</time>
      </trkpt>
      <trkpt lat="44.1254" lon="0.62307">
        <ele>149</ele>
        <time>2014-08-24T07:26:19Z</time>
      </trkpt>
      <trkpt lat="44.12545" lon="0.62309">
        <ele>149</ele>
        <time>2014-08-24T07:26:21Z</time>
      </trkpt>
      <trkpt lat="44.12551" lon="0.6231">
        <ele>149</ele>
        <time>2014-08-24T07:26:23Z</time>
      </trkpt>
      <trkpt lat="44.12556" lon="0.62312">
        <ele>148</ele>
        <time>2014-08-24T07:26:25Z</time>
      </trkpt>
      <trkpt lat="44.12562" lon="0.62313">
        <ele>148</ele>
        <time>2014-08-24T07:26:27Z</time>
      </trkpt>
      <trkpt lat="44.12567" lon="0.62314">
        <ele>148</ele>
        <time>2014-08-24T07:26:29Z</time>
      </trkpt>
      <trkpt lat="44.12572" lon="0.62315">
        <ele>147</ele>
        <time>2014-08-24T07:26:31Z</time>
      </trkpt>
      <trkpt lat="44.12577" lon="0.62316">
        <ele>147</ele>
        <time>2014-08-24T07:26:33Z</time>
      </trkpt>
      <trkpt lat="44.12582" lon="0.62317">
        <ele>147</ele>
        <time>2014-08-24T07:26:35Z</time>
      </trkpt>
      <trkpt lat="44.12587" lon="0.62317">
        <ele>147</ele>
        <time>2014-08-24T07:26:37Z</time>
      </trkpt>
      <trkpt lat="44.12592" lon="0.62318">
        <ele>146</ele>
        <time>2014-08-24T07:26:39Z</time>
      </trkpt>
      <trkpt lat="44.12598" lon="0.62318">
        <ele>146</ele>
        <time>2014-08-24T07:26:41Z</time>
      </trkpt>
      <trkpt lat="44.12603" lon="0.62318">
        <ele>145</ele>
        <time>2014-08-24T07:26:43Z</time>
      </trkpt>
      <trkpt lat="44.12609" lon="0.62318">
        <ele>145</ele>
        <time>2014-08-24T07:26:45Z</time>
      </trkpt>
      <trkpt lat="44.12615" lon="0.62318">
        <ele>145</ele>
        <time>2014-08-24T07:26:47Z</time>
      </trkpt>
      <trkpt lat="44.1262" lon="0.62318">
        <ele>145</ele>
        <time>2014-08-24T07:26:49Z</time>
      </trkpt>
      <trkpt lat="44.12626" lon="0.62318">
        <ele>144</ele>
        <time>2014-08-24T07:26:51Z</time>
      </trkpt>
      <trkpt lat="44.12631" lon="0.62317">
        <ele>144</ele>
        <time>2014-08-24T07:26:53Z</time>
      </trkpt>
      <trkpt lat="44.12636" lon="0.62316">
        <ele>144</ele>
        <time>2014-08-24T07:26:55Z</time>
      </trkpt>
      <trkpt lat="44.12642" lon="0.62315">
        <ele>144</ele>
        <time>2014-08-24T07:26:57Z</time>
      </trkpt>
      <trkpt lat="44.12647" lon="0.62314">
        <ele>144</ele>
        <time>2014-08-24T07:26:59Z</time>
      </trkpt>
      <trkpt lat="44.12652" lon="0.62313">
        <ele>144</ele>
        <time>2014-08-24T07:27:01Z</time>
      </trkpt>
      <trkpt lat="44.12657" lon="0.62313">
        <ele>144</ele>
        <time>2014-08-24T07:27:03Z</time>
      </trkpt>
      <trkpt lat="44.12661" lon="0.62312">
        <ele>143</ele>
        <time>2014-08-24T07:27:05Z</time>
      </trkpt>
      <trkpt lat="44.12668" lon="0.62312">
        <ele>143</ele>
        <time>2014-08-24T07:27:08Z</time>
      </trkpt>
      <trkpt lat="44.12673" lon="0.62313">
        <ele>143</ele>
        <time>2014-08-24T07:27:11Z</time>
      </trkpt>
      <trkpt lat="44.12679" lon="0.62314">
        <ele>142</ele>
        <time>2014-08-24T07:27:14Z</time>
      </trkpt>
      <trkpt lat="44.12685" lon="0.62314">
        <ele>142</ele>
        <time>2014-08-24T07:27:17Z</time>
      </trkpt>
      <trkpt lat="44.12691" lon="0.62314">
        <ele>142</ele>
        <time>2014-08-24T07:27:20Z</time>
      </trkpt>
      <trkpt lat="44.12697" lon="0.62314">
        <ele>141</ele>
        <time>2014-08-24T07:27:23Z</time>
      </trkpt>
      <trkpt lat="44.12701" lon="0.62316">
        <ele>141</ele>
        <time>2014-08-24T07:27:26Z</time>
      </trkpt>
      <trkpt lat="44.12706" lon="0.62319">
        <ele>140</ele>
        <time>2014-08-24T07:27:29Z</time>
      </trkpt>
      <trkpt lat="44.12712" lon="0.62322">
        <ele>140</ele>
        <time>2014-08-24T07:27:32Z</time>
      </trkpt>
      <trkpt lat="44.12718" lon="0.62327">
        <ele>139</ele>
        <time>2014-08-24T07:27:35Z</time>
      </trkpt>
      <trkpt lat="44.12722" lon="0.62331">
        <ele>139</ele>
        <time>2014-08-24T07:27:37Z</time>
      </trkpt>
      <trkpt lat="44.12725" lon="0.62335">
        <ele>138</ele>
        <time>2014-08-24T07:27:39Z</time>
      </trkpt>
      <trkpt lat="44.1273" lon="0.62339">
        <ele>138</ele>
        <time>2014-08-24T07:27:41Z</time>
      </trkpt>
      <trkpt lat="44.12734" lon="0.62342">
        <ele>137</ele>
        <time>2014-08-24T07:27:43Z</time>
      </trkpt>
      <trkpt lat="44.12738" lon="0.62345">
        <ele>137</ele>
        <time>2014-08-24T07:27:45Z</time>
      </trkpt>
      <trkpt lat="44.12745" lon="0.62347">
        <ele>136</ele>
        <time>2014-08-24T07:27:48Z</time>
      </trkpt>
      <trkpt lat="44.12751" lon="0.62347">
        <ele>135</ele>
        <time>2014-08-24T07:27:51Z</time>
      </trkpt>
      <trkpt lat="44.12757" lon="0.62346">
        <ele>134</ele>
        <time>2014-08-24T07:27:54Z</time>
      </trkpt>
      <trkpt lat="44.12764" lon="0.62344">
        <ele>134</ele>
        <time>2014-08-24T07:27:57Z</time>
      </trkpt>
      <trkpt lat="44.12768" lon="0.62343">
        <ele>133</ele>
        <time>2014-08-24T07:27:59Z</time>
      </trkpt>
      <trkpt lat="44.12774" lon="0.62342">
        <ele>133</ele>
        <time>2014-08-24T07:28:01Z</time>
      </trkpt>
      <trkpt lat="44.12779" lon="0.6234">
        <ele>132</ele>
        <time>2014-08-24T07:28:03Z</time>
      </trkpt>
      <trkpt lat="44.12785" lon="0.62338">
        <ele>132</ele>
        <time>2014-08-24T07:28:06Z</time>
      </trkpt>
      <trkpt lat="44.12791" lon="0.62336">
        <ele>131</ele>
        <time>2014-08-24T07:28:09Z</time>
      </trkpt>
      <trkpt lat="44.12795" lon="0.62333">
        <ele>131</ele>
        <time>2014-08-24T07:28:11Z</time>
      </trkpt>
      <trkpt lat="44.128" lon="0.62331">
        <ele>130</ele>
        <time>2014-08-24T07:28:13Z</time>
      </trkpt>
      <trkpt lat="44.12806" lon="0.6233">
        <ele>130</ele>
        <time>2014-08-24T07:28:16Z</time>
      </trkpt>
      <trkpt lat="44.12812" lon="0.62329">
        <ele>130</ele>
        <time>2014-08-24T07:28:19Z</time>
      </trkpt>
      <trkpt lat="44.12817" lon="0.62328">
        <ele>130</ele>
        <time>2014-08-24T07:28:21Z</time>
      </trkpt>
      <trkpt lat="44.12823" lon="0.62327">
        <ele>129</ele>
        <time>2014-08-24T07:28:24Z</time>
      </trkpt>
      <trkpt lat="44.12829" lon="0.62327">
        <ele>129</ele>
        <time>2014-08-24T07:28:27Z</time>
      </trkpt>
      <trkpt lat="44.12834" lon="0.62327">
        <ele>129</ele>
        <time>2014-08-24T07:28:29Z</time>
      </trkpt>
      <trkpt lat="44.12841" lon="0.62327">
        <ele>128</ele>
        <time>2014-08-24T07:28:32Z</time>
      </trkpt>
      <trkpt lat="44.12846" lon="0.62326">
        <ele>128</ele>
        <time>2014-08-24T07:28:34Z</time>
      </trkpt>
      <trkpt lat="44.1285" lon="0.62326">
        <ele>128</ele>
        <time>2014-08-24T07:28:36Z</time>
      </trkpt>
      <trkpt lat="44.12856" lon="0.62323">
        <ele>127</ele>
        <time>2014-08-24T07:28:38Z</time>
      </trkpt>
      <trkpt lat="44.12861" lon="0.62322">
        <ele>127</ele>
        <time>2014-08-24T07:28:40Z</time>
      </trkpt>
      <trkpt lat="44.12865" lon="0.6232">
        <ele>127</ele>
        <time>2014-08-24T07:28:42Z</time>
      </trkpt>
      <trkpt lat="44.12871" lon="0.62318">
        <ele>126</ele>
        <time>2014-08-24T07:28:44Z</time>
      </trkpt>
      <trkpt lat="44.12875" lon="0.62316">
        <ele>125</ele>
        <time>2014-08-24T07:28:46Z</time>
      </trkpt>
      <trkpt lat="44.12881" lon="0.62313">
        <ele>125</ele>
        <time>2014-08-24T07:28:49Z</time>
      </trkpt>
      <trkpt lat="44.12885" lon="0.62311">
        <ele>124</ele>
        <time>2014-08-24T07:28:51Z</time>
      </trkpt>
      <trkpt lat="44.12891" lon="0.62307">
        <ele>124</ele>
        <time>2014-08-24T07:28:54Z</time>
      </trkpt>
      <trkpt lat="44.12895" lon="0.62304">
        <ele>122</ele>
        <time>2014-08-24T07:28:58Z</time>
      </trkpt>
      <trkpt lat="44.129" lon="0.623">
        <ele>121</ele>
        <time>2014-08-24T07:29:02Z</time>
      </trkpt>
      <trkpt lat="44.12904" lon="0.62296">
        <ele>120</ele>
        <time>2014-08-24T07:29:06Z</time>
      </trkpt>
      <trkpt lat="44.12908" lon="0.62293">
        <ele>119</ele>
        <time>2014-08-24T07:29:10Z</time>
      </trkpt>
      <trkpt lat="44.12913" lon="0.62289">
        <ele>118</ele>
        <time>2014-08-24T07:29:15Z</time>
      </trkpt>
      <trkpt lat="44.12917" lon="0.62286">
        <ele>116</ele>
        <time>2014-08-24T07:29:21Z</time>
      </trkpt>
      <trkpt lat="44.1292" lon="0.62281">
        <ele>115</ele>
        <time>2014-08-24T07:29:25Z</time>
      </trkpt>
      <trkpt lat="44.12924" lon="0.62277">
        <ele>114</ele>
        <time>2014-08-24T07:29:29Z</time>
      </trkpt>
      <trkpt lat="44.12929" lon="0.62274">
        <ele>113</ele>
        <time>2014-08-24T07:29:34Z</time>
      </trkpt>
      <trkpt lat="44.12933" lon="0.62277">
        <ele>110</ele>
        <time>2014-08-24T07:29:45Z</time>
      </trkpt>
      <trkpt lat="44.12931" lon="0.62284">
        <ele>109</ele>
        <time>2014-08-24T07:29:50Z</time>
      </trkpt>
      <trkpt lat="44.1293" lon="0.6229">
        <ele>108</ele>
        <time>2014-08-24T07:29:54Z</time>
      </trkpt>
      <trkpt lat="44.12929" lon="0.62297">
        <ele>107</ele>
        <time>2014-08-24T07:29:59Z</time>
      </trkpt>
      <trkpt lat="44.12925" lon="0.62302">
        <ele>106</ele>
        <time>2014-08-24T07:30:04Z</time>
      </trkpt>
      <trkpt lat="44.12922" lon="0.62308">
        <ele>105</ele>
        <time>2014-08-24T07:30:09Z</time>
      </trkpt>
      <trkpt lat="44.12923" lon="0.62315">
        <ele>104</ele>
        <time>2014-08-24T07:30:15Z</time>
      </trkpt>
      <trkpt lat="44.12925" lon="0.62321">
        <ele>103</ele>
        <time>2014-08-24T07:30:19Z</time>
      </trkpt>
      <trkpt lat="44.1293" lon="0.62322">
        <ele>101</ele>
        <time>2014-08-24T07:30:27Z</time>
      </trkpt>
      <trkpt lat="44.12934" lon="0.62326">
        <ele>101</ele>
        <time>2014-08-24T07:30:30Z</time>
      </trkpt>
      <trkpt lat="44.12939" lon="0.62327">
        <ele>100</ele>
        <time>2014-08-24T07:30:42Z</time>
      </trkpt>
      <trkpt lat="44.12944" lon="0.62327">
        <ele>99</ele>
        <time>2014-08-24T07:30:44Z</time>
      </trkpt>
      <trkpt lat="44.12948" lon="0.6233">
        <ele>99</ele>
        <time>2014-08-24T07:30:54Z</time>
      </trkpt>
      <trkpt lat="44.12948" lon="0.62329">
        <ele>99</ele>
        <time>2014-08-24T07:30:55Z</time>
      </trkpt>
      <trkpt lat="44.12954" lon="0.62327">
        <ele>98</ele>
        <time>2014-08-24T07:31:03Z</time>
      </trkpt>
      <trkpt lat="44.1296" lon="0.62326">
        <ele>97</ele>
        <time>2014-08-24T07:31:07Z</time>
      </trkpt>
      <trkpt lat="44.12966" lon="0.62325">
        <ele>97</ele>
        <time>2014-08-24T07:31:10Z</time>
      </trkpt>
      <trkpt lat="44.12971" lon="0.62325">
        <ele>97</ele>
        <time>2014-08-24T07:31:13Z</time>
      </trkpt>
      <trkpt lat="44.12976" lon="0.62325">
        <ele>96</ele>
        <time>2014-08-24T07:31:16Z</time>
      </trkpt>
      <trkpt lat="44.12983" lon="0.62324">
        <ele>96</ele>
        <time>2014-08-24T07:31:27Z</time>
      </trkpt>
      <trkpt lat="44.12988" lon="0.62324">
        <ele>96</ele>
        <time>2014-08-24T07:31:31Z</time>
      </trkpt>
      <trkpt lat="44.12994" lon="0.62323">
        <ele>95</ele>
        <time>2014-08-24T07:31:35Z</time>
      </trkpt>
      <trkpt lat="44.13" lon="0.62324">
        <ele>95</ele>
        <time>2014-08-24T07:31:39Z</time>
      </trkpt>
      <trkpt lat="44.13006" lon="0.62325">
        <ele>94</ele>
        <time>2014-08-24T07:31:42Z</time>
      </trkpt>
      <trkpt lat="44.13011" lon="0.62325">
        <ele>94</ele>
        <time>2014-08-24T07:31:45Z</time>
      </trkpt>
      <trkpt lat="44.13018" lon="0.62326">
        <ele>94</ele>
        <time>2014-08-24T07:31:48Z</time>
      </trkpt>
      <trkpt lat="44.13023" lon="0.62328">
        <ele>94</ele>
        <time>2014-08-24T07:31:51Z</time>
      </trkpt>
      <trkpt lat="44.13029" lon="0.6233">
        <ele>94</ele>
        <time>2014-08-24T07:31:56Z</time>
      </trkpt>
      <trkpt lat="44.13034" lon="0.62333">
        <ele>94</ele>
        <time>2014-08-24T07:32:00Z</time>
      </trkpt>
      <trkpt lat="44.13039" lon="0.62336">
        <ele>93</ele>
        <time>2014-08-24T07:32:12Z</time>
      </trkpt>
      <trkpt lat="44.13043" lon="0.62339">
        <ele>93</ele>
        <time>2014-08-24T07:32:18Z</time>
      </trkpt>
      <trkpt lat="44.13047" lon="0.62342">
        <ele>94</ele>
        <time>2014-08-24T07:32:31Z</time>
      </trkpt>
      <trkpt lat="44.13054" lon="0.62343">
        <ele>94</ele>
        <time>2014-08-24T07:32:34Z</time>
      </trkpt>
      <trkpt lat="44.13061" lon="0.62344">
        <ele>93</ele>
        <time>2014-08-24T07:32:36Z</time>
      </trkpt>
      <trkpt lat="44.13067" lon="0.62346">
        <ele>93</ele>
        <time>2014-08-24T07:32:38Z</time>
      </trkpt>
      <trkpt lat="44.13075" lon="0.62346">
        <ele>93</ele>
        <time>2014-08-24T07:32:40Z</time>
      </trkpt>
      <trkpt lat="44.13081" lon="0.62347">
        <ele>93</ele>
        <time>2014-08-24T07:32:42Z</time>
      </trkpt>
      <trkpt lat="44.13088" lon="0.62349">
        <ele>93</ele>
        <time>2014-08-24T07:32:44Z</time>
      </trkpt>
      <trkpt lat="44.13094" lon="0.62353">
        <ele>93</ele>
        <time>2014-08-24T07:32:48Z</time>
      </trkpt>
      <trkpt lat="44.13099" lon="0.62355">
        <ele>93</ele>
        <time>2014-08-24T07:32:53Z</time>
      </trkpt>
      <trkpt lat="44.13103" lon="0.62359">
        <ele>94</ele>
        <time>2014-08-24T07:33:01Z</time>
      </trkpt>
      <trkpt lat="44.13108" lon="0.62359">
        <ele>95</ele>
        <time>2014-08-24T07:33:07Z</time>
      </trkpt>
      <trkpt lat="44.13115" lon="0.62361">
        <ele>96</ele>
        <time>2014-08-24T07:33:11Z</time>
      </trkpt>
      <trkpt lat="44.1312" lon="0.62365">
        <ele>96</ele>
        <time>2014-08-24T07:33:15Z</time>
      </trkpt>
      <trkpt lat="44.13126" lon="0.62371">
        <ele>97</ele>
        <time>2014-08-24T07:33:17Z</time>
      </trkpt>
      <trkpt lat="44.13132" lon="0.62376">
        <ele>97</ele>
        <time>2014-08-24T07:33:20Z</time>
      </trkpt>
      <trkpt lat="44.13137" lon="0.62379">
        <ele>97</ele>
        <time>2014-08-24T07:33:22Z</time>
      </trkpt>
      <trkpt lat="44.13143" lon="0.62382">
        <ele>97</ele>
        <time>2014-08-24T07:33:24Z</time>
      </trkpt>
      <trkpt lat="44.13151" lon="0.62386">
        <ele>97</ele>
        <time>2014-08-24T07:33:26Z</time>
      </trkpt>
      <trkpt lat="44.13155" lon="0.62388">
        <ele>97</ele>
        <time>2014-08-24T07:33:27Z</time>
      </trkpt>
      <trkpt lat="44.13159" lon="0.6239">
        <ele>97</ele>
        <time>2014-08-24T07:33:28Z</time>
      </trkpt>
      <trkpt lat="44.13164" lon="0.62392">
        <ele>97</ele>
        <time>2014-08-24T07:33:29Z</time>
      </trkpt>
      <trkpt lat="44.13169" lon="0.62394">
        <ele>97</ele>
        <time>2014-08-24T07:33:30Z</time>
      </trkpt>
      <trkpt lat="44.13174" lon="0.62396">
        <ele>97</ele>
        <time>2014-08-24T07:33:31Z</time>
      </trkpt>
      <trkpt lat="44.13179" lon="0.62397">
        <ele>98</ele>
        <time>2014-08-24T07:33:32Z</time>
      </trkpt>
      <trkpt lat="44.13184" lon="0.62398">
        <ele>98</ele>
        <time>2014-08-24T07:33:33Z</time>
      </trkpt>
      <trkpt lat="44.13189" lon="0.624">
        <ele>98</ele>
        <time>2014-08-24T07:33:34Z</time>
      </trkpt>
      <trkpt lat="44.13194" lon="0.62402">
        <ele>98</ele>
        <time>2014-08-24T07:33:35Z</time>
      </trkpt>
      <trkpt lat="44.13201" lon="0.62404">
        <ele>98</ele>
        <time>2014-08-24T07:33:37Z</time>
      </trkpt>
      <trkpt lat="44.13208" lon="0.62405">
        <ele>98</ele>
        <time>2014-08-24T07:33:39Z</time>
      </trkpt>
      <trkpt lat="44.13216" lon="0.62407">
        <ele>98</ele>
        <time>2014-08-24T07:33:41Z</time>
      </trkpt>
      <trkpt lat="44.13224" lon="0.62409">
        <ele>98</ele>
        <time>2014-08-24T07:33:43Z</time>
      </trkpt>
      <trkpt lat="44.13232" lon="0.62411">
        <ele>98</ele>
        <time>2014-08-24T07:33:45Z</time>
      </trkpt>
      <trkpt lat="44.13239" lon="0.62413">
        <ele>97</ele>
        <time>2014-08-24T07:33:47Z</time>
      </trkpt>
      <trkpt lat="44.13244" lon="0.62416">
        <ele>97</ele>
        <time>2014-08-24T07:33:50Z</time>
      </trkpt>
      <trkpt lat="44.13249" lon="0.62419">
        <ele>97</ele>
        <time>2014-08-24T07:33:53Z</time>
      </trkpt>
      <trkpt lat="44.13253" lon="0.62424">
        <ele>97</ele>
        <time>2014-08-24T07:33:56Z</time>
      </trkpt>
      <trkpt lat="44.13257" lon="0.62428">
        <ele>97</ele>
        <time>2014-08-24T07:34:00Z</time>
      </trkpt>
      <trkpt lat="44.13261" lon="0.62431">
        <ele>97</ele>
        <time>2014-08-24T07:34:03Z</time>
      </trkpt>
      <trkpt lat="44.13268" lon="0.62434">
        <ele>97</ele>
        <time>2014-08-24T07:34:06Z</time>
      </trkpt>
      <trkpt lat="44.13272" lon="0.62437">
        <ele>96</ele>
        <time>2014-08-24T07:34:08Z</time>
      </trkpt>
      <trkpt lat="44.13278" lon="0.62436">
        <ele>96</ele>
        <time>2014-08-24T07:34:15Z</time>
      </trkpt>
      <trkpt lat="44.13284" lon="0.62434">
        <ele>96</ele>
        <time>2014-08-24T07:34:18Z</time>
      </trkpt>
      <trkpt lat="44.13288" lon="0.62432">
        <ele>95</ele>
        <time>2014-08-24T07:34:20Z</time>
      </trkpt>
      <trkpt lat="44.13293" lon="0.62431">
        <ele>95</ele>
        <time>2014-08-24T07:34:22Z</time>
      </trkpt>
      <trkpt lat="44.13298" lon="0.62428">
        <ele>95</ele>
        <time>2014-08-24T07:34:25Z</time>
      </trkpt>
      <trkpt lat="44.13302" lon="0.62424">
        <ele>95</ele>
        <time>2014-08-24T07:34:27Z</time>
      </trkpt>
      <trkpt lat="44.13308" lon="0.62422">
        <ele>94</ele>
        <time>2014-08-24T07:34:29Z</time>
      </trkpt>
      <trkpt lat="44.13312" lon="0.6242">
        <ele>94</ele>
        <time>2014-08-24T07:34:31Z</time>
      </trkpt>
      <trkpt lat="44.13317" lon="0.62417">
        <ele>94</ele>
        <time>2014-08-24T07:34:34Z</time>
      </trkpt>
      <trkpt lat="44.13322" lon="0.62415">
        <ele>94</ele>
        <time>2014-08-24T07:34:37Z</time>
      </trkpt>
      <trkpt lat="44.13327" lon="0.62412">
        <ele>94</ele>
        <time>2014-08-24T07:34:40Z</time>
      </trkpt>
      <trkpt lat="44.13331" lon="0.62409">
        <ele>93</ele>
        <time>2014-08-24T07:34:43Z</time>
      </trkpt>
      <trkpt lat="44.13335" lon="0.62404">
        <ele>93</ele>
        <time>2014-08-24T07:34:45Z</time>
      </trkpt>
      <trkpt lat="44.13339" lon="0.62398">
        <ele>93</ele>
        <time>2014-08-24T07:34:47Z</time>
      </trkpt>
      <trkpt lat="44.13345" lon="0.62393">
        <ele>92</ele>
        <time>2014-08-24T07:34:49Z</time>
      </trkpt>
      <trkpt lat="44.13351" lon="0.62388">
        <ele>92</ele>
        <time>2014-08-24T07:34:51Z</time>
      </trkpt>
      <trkpt lat="44.13357" lon="0.62384">
        <ele>92</ele>
        <time>2014-08-24T07:34:53Z</time>
      </trkpt>
      <trkpt lat="44.13361" lon="0.6238">
        <ele>91</ele>
        <time>2014-08-24T07:34:55Z</time>
      </trkpt>
      <trkpt lat="44.13366" lon="0.62377">
        <ele>91</ele>
        <time>2014-08-24T07:34:57Z</time>
      </trkpt>
      <trkpt lat="44.13372" lon="0.62372">
        <ele>91</ele>
        <time>2014-08-24T07:34:59Z</time>
      </trkpt>
      <trkpt lat="44.13377" lon="0.62372">
        <ele>91</ele>
        <time>2014-08-24T07:35:03Z</time>
      </trkpt>
      <trkpt lat="44.13381" lon="0.62369">
        <ele>90</ele>
        <time>2014-08-24T07:35:06Z</time>
      </trkpt>
      <trkpt lat="44.13386" lon="0.62363">
        <ele>89</ele>
        <time>2014-08-24T07:35:09Z</time>
      </trkpt>
      <trkpt lat="44.1339" lon="0.62358">
        <ele>88</ele>
        <time>2014-08-24T07:35:13Z</time>
      </trkpt>
      <trkpt lat="44.13394" lon="0.62352">
        <ele>87</ele>
        <time>2014-08-24T07:35:19Z</time>
      </trkpt>
      <trkpt lat="44.134" lon="0.62351">
        <ele>86</ele>
        <time>2014-08-24T07:35:21Z</time>
      </trkpt>
      <trkpt lat="44.13406" lon="0.62346">
        <ele>86</ele>
        <time>2014-08-24T07:35:23Z</time>
      </trkpt>
      <trkpt lat="44.13412" lon="0.6234">
        <ele>86</ele>
        <time>2014-08-24T07:35:25Z</time>
      </trkpt>
      <trkpt lat="44.13418" lon="0.62336">
        <ele>86</ele>
        <time>2014-08-24T07:35:27Z</time>
      </trkpt>
      <trkpt lat="44.13422" lon="0.62331">
        <ele>85</ele>
        <time>2014-08-24T07:35:31Z</time>
      </trkpt>
      <trkpt lat="44.13426" lon="0.62328">
        <ele>85</ele>
        <time>2014-08-24T07:35:33Z</time>
      </trkpt>
      <trkpt lat="44.13432" lon="0.62321">
        <ele>85</ele>
        <time>2014-08-24T07:35:35Z</time>
      </trkpt>
      <trkpt lat="44.13437" lon="0.62315">
        <ele>85</ele>
        <time>2014-08-24T07:35:37Z</time>
      </trkpt>
      <trkpt lat="44.13442" lon="0.62312">
        <ele>84</ele>
        <time>2014-08-24T07:35:39Z</time>
      </trkpt>
      <trkpt lat="44.13449" lon="0.62308">
        <ele>84</ele>
        <time>2014-08-24T07:35:41Z</time>
      </trkpt>
      <trkpt lat="44.13454" lon="0.62305">
        <ele>84</ele>
        <time>2014-08-24T07:35:42Z</time>
      </trkpt>
      <trkpt lat="44.13456" lon="0.62298">
        <ele>84</ele>
        <time>2014-08-24T07:35:44Z</time>
      </trkpt>
      <trkpt lat="44.13458" lon="0.62292">
        <ele>83</ele>
        <time>2014-08-24T07:35:46Z</time>
      </trkpt>
      <trkpt lat="44.13462" lon="0.6229">
        <ele>83</ele>
        <time>2014-08-24T07:35:54Z</time>
      </trkpt>
      <trkpt lat="44.13466" lon="0.62286">
        <ele>83</ele>
        <time>2014-08-24T07:35:56Z</time>
      </trkpt>
      <trkpt lat="44.13473" lon="0.62279">
        <ele>84</ele>
        <time>2014-08-24T07:35:58Z</time>
      </trkpt>
      <trkpt lat="44.13477" lon="0.62275">
        <ele>84</ele>
        <time>2014-08-24T07:35:59Z</time>
      </trkpt>
      <trkpt lat="44.13481" lon="0.62272">
        <ele>84</ele>
        <time>2014-08-24T07:36:00Z</time>
      </trkpt>
      <trkpt lat="44.13487" lon="0.62268">
        <ele>84</ele>
        <time>2014-08-24T07:36:01Z</time>
      </trkpt>
      <trkpt lat="44.13493" lon="0.62264">
        <ele>84</ele>
        <time>2014-08-24T07:36:02Z</time>
      </trkpt>
      <trkpt lat="44.13498" lon="0.6226">
        <ele>84</ele>
        <time>2014-08-24T07:36:03Z</time>
      </trkpt>
      <trkpt lat="44.13504" lon="0.62256">
        <ele>84</ele>
        <time>2014-08-24T07:36:04Z</time>
      </trkpt>
      <trkpt lat="44.13509" lon="0.62252">
        <ele>84</ele>
        <time>2014-08-24T07:36:05Z</time>
      </trkpt>
      <trkpt lat="44.13514" lon="0.62249">
        <ele>84</ele>
        <time>2014-08-24T07:36:06Z</time>
      </trkpt>
      <trkpt lat="44.13518" lon="0.62246">
        <ele>84</ele>
        <time>2014-08-24T07:36:07Z</time>
      </trkpt>
      <trkpt lat="44.13525" lon="0.62242">
        <ele>84</ele>
        <time>2014-08-24T07:36:09Z</time>
      </trkpt>
      <trkpt lat="44.13532" lon="0.62237">
        <ele>85</ele>
        <time>2014-08-24T07:36:11Z</time>
      </trkpt>
      <trkpt lat="44.13539" lon="0.62235">
        <ele>85</ele>
        <time>2014-08-24T07:36:13Z</time>
      </trkpt>
      <trkpt lat="44.13545" lon="0.62232">
        <ele>85</ele>
        <time>2014-08-24T07:36:15Z</time>
      </trkpt>
      <trkpt lat="44.1355" lon="0.62229">
        <ele>85</ele>
        <time>2014-08-24T07:36:17Z</time>
      </trkpt>
      <trkpt lat="44.13554" lon="0.62224">
        <ele>86</ele>
        <time>2014-08-24T07:36:20Z</time>
      </trkpt>
      <trkpt lat="44.13557" lon="0.62218">
        <ele>86</ele>
        <time>2014-08-24T07:36:22Z</time>
      </trkpt>
      <trkpt lat="44.13561" lon="0.62212">
        <ele>86</ele>
        <time>2014-08-24T07:36:33Z</time>
      </trkpt>
      <trkpt lat="44.13566" lon="0.6221">
        <ele>85</ele>
        <time>2014-08-24T07:36:37Z</time>
      </trkpt>
      <trkpt lat="44.1357" lon="0.62207">
        <ele>85</ele>
        <time>2014-08-24T07:36:39Z</time>
      </trkpt>
      <trkpt lat="44.13576" lon="0.62204">
        <ele>85</ele>
        <time>2014-08-24T07:36:42Z</time>
      </trkpt>
      <trkpt lat="44.13581" lon="0.62202">
        <ele>84</ele>
        <time>2014-08-24T07:36:44Z</time>
      </trkpt>
      <trkpt lat="44.13586" lon="0.62198">
        <ele>84</ele>
        <time>2014-08-24T07:36:46Z</time>
      </trkpt>
      <trkpt lat="44.13591" lon="0.62193">
        <ele>84</ele>
        <time>2014-08-24T07:36:50Z</time>
      </trkpt>
      <trkpt lat="44.13596" lon="0.6219">
        <ele>84</ele>
        <time>2014-08-24T07:36:52Z</time>
      </trkpt>
      <trkpt lat="44.136" lon="0.62188">
        <ele>85</ele>
        <time>2014-08-24T07:36:54Z</time>
      </trkpt>
      <trkpt lat="44.13605" lon="0.62186">
        <ele>85</ele>
        <time>2014-08-24T07:36:56Z</time>
      </trkpt>
      <trkpt lat="44.13611" lon="0.62183">
        <ele>85</ele>
        <time>2014-08-24T07:36:59Z</time>
      </trkpt>
      <trkpt lat="44.13617" lon="0.6218">
        <ele>85</ele>
        <time>2014-08-24T07:37:02Z</time>
      </trkpt>
      <trkpt lat="44.13622" lon="0.62183">
        <ele>85</ele>
        <time>2014-08-24T07:37:05Z</time>
      </trkpt>
      <trkpt lat="44.13627" lon="0.62184">
        <ele>85</ele>
        <time>2014-08-24T07:37:08Z</time>
      </trkpt>
      <trkpt lat="44.13632" lon="0.62185">
        <ele>86</ele>
        <time>2014-08-24T07:37:10Z</time>
      </trkpt>
      <trkpt lat="44.13637" lon="0.62185">
        <ele>86</ele>
        <time>2014-08-24T07:37:12Z</time>
      </trkpt>
      <trkpt lat="44.13642" lon="0.62185">
        <ele>86</ele>
        <time>2014-08-24T07:37:14Z</time>
      </trkpt>
      <trkpt lat="44.13648" lon="0.62185">
        <ele>87</ele>
        <time>2014-08-24T07:37:16Z</time>
      </trkpt>
      <trkpt lat="44.13652" lon="0.62185">
        <ele>87</ele>
        <time>2014-08-24T07:37:18Z</time>
      </trkpt>
      <trkpt lat="44.13659" lon="0.62186">
        <ele>87</ele>
        <time>2014-08-24T07:37:21Z</time>
      </trkpt>
      <trkpt lat="44.13665" lon="0.62189">
        <ele>87</ele>
        <time>2014-08-24T07:37:24Z</time>
      </trkpt>
      <trkpt lat="44.13669" lon="0.62192">
        <ele>87</ele>
        <time>2014-08-24T07:37:26Z</time>
      </trkpt>
      <trkpt lat="44.13673" lon="0.62194">
        <ele>87</ele>
        <time>2014-08-24T07:37:28Z</time>
      </trkpt>
      <trkpt lat="44.13678" lon="0.62196">
        <ele>88</ele>
        <time>2014-08-24T07:37:30Z</time>
      </trkpt>
      <trkpt lat="44.13684" lon="0.62201">
        <ele>88</ele>
        <time>2014-08-24T07:37:33Z</time>
      </trkpt>
      <trkpt lat="44.13691" lon="0.62204">
        <ele>88</ele>
        <time>2014-08-24T07:37:36Z</time>
      </trkpt>
      <trkpt lat="44.13696" lon="0.62206">
        <ele>88</ele>
        <time>2014-08-24T07:37:38Z</time>
      </trkpt>
      <trkpt lat="44.137" lon="0.62209">
        <ele>88</ele>
        <time>2014-08-24T07:37:40Z</time>
      </trkpt>
      <trkpt lat="44.13704" lon="0.62212">
        <ele>88</ele>
        <time>2014-08-24T07:37:42Z</time>
      </trkpt>
      <trkpt lat="44.13709" lon="0.62216">
        <ele>89</ele>
        <time>2014-08-24T07:37:45Z</time>
      </trkpt>
      <trkpt lat="44.13713" lon="0.6222">
        <ele>89</ele>
        <time>2014-08-24T07:37:47Z</time>
      </trkpt>
      <trkpt lat="44.13717" lon="0.62224">
        <ele>89</ele>
        <time>2014-08-24T07:37:49Z</time>
      </trkpt>
      <trkpt lat="44.13722" lon="0.62227">
        <ele>89</ele>
        <time>2014-08-24T07:37:51Z</time>
      </trkpt>
      <trkpt lat="44.13727" lon="0.62229">
        <ele>89</ele>
        <time>2014-08-24T07:37:53Z</time>
      </trkpt>
      <trkpt lat="44.13731" lon="0.62232">
        <ele>88</ele>
        <time>2014-08-24T07:37:56Z</time>
      </trkpt>
      <trkpt lat="44.13736" lon="0.62236">
        <ele>88</ele>
        <time>2014-08-24T07:37:58Z</time>
      </trkpt>
      <trkpt lat="44.13743" lon="0.6224">
        <ele>88</ele>
        <time>2014-08-24T07:38:02Z</time>
      </trkpt>
      <trkpt lat="44.13749" lon="0.62245">
        <ele>88</ele>
        <time>2014-08-24T07:38:05Z</time>
      </trkpt>
      <trkpt lat="44.13755" lon="0.62251">
        <ele>88</ele>
        <time>2014-08-24T07:38:07Z</time>
      </trkpt>
      <trkpt lat="44.13761" lon="0.62258">
        <ele>88</ele>
        <time>2014-08-24T07:38:09Z</time>
      </trkpt>
      <trkpt lat="44.13765" lon="0.62263">
        <ele>88</ele>
        <time>2014-08-24T07:38:11Z</time>
      </trkpt>
      <trkpt lat="44.1377" lon="0.62267">
        <ele>88</ele>
        <time>2014-08-24T07:38:14Z</time>
      </trkpt>
      <trkpt lat="44.13773" lon="0.62272">
        <ele>88</ele>
        <time>2014-08-24T07:38:16Z</time>
      </trkpt>
      <trkpt lat="44.13777" lon="0.62277">
        <ele>88</ele>
        <time>2014-08-24T07:38:19Z</time>
      </trkpt>
      <trkpt lat="44.13781" lon="0.62281">
        <ele>88</ele>
        <time>2014-08-24T07:38:21Z</time>
      </trkpt>
      <trkpt lat="44.13785" lon="0.62286">
        <ele>88</ele>
        <time>2014-08-24T07:38:23Z</time>
      </trkpt>
      <trkpt lat="44.13789" lon="0.6229">
        <ele>88</ele>
        <time>2014-08-24T07:38:26Z</time>
      </trkpt>
      <trkpt lat="44.13792" lon="0.62294">
        <ele>88</ele>
        <time>2014-08-24T07:38:28Z</time>
      </trkpt>
      <trkpt lat="44.13796" lon="0.62298">
        <ele>88</ele>
        <time>2014-08-24T07:38:31Z</time>
      </trkpt>
      <trkpt lat="44.138" lon="0.62302">
        <ele>88</ele>
        <time>2014-08-24T07:38:33Z</time>
      </trkpt>
      <trkpt lat="44.13805" lon="0.62306">
        <ele>88</ele>
        <time>2014-08-24T07:38:35Z</time>
      </trkpt>
      <trkpt lat="44.13809" lon="0.62311">
        <ele>88</ele>
        <time>2014-08-24T07:38:37Z</time>
      </trkpt>
      <trkpt lat="44.13813" lon="0.62315">
        <ele>87</ele>
        <time>2014-08-24T07:38:39Z</time>
      </trkpt>
      <trkpt lat="44.13817" lon="0.6232">
        <ele>87</ele>
        <time>2014-08-24T07:38:41Z</time>
      </trkpt>
      <trkpt lat="44.13822" lon="0.62325">
        <ele>87</ele>
        <time>2014-08-24T07:38:43Z</time>
      </trkpt>
      <trkpt lat="44.13826" lon="0.62331">
        <ele>87</ele>
        <time>2014-08-24T07:38:45Z</time>
      </trkpt>
      <trkpt lat="44.13831" lon="0.62335">
        <ele>87</ele>
        <time>2014-08-24T07:38:49Z</time>
      </trkpt>
      <trkpt lat="44.13836" lon="0.62339">
        <ele>87</ele>
        <time>2014-08-24T07:38:52Z</time>
      </trkpt>
      <trkpt lat="44.13841" lon="0.62345">
        <ele>87</ele>
        <time>2014-08-24T07:38:55Z</time>
      </trkpt>
      <trkpt lat="44.13845" lon="0.62349">
        <ele>87</ele>
        <time>2014-08-24T07:38:57Z</time>
      </trkpt>
      <trkpt lat="44.13849" lon="0.62353">
        <ele>87</ele>
        <time>2014-08-24T07:38:59Z</time>
      </trkpt>
      <trkpt lat="44.13852" lon="0.62357">
        <ele>87</ele>
        <time>2014-08-24T07:39:01Z</time>
      </trkpt>
      <trkpt lat="44.13857" lon="0.6236">
        <ele>87</ele>
        <time>2014-08-24T07:39:03Z</time>
      </trkpt>
      <trkpt lat="44.13864" lon="0.62364">
        <ele>86</ele>
        <time>2014-08-24T07:39:05Z</time>
      </trkpt>
      <trkpt lat="44.1387" lon="0.62368">
        <ele>86</ele>
        <time>2014-08-24T07:39:07Z</time>
      </trkpt>
      <trkpt lat="44.13876" lon="0.6237">
        <ele>86</ele>
        <time>2014-08-24T07:39:10Z</time>
      </trkpt>
      <trkpt lat="44.13882" lon="0.62374">
        <ele>86</ele>
        <time>2014-08-24T07:39:13Z</time>
      </trkpt>
      <trkpt lat="44.13888" lon="0.62377">
        <ele>86</ele>
        <time>2014-08-24T07:39:15Z</time>
      </trkpt>
      <trkpt lat="44.13894" lon="0.62379">
        <ele>86</ele>
        <time>2014-08-24T07:39:18Z</time>
      </trkpt>
      <trkpt lat="44.13899" lon="0.62381">
        <ele>86</ele>
        <time>2014-08-24T07:39:21Z</time>
      </trkpt>
      <trkpt lat="44.13906" lon="0.62381">
        <ele>86</ele>
        <time>2014-08-24T07:39:24Z</time>
      </trkpt>
      <trkpt lat="44.13911" lon="0.6238">
        <ele>86</ele>
        <time>2014-08-24T07:39:26Z</time>
      </trkpt>
      <trkpt lat="44.13916" lon="0.6238">
        <ele>86</ele>
        <time>2014-08-24T07:39:28Z</time>
      </trkpt>
      <trkpt lat="44.13923" lon="0.62377">
        <ele>86</ele>
        <time>2014-08-24T07:39:31Z</time>
      </trkpt>
      <trkpt lat="44.13928" lon="0.62376">
        <ele>86</ele>
        <time>2014-08-24T07:39:33Z</time>
      </trkpt>
      <trkpt lat="44.13933" lon="0.62375">
        <ele>86</ele>
        <time>2014-08-24T07:39:35Z</time>
      </trkpt>
      <trkpt lat="44.1394" lon="0.62373">
        <ele>86</ele>
        <time>2014-08-24T07:39:38Z</time>
      </trkpt>
      <trkpt lat="44.13944" lon="0.62372">
        <ele>86</ele>
        <time>2014-08-24T07:39:40Z</time>
      </trkpt>
      <trkpt lat="44.1395" lon="0.62373">
        <ele>86</ele>
        <time>2014-08-24T07:39:42Z</time>
      </trkpt>
      <trkpt lat="44.13955" lon="0.62373">
        <ele>86</ele>
        <time>2014-08-24T07:39:45Z</time>
      </trkpt>
      <trkpt lat="44.1396" lon="0.62376">
        <ele>86</ele>
        <time>2014-08-24T07:39:56Z</time>
      </trkpt>
      <trkpt lat="44.13964" lon="0.62381">
        <ele>85</ele>
        <time>2014-08-24T07:40:03Z</time>
      </trkpt>
      <trkpt lat="44.13968" lon="0.62384">
        <ele>83</ele>
        <time>2014-08-24T07:40:12Z</time>
      </trkpt>
      <trkpt lat="44.13972" lon="0.62387">
        <ele>83</ele>
        <time>2014-08-24T07:40:17Z</time>
      </trkpt>
      <trkpt lat="44.13977" lon="0.6239">
        <ele>82</ele>
        <time>2014-08-24T07:40:23Z</time>
      </trkpt>
      <trkpt lat="44.13982" lon="0.62393">
        <ele>82</ele>
        <time>2014-08-24T07:40:30Z</time>
      </trkpt>
      <trkpt lat="44.13987" lon="0.62396">
        <ele>82</ele>
        <time>2014-08-24T07:40:36Z</time>
      </trkpt>
      <trkpt lat="44.13992" lon="0.62398">
        <ele>82</ele>
        <time>2014-08-24T07:40:40Z</time>
      </trkpt>
      <trkpt lat="44.13996" lon="0.62401">
        <ele>82</ele>
        <time>2014-08-24T07:40:43Z</time>
      </trkpt>
      <trkpt lat="44.14001" lon="0.62405">
        <ele>82</ele>
        <time>2014-08-24T07:40:46Z</time>
      </trkpt>
      <trkpt lat="44.14005" lon="0.6241">
        <ele>82</ele>
        <time>2014-08-24T07:40:50Z</time>
      </trkpt>
      <trkpt lat="44.1401" lon="0.62416">
        <ele>82</ele>
        <time>2014-08-24T07:40:53Z</time>
      </trkpt>
      <trkpt lat="44.14013" lon="0.62421">
        <ele>82</ele>
        <time>2014-08-24T07:40:55Z</time>
      </trkpt>
      <trkpt lat="44.14015" lon="0.62428">
        <ele>82</ele>
        <time>2014-08-24T07:40:59Z</time>
      </trkpt>
      <trkpt lat="44.14016" lon="0.62434">
        <ele>83</ele>
        <time>2014-08-24T07:41:01Z</time>
      </trkpt>
      <trkpt lat="44.14018" lon="0.6244">
        <ele>83</ele>
        <time>2014-08-24T07:41:04Z</time>
      </trkpt>
      <trkpt lat="44.14018" lon="0.62447">
        <ele>83</ele>
        <time>2014-08-24T07:41:07Z</time>
      </trkpt>
      <trkpt lat="44.14017" lon="0.62456">
        <ele>83</ele>
        <time>2014-08-24T07:41:10Z</time>
      </trkpt>
      <trkpt lat="44.14018" lon="0.62462">
        <ele>83</ele>
        <time>2014-08-24T07:41:12Z</time>
      </trkpt>
      <trkpt lat="44.14019" lon="0.62468">
        <ele>83</ele>
        <time>2014-08-24T07:41:14Z</time>
      </trkpt>
      <trkpt lat="44.14022" lon="0.62475">
        <ele>83</ele>
        <time>2014-08-24T07:41:16Z</time>
      </trkpt>
      <trkpt lat="44.14024" lon="0.62481">
        <ele>83</ele>
        <time>2014-08-24T07:41:18Z</time>
      </trkpt>
      <trkpt lat="44.14025" lon="0.62489">
        <ele>84</ele>
        <time>2014-08-24T07:41:21Z</time>
      </trkpt>
      <trkpt lat="44.14026" lon="0.62497">
        <ele>84</ele>
        <time>2014-08-24T07:41:23Z</time>
      </trkpt>
      <trkpt lat="44.14027" lon="0.62505">
        <ele>84</ele>
        <time>2014-08-24T07:41:26Z</time>
      </trkpt>
      <trkpt lat="44.14029" lon="0.62512">
        <ele>85</ele>
        <time>2014-08-24T07:41:30Z</time>
      </trkpt>
      <trkpt lat="44.14032" lon="0.62519">
        <ele>85</ele>
        <time>2014-08-24T07:41:33Z</time>
      </trkpt>
      <trkpt lat="44.14033" lon="0.62526">
        <ele>86</ele>
        <time>2014-08-24T07:41:37Z</time>
      </trkpt>
      <trkpt lat="44.14034" lon="0.62533">
        <ele>87</ele>
        <time>2014-08-24T07:41:41Z</time>
      </trkpt>
      <trkpt lat="44.14035" lon="0.62541">
        <ele>88</ele>
        <time>2014-08-24T07:41:45Z</time>
      </trkpt>
      <trkpt lat="44.14035" lon="0.62547">
        <ele>89</ele>
        <time>2014-08-24T07:41:48Z</time>
      </trkpt>
      <trkpt lat="44.14035" lon="0.62554">
        <ele>91</ele>
        <time>2014-08-24T07:41:52Z</time>
      </trkpt>
      <trkpt lat="44.14037" lon="0.6256">
        <ele>92</ele>
        <time>2014-08-24T07:41:55Z</time>
      </trkpt>
      <trkpt lat="44.14038" lon="0.62566">
        <ele>93</ele>
        <time>2014-08-24T07:41:58Z</time>
      </trkpt>
      <trkpt lat="44.14039" lon="0.62573">
        <ele>94</ele>
        <time>2014-08-24T07:42:01Z</time>
      </trkpt>
      <trkpt lat="44.14039" lon="0.6258">
        <ele>95</ele>
        <time>2014-08-24T07:42:05Z</time>
      </trkpt>
      <trkpt lat="44.14038" lon="0.62587">
        <ele>95</ele>
        <time>2014-08-24T07:42:09Z</time>
      </trkpt>
      <trkpt lat="44.14037" lon="0.62595">
        <ele>96</ele>
        <time>2014-08-24T07:42:13Z</time>
      </trkpt>
      <trkpt lat="44.14037" lon="0.62604">
        <ele>97</ele>
        <time>2014-08-24T07:42:17Z</time>
      </trkpt>
      <trkpt lat="44.14034" lon="0.62612">
        <ele>98</ele>
        <time>2014-08-24T07:42:21Z</time>
      </trkpt>
      <trkpt lat="44.14032" lon="0.62619">
        <ele>99</ele>
        <time>2014-08-24T07:42:24Z</time>
      </trkpt>
      <trkpt lat="44.1403" lon="0.62626">
        <ele>100</ele>
        <time>2014-08-24T07:42:27Z</time>
      </trkpt>
      <trkpt lat="44.14029" lon="0.62634">
        <ele>100</ele>
        <time>2014-08-24T07:42:30Z</time>
      </trkpt>
      <trkpt lat="44.14026" lon="0.62642">
        <ele>101</ele>
        <time>2014-08-24T07:42:33Z</time>
      </trkpt>
      <trkpt lat="44.14023" lon="0.62648">
        <ele>101</ele>
        <time>2014-08-24T07:42:36Z</time>
      </trkpt>
      <trkpt lat="44.1402" lon="0.62653">
        <ele>102</ele>
        <time>2014-08-24T07:42:39Z</time>
      </trkpt>
      <trkpt lat="44.14018" lon="0.62661">
        <ele>102</ele>
        <time>2014-08-24T07:42:43Z</time>
      </trkpt>
      <trkpt lat="44.14015" lon="0.62669">
        <ele>102</ele>
        <time>2014-08-24T07:42:46Z</time>
      </trkpt>
      <trkpt lat="44.14013" lon="0.62678">
        <ele>103</ele>
        <time>2014-08-24T07:42:49Z</time>
      </trkpt>
      <trkpt lat="44.14011" lon="0.62684">
        <ele>103</ele>
        <time>2014-08-24T07:42:51Z</time>
      </trkpt>
      <trkpt lat="44.14009" lon="0.62692">
        <ele>104</ele>
        <time>2014-08-24T07:42:54Z</time>
      </trkpt>
      <trkpt lat="44.14006" lon="0.62698">
        <ele>105</ele>
        <time>2014-08-24T07:42:57Z</time>
      </trkpt>
      <trkpt lat="44.14004" lon="0.62704">
        <ele>106</ele>
        <time>2014-08-24T07:43:02Z</time>
      </trkpt>
      <trkpt lat="44.14002" lon="0.62711">
        <ele>107</ele>
        <time>2014-08-24T07:43:08Z</time>
      </trkpt>
      <trkpt lat="44.14" lon="0.62718">
        <ele>107</ele>
        <time>2014-08-24T07:43:11Z</time>
      </trkpt>
      <trkpt lat="44.14" lon="0.62726">
        <ele>107</ele>
        <time>2014-08-24T07:43:15Z</time>
      </trkpt>
      <trkpt lat="44.14" lon="0.62733">
        <ele>107</ele>
        <time>2014-08-24T07:43:18Z</time>
      </trkpt>
      <trkpt lat="44.14001" lon="0.6274">
        <ele>107</ele>
        <time>2014-08-24T07:43:21Z</time>
      </trkpt>
      <trkpt lat="44.14" lon="0.6275">
        <ele>108</ele>
        <time>2014-08-24T07:43:24Z</time>
      </trkpt>
      <trkpt lat="44.14" lon="0.62756">
        <ele>109</ele>
        <time>2014-08-24T07:43:31Z</time>
      </trkpt>
      <trkpt lat="44.14002" lon="0.62763">
        <ele>109</ele>
        <time>2014-08-24T07:43:35Z</time>
      </trkpt>
      <trkpt lat="44.14002" lon="0.6277">
        <ele>110</ele>
        <time>2014-08-24T07:43:38Z</time>
      </trkpt>
      <trkpt lat="44.14003" lon="0.62778">
        <ele>111</ele>
        <time>2014-08-24T07:43:41Z</time>
      </trkpt>
      <trkpt lat="44.14003" lon="0.62787">
        <ele>111</ele>
        <time>2014-08-24T07:43:44Z</time>
      </trkpt>
      <trkpt lat="44.14003" lon="0.62796">
        <ele>112</ele>
        <time>2014-08-24T07:43:47Z</time>
      </trkpt>
      <trkpt lat="44.14003" lon="0.62803">
        <ele>113</ele>
        <time>2014-08-24T07:43:50Z</time>
      </trkpt>
      <trkpt lat="44.14002" lon="0.62812">
        <ele>114</ele>
        <time>2014-08-24T07:43:53Z</time>
      </trkpt>
      <trkpt lat="44.14002" lon="0.62818">
        <ele>114</ele>
        <time>2014-08-24T07:43:55Z</time>
      </trkpt>
      <trkpt lat="44.14" lon="0.62827">
        <ele>115</ele>
        <time>2014-08-24T07:43:58Z</time>
      </trkpt>
      <trkpt lat="44.13998" lon="0.62833">
        <ele>115</ele>
        <time>2014-08-24T07:44:00Z</time>
      </trkpt>
      <trkpt lat="44.13998" lon="0.6284">
        <ele>116</ele>
        <time>2014-08-24T07:44:03Z</time>
      </trkpt>
      <trkpt lat="44.13996" lon="0.62849">
        <ele>116</ele>
        <time>2014-08-24T07:44:06Z</time>
      </trkpt>
      <trkpt lat="44.13994" lon="0.62854">
        <ele>117</ele>
        <time>2014-08-24T07:44:08Z</time>
      </trkpt>
      <trkpt lat="44.13993" lon="0.62863">
        <ele>117</ele>
        <time>2014-08-24T07:44:11Z</time>
      </trkpt>
      <trkpt lat="44.13989" lon="0.62871">
        <ele>118</ele>
        <time>2014-08-24T07:44:13Z</time>
      </trkpt>
      <trkpt lat="44.13986" lon="0.62878">
        <ele>118</ele>
        <time>2014-08-24T07:44:15Z</time>
      </trkpt>
      <trkpt lat="44.13984" lon="0.62884">
        <ele>118</ele>
        <time>2014-08-24T07:44:17Z</time>
      </trkpt>
      <trkpt lat="44.13982" lon="0.62889">
        <ele>118</ele>
        <time>2014-08-24T07:44:19Z</time>
      </trkpt>
      <trkpt lat="44.13978" lon="0.62896">
        <ele>118</ele>
        <time>2014-08-24T07:44:22Z</time>
      </trkpt>
      <trkpt lat="44.13976" lon="0.62901">
        <ele>118</ele>
        <time>2014-08-24T07:44:24Z</time>
      </trkpt>
      <trkpt lat="44.13973" lon="0.62909">
        <ele>118</ele>
        <time>2014-08-24T07:44:27Z</time>
      </trkpt>
      <trkpt lat="44.13972" lon="0.62915">
        <ele>118</ele>
        <time>2014-08-24T07:44:30Z</time>
      </trkpt>
      <trkpt lat="44.1397" lon="0.62921">
        <ele>117</ele>
        <time>2014-08-24T07:44:33Z</time>
      </trkpt>
      <trkpt lat="44.13968" lon="0.62927">
        <ele>117</ele>
        <time>2014-08-24T07:44:36Z</time>
      </trkpt>
      <trkpt lat="44.13966" lon="0.62935">
        <ele>118</ele>
        <time>2014-08-24T07:44:39Z</time>
      </trkpt>
      <trkpt lat="44.13964" lon="0.62942">
        <ele>118</ele>
        <time>2014-08-24T07:44:42Z</time>
      </trkpt>
      <trkpt lat="44.13962" lon="0.62949">
        <ele>118</ele>
        <time>2014-08-24T07:44:45Z</time>
      </trkpt>
      <trkpt lat="44.1396" lon="0.62956">
        <ele>118</ele>
        <time>2014-08-24T07:44:49Z</time>
      </trkpt>
      <trkpt lat="44.13958" lon="0.62962">
        <ele>119</ele>
        <time>2014-08-24T07:44:54Z</time>
      </trkpt>
      <trkpt lat="44.13955" lon="0.62968">
        <ele>119</ele>
        <time>2014-08-24T07:44:58Z</time>
      </trkpt>
      <trkpt lat="44.13953" lon="0.62974">
        <ele>119</ele>
        <time>2014-08-24T07:45:01Z</time>
      </trkpt>
      <trkpt lat="44.13951" lon="0.62981">
        <ele>120</ele>
        <time>2014-08-24T07:45:04Z</time>
      </trkpt>
      <trkpt lat="44.13949" lon="0.62988">
        <ele>121</ele>
        <time>2014-08-24T07:45:09Z</time>
      </trkpt>
      <trkpt lat="44.13948" lon="0.62995">
        <ele>122</ele>
        <time>2014-08-24T07:45:13Z</time>
      </trkpt>
      <trkpt lat="44.13946" lon="0.63001">
        <ele>123</ele>
        <time>2014-08-24T07:45:16Z</time>
      </trkpt>
      <trkpt lat="44.13944" lon="0.63007">
        <ele>123</ele>
        <time>2014-08-24T07:45:19Z</time>
      </trkpt>
      <trkpt lat="44.1394" lon="0.63012">
        <ele>124</ele>
        <time>2014-08-24T07:45:23Z</time>
      </trkpt>
      <trkpt lat="44.13937" lon="0.63018">
        <ele>124</ele>
        <time>2014-08-24T07:45:26Z</time>
      </trkpt>
      <trkpt lat="44.13936" lon="0.63024">
        <ele>125</ele>
        <time>2014-08-24T07:45:28Z</time>
      </trkpt>
      <trkpt lat="44.13934" lon="0.6303">
        <ele>125</ele>
        <time>2014-08-24T07:45:30Z</time>
      </trkpt>
      <trkpt lat="44.13932" lon="0.63037">
        <ele>126</ele>
        <time>2014-08-24T07:45:33Z</time>
      </trkpt>
      <trkpt lat="44.13931" lon="0.63043">
        <ele>127</ele>
        <time>2014-08-24T07:45:37Z</time>
      </trkpt>
      <trkpt lat="44.13929" lon="0.6305">
        <ele>128</ele>
        <time>2014-08-24T07:45:40Z</time>
      </trkpt>
      <trkpt lat="44.13929" lon="0.63058">
        <ele>129</ele>
        <time>2014-08-24T07:45:43Z</time>
      </trkpt>
      <trkpt lat="44.13929" lon="0.63065">
        <ele>130</ele>
        <time>2014-08-24T07:45:47Z</time>
      </trkpt>
      <trkpt lat="44.13928" lon="0.63074">
        <ele>131</ele>
        <time>2014-08-24T07:45:51Z</time>
      </trkpt>
      <trkpt lat="44.13927" lon="0.63082">
        <ele>132</ele>
        <time>2014-08-24T07:45:54Z</time>
      </trkpt>
      <trkpt lat="44.13925" lon="0.63088">
        <ele>133</ele>
        <time>2014-08-24T07:45:58Z</time>
      </trkpt>
      <trkpt lat="44.13922" lon="0.63093">
        <ele>133</ele>
        <time>2014-08-24T07:46:01Z</time>
      </trkpt>
      <trkpt lat="44.13918" lon="0.63098">
        <ele>135</ele>
        <time>2014-08-24T07:46:04Z</time>
      </trkpt>
      <trkpt lat="44.13913" lon="0.63102">
        <ele>136</ele>
        <time>2014-08-24T07:46:08Z</time>
      </trkpt>
      <trkpt lat="44.13909" lon="0.63106">
        <ele>137</ele>
        <time>2014-08-24T07:46:11Z</time>
      </trkpt>
      <trkpt lat="44.13906" lon="0.63112">
        <ele>138</ele>
        <time>2014-08-24T07:46:15Z</time>
      </trkpt>
      <trkpt lat="44.13902" lon="0.63117">
        <ele>139</ele>
        <time>2014-08-24T07:46:19Z</time>
      </trkpt>
      <trkpt lat="44.13898" lon="0.63122">
        <ele>140</ele>
        <time>2014-08-24T07:46:23Z</time>
      </trkpt>
      <trkpt lat="44.13895" lon="0.63128">
        <ele>141</ele>
        <time>2014-08-24T07:46:27Z</time>
      </trkpt>
      <trkpt lat="44.13891" lon="0.63133">
        <ele>142</ele>
        <time>2014-08-24T07:46:31Z</time>
      </trkpt>
      <trkpt lat="44.13889" lon="0.63138">
        <ele>143</ele>
        <time>2014-08-24T07:46:35Z</time>
      </trkpt>
      <trkpt lat="44.13887" lon="0.63144">
        <ele>144</ele>
        <time>2014-08-24T07:46:38Z</time>
      </trkpt>
      <trkpt lat="44.13887" lon="0.63151">
        <ele>144</ele>
        <time>2014-08-24T07:46:40Z</time>
      </trkpt>
      <trkpt lat="44.13887" lon="0.63158">
        <ele>145</ele>
        <time>2014-08-24T07:46:42Z</time>
      </trkpt>
      <trkpt lat="44.13888" lon="0.63166">
        <ele>146</ele>
        <time>2014-08-24T07:46:45Z</time>
      </trkpt>
      <trkpt lat="44.13888" lon="0.63174">
        <ele>146</ele>
        <time>2014-08-24T07:46:48Z</time>
      </trkpt>
      <trkpt lat="44.13887" lon="0.63182">
        <ele>147</ele>
        <time>2014-08-24T07:46:51Z</time>
      </trkpt>
      <trkpt lat="44.13887" lon="0.63191">
        <ele>147</ele>
        <time>2014-08-24T07:46:55Z</time>
      </trkpt>
      <trkpt lat="44.13886" lon="0.63197">
        <ele>148</ele>
        <time>2014-08-24T07:46:58Z</time>
      </trkpt>
      <trkpt lat="44.13882" lon="0.63201">
        <ele>148</ele>
        <time>2014-08-24T07:47:04Z</time>
      </trkpt>
      <trkpt lat="44.13882" lon="0.63207">
        <ele>149</ele>
        <time>2014-08-24T07:47:17Z</time>
      </trkpt>
      <trkpt lat="44.13877" lon="0.63207">
        <ele>151</ele>
        <time>2014-08-24T07:47:29Z</time>
      </trkpt>
      <trkpt lat="44.13875" lon="0.63207">
        <ele>151</ele>
        <time>2014-08-24T07:47:39Z</time>
      </trkpt>
      <trkpt lat="44.13872" lon="0.63207">
        <ele>150</ele>
        <time>2014-08-24T07:47:45Z</time>
      </trkpt>
      <trkpt lat="44.13877" lon="0.63209">
        <ele>148</ele>
        <time>2014-08-24T07:48:01Z</time>
      </trkpt>
      <trkpt lat="44.1388" lon="0.63214">
        <ele>148</ele>
        <time>2014-08-24T07:48:09Z</time>
      </trkpt>
      <trkpt lat="44.13881" lon="0.63215">
        <ele>148</ele>
        <time>2014-08-24T07:48:24Z</time>
      </trkpt>
      <trkpt lat="44.13881" lon="0.63214">
        <ele>148</ele>
        <time>2014-08-24T07:48:39Z</time>
      </trkpt>
      <trkpt lat="44.13881" lon="0.63214">
        <ele>149</ele>
        <time>2014-08-24T07:48:54Z</time>
      </trkpt>
      <trkpt lat="44.13879" lon="0.63215">
        <ele>151</ele>
        <time>2014-08-24T07:49:09Z</time>
      </trkpt>
      <trkpt lat="44.13875" lon="0.63212">
        <ele>152</ele>
        <time>2014-08-24T07:49:21Z</time>
      </trkpt>
      <trkpt lat="44.1387" lon="0.6321">
        <ele>153</ele>
        <time>2014-08-24T07:49:27Z</time>
      </trkpt>
      <trkpt lat="44.13865" lon="0.6321">
        <ele>153</ele>
        <time>2014-08-24T07:49:31Z</time>
      </trkpt>
      <trkpt lat="44.1386" lon="0.63208">
        <ele>153</ele>
        <time>2014-08-24T07:49:36Z</time>
      </trkpt>
      <trkpt lat="44.13855" lon="0.63207">
        <ele>153</ele>
        <time>2014-08-24T07:49:41Z</time>
      </trkpt>
      <trkpt lat="44.1385" lon="0.63206">
        <ele>153</ele>
        <time>2014-08-24T07:49:45Z</time>
      </trkpt>
      <trkpt lat="44.13845" lon="0.63204">
        <ele>154</ele>
        <time>2014-08-24T07:49:51Z</time>
      </trkpt>
      <trkpt lat="44.13841" lon="0.63202">
        <ele>154</ele>
        <time>2014-08-24T07:49:56Z</time>
      </trkpt>
      <trkpt lat="44.13836" lon="0.63202">
        <ele>154</ele>
        <time>2014-08-24T07:50:00Z</time>
      </trkpt>
      <trkpt lat="44.1383" lon="0.63201">
        <ele>154</ele>
        <time>2014-08-24T07:50:02Z</time>
      </trkpt>
      <trkpt lat="44.13825" lon="0.63199">
        <ele>154</ele>
        <time>2014-08-24T07:50:04Z</time>
      </trkpt>
      <trkpt lat="44.1382" lon="0.63197">
        <ele>154</ele>
        <time>2014-08-24T07:50:06Z</time>
      </trkpt>
      <trkpt lat="44.13813" lon="0.63196">
        <ele>155</ele>
        <time>2014-08-24T07:50:09Z</time>
      </trkpt>
      <trkpt lat="44.13807" lon="0.63193">
        <ele>155</ele>
        <time>2014-08-24T07:50:12Z</time>
      </trkpt>
      <trkpt lat="44.13802" lon="0.63192">
        <ele>155</ele>
        <time>2014-08-24T07:50:14Z</time>
      </trkpt>
      <trkpt lat="44.13798" lon="0.63191">
        <ele>155</ele>
        <time>2014-08-24T07:50:16Z</time>
      </trkpt>
      <trkpt lat="44.13791" lon="0.63189">
        <ele>155</ele>
        <time>2014-08-24T07:50:19Z</time>
      </trkpt>
      <trkpt lat="44.13786" lon="0.63187">
        <ele>155</ele>
        <time>2014-08-24T07:50:21Z</time>
      </trkpt>
      <trkpt lat="44.1378" lon="0.63185">
        <ele>156</ele>
        <time>2014-08-24T07:50:24Z</time>
      </trkpt>
      <trkpt lat="44.13774" lon="0.63184">
        <ele>156</ele>
        <time>2014-08-24T07:50:27Z</time>
      </trkpt>
      <trkpt lat="44.13769" lon="0.63182">
        <ele>156</ele>
        <time>2014-08-24T07:50:29Z</time>
      </trkpt>
      <trkpt lat="44.13762" lon="0.63182">
        <ele>156</ele>
        <time>2014-08-24T07:50:32Z</time>
      </trkpt>
      <trkpt lat="44.13756" lon="0.63181">
        <ele>156</ele>
        <time>2014-08-24T07:50:35Z</time>
      </trkpt>
      <trkpt lat="44.13749" lon="0.6318">
        <ele>156</ele>
        <time>2014-08-24T07:50:38Z</time>
      </trkpt>
      <trkpt lat="44.13744" lon="0.6318">
        <ele>156</ele>
        <time>2014-08-24T07:50:40Z</time>
      </trkpt>
      <trkpt lat="44.13739" lon="0.63179">
        <ele>156</ele>
        <time>2014-08-24T07:50:42Z</time>
      </trkpt>
      <trkpt lat="44.13733" lon="0.6318">
        <ele>156</ele>
        <time>2014-08-24T07:50:45Z</time>
      </trkpt>
      <trkpt lat="44.13728" lon="0.63181">
        <ele>155</ele>
        <time>2014-08-24T07:50:48Z</time>
      </trkpt>
      <trkpt lat="44.13722" lon="0.63181">
        <ele>155</ele>
        <time>2014-08-24T07:50:52Z</time>
      </trkpt>
      <trkpt lat="44.13717" lon="0.6318">
        <ele>155</ele>
        <time>2014-08-24T07:50:58Z</time>
      </trkpt>
      <trkpt lat="44.13712" lon="0.63181">
        <ele>155</ele>
        <time>2014-08-24T07:51:01Z</time>
      </trkpt>
      <trkpt lat="44.13706" lon="0.63182">
        <ele>155</ele>
        <time>2014-08-24T07:51:10Z</time>
      </trkpt>
      <trkpt lat="44.13701" lon="0.63182">
        <ele>155</ele>
        <time>2014-08-24T07:51:12Z</time>
      </trkpt>
      <trkpt lat="44.13695" lon="0.63182">
        <ele>156</ele>
        <time>2014-08-24T07:51:14Z</time>
      </trkpt>
      <trkpt lat="44.1369" lon="0.63181">
        <ele>156</ele>
        <time>2014-08-24T07:51:16Z</time>
      </trkpt>
      <trkpt lat="44.13684" lon="0.63181">
        <ele>156</ele>
        <time>2014-08-24T07:51:18Z</time>
      </trkpt>
      <trkpt lat="44.13679" lon="0.63181">
        <ele>156</ele>
        <time>2014-08-24T07:51:20Z</time>
      </trkpt>
      <trkpt lat="44.13674" lon="0.63181">
        <ele>156</ele>
        <time>2014-08-24T07:51:22Z</time>
      </trkpt>
      <trkpt lat="44.13668" lon="0.63181">
        <ele>156</ele>
        <time>2014-08-24T07:51:24Z</time>
      </trkpt>
      <trkpt lat="44.13664" lon="0.63181">
        <ele>156</ele>
        <time>2014-08-24T07:51:26Z</time>
      </trkpt>
      <trkpt lat="44.13657" lon="0.63181">
        <ele>156</ele>
        <time>2014-08-24T07:51:29Z</time>
      </trkpt>
      <trkpt lat="44.13652" lon="0.6318">
        <ele>156</ele>
        <time>2014-08-24T07:51:31Z</time>
      </trkpt>
      <trkpt lat="44.13646" lon="0.6318">
        <ele>156</ele>
        <time>2014-08-24T07:51:34Z</time>
      </trkpt>
      <trkpt lat="44.13642" lon="0.6318">
        <ele>156</ele>
        <time>2014-08-24T07:51:36Z</time>
      </trkpt>
      <trkpt lat="44.13636" lon="0.6318">
        <ele>156</ele>
        <time>2014-08-24T07:51:39Z</time>
      </trkpt>
      <trkpt lat="44.13629" lon="0.63182">
        <ele>157</ele>
        <time>2014-08-24T07:51:42Z</time>
      </trkpt>
      <trkpt lat="44.13624" lon="0.63182">
        <ele>157</ele>
        <time>2014-08-24T07:51:44Z</time>
      </trkpt>
      <trkpt lat="44.13617" lon="0.63182">
        <ele>157</ele>
        <time>2014-08-24T07:51:47Z</time>
      </trkpt>
      <trkpt lat="44.13612" lon="0.63182">
        <ele>157</ele>
        <time>2014-08-24T07:51:49Z</time>
      </trkpt>
      <trkpt lat="44.13606" lon="0.63182">
        <ele>158</ele>
        <time>2014-08-24T07:51:51Z</time>
      </trkpt>
      <trkpt lat="44.13599" lon="0.63182">
        <ele>158</ele>
        <time>2014-08-24T07:51:54Z</time>
      </trkpt>
      <trkpt lat="44.13593" lon="0.63182">
        <ele>158</ele>
        <time>2014-08-24T07:51:57Z</time>
      </trkpt>
      <trkpt lat="44.13586" lon="0.63183">
        <ele>158</ele>
        <time>2014-08-24T07:52:00Z</time>
      </trkpt>
      <trkpt lat="44.1358" lon="0.63183">
        <ele>158</ele>
        <time>2014-08-24T07:52:03Z</time>
      </trkpt>
      <trkpt lat="44.13574" lon="0.63185">
        <ele>158</ele>
        <time>2014-08-24T07:52:06Z</time>
      </trkpt>
      <trkpt lat="44.13568" lon="0.63186">
        <ele>158</ele>
        <time>2014-08-24T07:52:08Z</time>
      </trkpt>
      <trkpt lat="44.13563" lon="0.63188">
        <ele>158</ele>
        <time>2014-08-24T07:52:10Z</time>
      </trkpt>
      <trkpt lat="44.13558" lon="0.6319">
        <ele>158</ele>
        <time>2014-08-24T07:52:12Z</time>
      </trkpt>
      <trkpt lat="44.13553" lon="0.63192">
        <ele>159</ele>
        <time>2014-08-24T07:52:14Z</time>
      </trkpt>
      <trkpt lat="44.13547" lon="0.63194">
        <ele>159</ele>
        <time>2014-08-24T07:52:17Z</time>
      </trkpt>
      <trkpt lat="44.13543" lon="0.63196">
        <ele>159</ele>
        <time>2014-08-24T07:52:19Z</time>
      </trkpt>
      <trkpt lat="44.13537" lon="0.632">
        <ele>160</ele>
        <time>2014-08-24T07:52:22Z</time>
      </trkpt>
      <trkpt lat="44.13532" lon="0.63202">
        <ele>160</ele>
        <time>2014-08-24T07:52:24Z</time>
      </trkpt>
      <trkpt lat="44.13528" lon="0.63204">
        <ele>160</ele>
        <time>2014-08-24T07:52:26Z</time>
      </trkpt>
      <trkpt lat="44.13523" lon="0.63206">
        <ele>160</ele>
        <time>2014-08-24T07:52:28Z</time>
      </trkpt>
      <trkpt lat="44.13519" lon="0.63209">
        <ele>160</ele>
        <time>2014-08-24T07:52:30Z</time>
      </trkpt>
      <trkpt lat="44.13515" lon="0.63211">
        <ele>160</ele>
        <time>2014-08-24T07:52:32Z</time>
      </trkpt>
      <trkpt lat="44.1351" lon="0.63213">
        <ele>160</ele>
        <time>2014-08-24T07:52:34Z</time>
      </trkpt>
      <trkpt lat="44.13505" lon="0.63217">
        <ele>161</ele>
        <time>2014-08-24T07:52:37Z</time>
      </trkpt>
      <trkpt lat="44.135" lon="0.6322">
        <ele>161</ele>
        <time>2014-08-24T07:52:40Z</time>
      </trkpt>
      <trkpt lat="44.13495" lon="0.63224">
        <ele>161</ele>
        <time>2014-08-24T07:52:44Z</time>
      </trkpt>
      <trkpt lat="44.1349" lon="0.63228">
        <ele>161</ele>
        <time>2014-08-24T07:52:47Z</time>
      </trkpt>
      <trkpt lat="44.13486" lon="0.63232">
        <ele>161</ele>
        <time>2014-08-24T07:52:49Z</time>
      </trkpt>
      <trkpt lat="44.13482" lon="0.63235">
        <ele>162</ele>
        <time>2014-08-24T07:52:51Z</time>
      </trkpt>
      <trkpt lat="44.13479" lon="0.63241">
        <ele>162</ele>
        <time>2014-08-24T07:52:53Z</time>
      </trkpt>
      <trkpt lat="44.13475" lon="0.63245">
        <ele>162</ele>
        <time>2014-08-24T07:52:55Z</time>
      </trkpt>
      <trkpt lat="44.13472" lon="0.6325">
        <ele>162</ele>
        <time>2014-08-24T07:52:57Z</time>
      </trkpt>
      <trkpt lat="44.13467" lon="0.63255">
        <ele>162</ele>
        <time>2014-08-24T07:53:00Z</time>
      </trkpt>
      <trkpt lat="44.13463" lon="0.63259">
        <ele>163</ele>
        <time>2014-08-24T07:53:02Z</time>
      </trkpt>
      <trkpt lat="44.13459" lon="0.63264">
        <ele>163</ele>
        <time>2014-08-24T07:53:05Z</time>
      </trkpt>
      <trkpt lat="44.13455" lon="0.63269">
        <ele>163</ele>
        <time>2014-08-24T07:53:07Z</time>
      </trkpt>
      <trkpt lat="44.13451" lon="0.63275">
        <ele>163</ele>
        <time>2014-08-24T07:53:10Z</time>
      </trkpt>
      <trkpt lat="44.13446" lon="0.63282">
        <ele>163</ele>
        <time>2014-08-24T07:53:13Z</time>
      </trkpt>
      <trkpt lat="44.13443" lon="0.63285">
        <ele>163</ele>
        <time>2014-08-24T07:53:24Z</time>
      </trkpt>
      <trkpt lat="44.13442" lon="0.63285">
        <ele>164</ele>
        <time>2014-08-24T07:53:25Z</time>
      </trkpt>
      <trkpt lat="44.13437" lon="0.6329">
        <ele>164</ele>
        <time>2014-08-24T07:53:36Z</time>
      </trkpt>
      <trkpt lat="44.13435" lon="0.63295">
        <ele>164</ele>
        <time>2014-08-24T07:53:39Z</time>
      </trkpt>
      <trkpt lat="44.13431" lon="0.63302">
        <ele>164</ele>
        <time>2014-08-24T07:53:42Z</time>
      </trkpt>
      <trkpt lat="44.13428" lon="0.63308">
        <ele>164</ele>
        <time>2014-08-24T07:53:44Z</time>
      </trkpt>
      <trkpt lat="44.13423" lon="0.63315">
        <ele>164</ele>
        <time>2014-08-24T07:53:46Z</time>
      </trkpt>
      <trkpt lat="44.13419" lon="0.63321">
        <ele>164</ele>
        <time>2014-08-24T07:53:48Z</time>
      </trkpt>
      <trkpt lat="44.13415" lon="0.63327">
        <ele>164</ele>
        <time>2014-08-24T07:53:50Z</time>
      </trkpt>
      <trkpt lat="44.13411" lon="0.63332">
        <ele>164</ele>
        <time>2014-08-24T07:53:52Z</time>
      </trkpt>
      <trkpt lat="44.13408" lon="0.63339">
        <ele>164</ele>
        <time>2014-08-24T07:53:55Z</time>
      </trkpt>
      <trkpt lat="44.13405" lon="0.63344">
        <ele>163</ele>
        <time>2014-08-24T07:53:59Z</time>
      </trkpt>
      <trkpt lat="44.13402" lon="0.63349">
        <ele>163</ele>
        <time>2014-08-24T07:54:03Z</time>
      </trkpt>
      <trkpt lat="44.13403" lon="0.6335">
        <ele>162</ele>
        <time>2014-08-24T07:54:24Z</time>
      </trkpt>
      <trkpt lat="44.134" lon="0.63349">
        <ele>162</ele>
        <time>2014-08-24T07:54:39Z</time>
      </trkpt>
      <trkpt lat="44.13399" lon="0.63345">
        <ele>162</ele>
        <time>2014-08-24T07:54:48Z</time>
      </trkpt>
      <trkpt lat="44.13398" lon="0.63345">
        <ele>162</ele>
        <time>2014-08-24T07:55:09Z</time>
      </trkpt>
      <trkpt lat="44.13393" lon="0.63348">
        <ele>162</ele>
        <time>2014-08-24T07:55:20Z</time>
      </trkpt>
      <trkpt lat="44.13389" lon="0.63355">
        <ele>162</ele>
        <time>2014-08-24T07:55:23Z</time>
      </trkpt>
      <trkpt lat="44.13386" lon="0.6336">
        <ele>162</ele>
        <time>2014-08-24T07:55:26Z</time>
      </trkpt>
      <trkpt lat="44.13384" lon="0.63365">
        <ele>162</ele>
        <time>2014-08-24T07:55:28Z</time>
      </trkpt>
      <trkpt lat="44.1338" lon="0.6337">
        <ele>162</ele>
        <time>2014-08-24T07:55:30Z</time>
      </trkpt>
      <trkpt lat="44.13377" lon="0.63375">
        <ele>162</ele>
        <time>2014-08-24T07:55:32Z</time>
      </trkpt>
      <trkpt lat="44.13373" lon="0.6338">
        <ele>162</ele>
        <time>2014-08-24T07:55:34Z</time>
      </trkpt>
      <trkpt lat="44.1337" lon="0.63384">
        <ele>162</ele>
        <time>2014-08-24T07:55:36Z</time>
      </trkpt>
      <trkpt lat="44.13364" lon="0.63389">
        <ele>161</ele>
        <time>2014-08-24T07:55:39Z</time>
      </trkpt>
      <trkpt lat="44.13359" lon="0.63394">
        <ele>161</ele>
        <time>2014-08-24T07:55:42Z</time>
      </trkpt>
      <trkpt lat="44.13355" lon="0.63398">
        <ele>161</ele>
        <time>2014-08-24T07:55:44Z</time>
      </trkpt>
      <trkpt lat="44.1335" lon="0.63403">
        <ele>161</ele>
        <time>2014-08-24T07:55:46Z</time>
      </trkpt>
      <trkpt lat="44.13346" lon="0.63407">
        <ele>161</ele>
        <time>2014-08-24T07:55:48Z</time>
      </trkpt>
      <trkpt lat="44.13343" lon="0.63412">
        <ele>161</ele>
        <time>2014-08-24T07:55:50Z</time>
      </trkpt>
      <trkpt lat="44.13339" lon="0.63416">
        <ele>161</ele>
        <time>2014-08-24T07:55:52Z</time>
      </trkpt>
      <trkpt lat="44.13335" lon="0.63421">
        <ele>161</ele>
        <time>2014-08-24T07:55:54Z</time>
      </trkpt>
      <trkpt lat="44.13331" lon="0.63425">
        <ele>161</ele>
        <time>2014-08-24T07:55:56Z</time>
      </trkpt>
      <trkpt lat="44.13327" lon="0.63429">
        <ele>162</ele>
        <time>2014-08-24T07:55:58Z</time>
      </trkpt>
      <trkpt lat="44.13324" lon="0.63433">
        <ele>162</ele>
        <time>2014-08-24T07:56:00Z</time>
      </trkpt>
      <trkpt lat="44.1332" lon="0.63438">
        <ele>161</ele>
        <time>2014-08-24T07:56:02Z</time>
      </trkpt>
      <trkpt lat="44.13316" lon="0.63443">
        <ele>161</ele>
        <time>2014-08-24T07:56:04Z</time>
      </trkpt>
      <trkpt lat="44.13313" lon="0.63447">
        <ele>161</ele>
        <time>2014-08-24T07:56:06Z</time>
      </trkpt>
      <trkpt lat="44.1331" lon="0.63452">
        <ele>161</ele>
        <time>2014-08-24T07:56:08Z</time>
      </trkpt>
      <trkpt lat="44.13307" lon="0.63458">
        <ele>161</ele>
        <time>2014-08-24T07:56:10Z</time>
      </trkpt>
      <trkpt lat="44.13304" lon="0.63463">
        <ele>161</ele>
        <time>2014-08-24T07:56:12Z</time>
      </trkpt>
      <trkpt lat="44.13301" lon="0.63469">
        <ele>161</ele>
        <time>2014-08-24T07:56:14Z</time>
      </trkpt>
      <trkpt lat="44.13298" lon="0.63476">
        <ele>161</ele>
        <time>2014-08-24T07:56:16Z</time>
      </trkpt>
      <trkpt lat="44.13296" lon="0.63481">
        <ele>161</ele>
        <time>2014-08-24T07:56:18Z</time>
      </trkpt>
      <trkpt lat="44.13294" lon="0.6349">
        <ele>161</ele>
        <time>2014-08-24T07:56:21Z</time>
      </trkpt>
      <trkpt lat="44.13292" lon="0.63496">
        <ele>161</ele>
        <time>2014-08-24T07:56:23Z</time>
      </trkpt>
      <trkpt lat="44.13288" lon="0.63503">
        <ele>161</ele>
        <time>2014-08-24T07:56:26Z</time>
      </trkpt>
      <trkpt lat="44.13285" lon="0.63509">
        <ele>161</ele>
        <time>2014-08-24T07:56:28Z</time>
      </trkpt>
      <trkpt lat="44.13282" lon="0.63514">
        <ele>161</ele>
        <time>2014-08-24T07:56:30Z</time>
      </trkpt>
      <trkpt lat="44.1328" lon="0.6352">
        <ele>161</ele>
        <time>2014-08-24T07:56:32Z</time>
      </trkpt>
      <trkpt lat="44.13277" lon="0.63526">
        <ele>161</ele>
        <time>2014-08-24T07:56:34Z</time>
      </trkpt>
      <trkpt lat="44.13275" lon="0.63531">
        <ele>161</ele>
        <time>2014-08-24T07:56:36Z</time>
      </trkpt>
      <trkpt lat="44.13272" lon="0.63538">
        <ele>161</ele>
        <time>2014-08-24T07:56:39Z</time>
      </trkpt>
      <trkpt lat="44.13268" lon="0.63545">
        <ele>161</ele>
        <time>2014-08-24T07:56:42Z</time>
      </trkpt>
      <trkpt lat="44.13264" lon="0.63551">
        <ele>161</ele>
        <time>2014-08-24T07:56:45Z</time>
      </trkpt>
      <trkpt lat="44.13261" lon="0.63555">
        <ele>161</ele>
        <time>2014-08-24T07:56:47Z</time>
      </trkpt>
      <trkpt lat="44.13257" lon="0.6356">
        <ele>161</ele>
        <time>2014-08-24T07:56:49Z</time>
      </trkpt>
      <trkpt lat="44.13252" lon="0.63566">
        <ele>161</ele>
        <time>2014-08-24T07:56:52Z</time>
      </trkpt>
      <trkpt lat="44.13248" lon="0.63571">
        <ele>161</ele>
        <time>2014-08-24T07:56:54Z</time>
      </trkpt>
      <trkpt lat="44.13244" lon="0.63576">
        <ele>161</ele>
        <time>2014-08-24T07:56:56Z</time>
      </trkpt>
      <trkpt lat="44.1324" lon="0.63581">
        <ele>161</ele>
        <time>2014-08-24T07:56:58Z</time>
      </trkpt>
      <trkpt lat="44.13237" lon="0.63586">
        <ele>161</ele>
        <time>2014-08-24T07:57:00Z</time>
      </trkpt>
      <trkpt lat="44.13233" lon="0.63591">
        <ele>160</ele>
        <time>2014-08-24T07:57:02Z</time>
      </trkpt>
      <trkpt lat="44.13229" lon="0.63595">
        <ele>160</ele>
        <time>2014-08-24T07:57:04Z</time>
      </trkpt>
      <trkpt lat="44.13226" lon="0.63599">
        <ele>160</ele>
        <time>2014-08-24T07:57:06Z</time>
      </trkpt>
      <trkpt lat="44.13222" lon="0.63603">
        <ele>160</ele>
        <time>2014-08-24T07:57:08Z</time>
      </trkpt>
      <trkpt lat="44.13218" lon="0.63607">
        <ele>161</ele>
        <time>2014-08-24T07:57:10Z</time>
      </trkpt>
      <trkpt lat="44.13214" lon="0.6361">
        <ele>161</ele>
        <time>2014-08-24T07:57:12Z</time>
      </trkpt>
      <trkpt lat="44.13211" lon="0.63614">
        <ele>161</ele>
        <time>2014-08-24T07:57:14Z</time>
      </trkpt>
      <trkpt lat="44.13207" lon="0.63618">
        <ele>161</ele>
        <time>2014-08-24T07:57:16Z</time>
      </trkpt>
      <trkpt lat="44.13203" lon="0.63623">
        <ele>161</ele>
        <time>2014-08-24T07:57:18Z</time>
      </trkpt>
      <trkpt lat="44.13199" lon="0.63628">
        <ele>161</ele>
        <time>2014-08-24T07:57:20Z</time>
      </trkpt>
      <trkpt lat="44.13195" lon="0.63634">
        <ele>161</ele>
        <time>2014-08-24T07:57:22Z</time>
      </trkpt>
      <trkpt lat="44.13192" lon="0.63639">
        <ele>161</ele>
        <time>2014-08-24T07:57:24Z</time>
      </trkpt>
      <trkpt lat="44.13187" lon="0.63644">
        <ele>161</ele>
        <time>2014-08-24T07:57:27Z</time>
      </trkpt>
      <trkpt lat="44.13182" lon="0.63648">
        <ele>161</ele>
        <time>2014-08-24T07:57:29Z</time>
      </trkpt>
      <trkpt lat="44.13178" lon="0.63653">
        <ele>161</ele>
        <time>2014-08-24T07:57:31Z</time>
      </trkpt>
      <trkpt lat="44.13174" lon="0.63658">
        <ele>161</ele>
        <time>2014-08-24T07:57:33Z</time>
      </trkpt>
      <trkpt lat="44.1317" lon="0.63664">
        <ele>161</ele>
        <time>2014-08-24T07:57:35Z</time>
      </trkpt>
      <trkpt lat="44.13167" lon="0.63669">
        <ele>161</ele>
        <time>2014-08-24T07:57:37Z</time>
      </trkpt>
      <trkpt lat="44.13163" lon="0.63673">
        <ele>161</ele>
        <time>2014-08-24T07:57:39Z</time>
      </trkpt>
      <trkpt lat="44.13159" lon="0.63678">
        <ele>161</ele>
        <time>2014-08-24T07:57:41Z</time>
      </trkpt>
      <trkpt lat="44.13155" lon="0.63682">
        <ele>161</ele>
        <time>2014-08-24T07:57:43Z</time>
      </trkpt>
      <trkpt lat="44.13151" lon="0.63685">
        <ele>160</ele>
        <time>2014-08-24T07:57:45Z</time>
      </trkpt>
      <trkpt lat="44.13145" lon="0.6369">
        <ele>160</ele>
        <time>2014-08-24T07:57:48Z</time>
      </trkpt>
      <trkpt lat="44.13142" lon="0.63693">
        <ele>160</ele>
        <time>2014-08-24T07:57:50Z</time>
      </trkpt>
      <trkpt lat="44.13136" lon="0.63697">
        <ele>160</ele>
        <time>2014-08-24T07:57:53Z</time>
      </trkpt>
      <trkpt lat="44.13129" lon="0.63697">
        <ele>160</ele>
        <time>2014-08-24T07:57:55Z</time>
      </trkpt>
      <trkpt lat="44.13124" lon="0.63697">
        <ele>159</ele>
        <time>2014-08-24T07:57:57Z</time>
      </trkpt>
      <trkpt lat="44.13119" lon="0.63697">
        <ele>159</ele>
        <time>2014-08-24T07:57:59Z</time>
      </trkpt>
      <trkpt lat="44.13114" lon="0.63696">
        <ele>159</ele>
        <time>2014-08-24T07:58:01Z</time>
      </trkpt>
      <trkpt lat="44.13108" lon="0.63694">
        <ele>158</ele>
        <time>2014-08-24T07:58:04Z</time>
      </trkpt>
      <trkpt lat="44.13101" lon="0.63691">
        <ele>158</ele>
        <time>2014-08-24T07:58:07Z</time>
      </trkpt>
      <trkpt lat="44.13097" lon="0.63689">
        <ele>158</ele>
        <time>2014-08-24T07:58:09Z</time>
      </trkpt>
      <trkpt lat="44.13092" lon="0.63686">
        <ele>158</ele>
        <time>2014-08-24T07:58:11Z</time>
      </trkpt>
      <trkpt lat="44.13088" lon="0.63683">
        <ele>157</ele>
        <time>2014-08-24T07:58:13Z</time>
      </trkpt>
      <trkpt lat="44.13083" lon="0.63679">
        <ele>157</ele>
        <time>2014-08-24T07:58:15Z</time>
      </trkpt>
      <trkpt lat="44.13079" lon="0.63676">
        <ele>157</ele>
        <time>2014-08-24T07:58:17Z</time>
      </trkpt>
      <trkpt lat="44.13075" lon="0.63672">
        <ele>156</ele>
        <time>2014-08-24T07:58:19Z</time>
      </trkpt>
      <trkpt lat="44.1307" lon="0.63669">
        <ele>156</ele>
        <time>2014-08-24T07:58:22Z</time>
      </trkpt>
      <trkpt lat="44.13065" lon="0.63665">
        <ele>156</ele>
        <time>2014-08-24T07:58:24Z</time>
      </trkpt>
      <trkpt lat="44.1306" lon="0.6366">
        <ele>156</ele>
        <time>2014-08-24T07:58:26Z</time>
      </trkpt>
      <trkpt lat="44.13055" lon="0.63657">
        <ele>156</ele>
        <time>2014-08-24T07:58:28Z</time>
      </trkpt>
      <trkpt lat="44.1305" lon="0.63653">
        <ele>156</ele>
        <time>2014-08-24T07:58:31Z</time>
      </trkpt>
      <trkpt lat="44.13046" lon="0.63649">
        <ele>155</ele>
        <time>2014-08-24T07:58:33Z</time>
      </trkpt>
      <trkpt lat="44.13041" lon="0.63646">
        <ele>155</ele>
        <time>2014-08-24T07:58:35Z</time>
      </trkpt>
      <trkpt lat="44.13037" lon="0.63643">
        <ele>155</ele>
        <time>2014-08-24T07:58:37Z</time>
      </trkpt>
      <trkpt lat="44.13033" lon="0.63639">
        <ele>155</ele>
        <time>2014-08-24T07:58:39Z</time>
      </trkpt>
      <trkpt lat="44.13029" lon="0.63635">
        <ele>155</ele>
        <time>2014-08-24T07:58:41Z</time>
      </trkpt>
      <trkpt lat="44.13023" lon="0.6363">
        <ele>154</ele>
        <time>2014-08-24T07:58:44Z</time>
      </trkpt>
      <trkpt lat="44.13018" lon="0.63625">
        <ele>154</ele>
        <time>2014-08-24T07:58:47Z</time>
      </trkpt>
      <trkpt lat="44.13013" lon="0.6362">
        <ele>154</ele>
        <time>2014-08-24T07:58:50Z</time>
      </trkpt>
      <trkpt lat="44.13008" lon="0.63616">
        <ele>154</ele>
        <time>2014-08-24T07:58:53Z</time>
      </trkpt>
      <trkpt lat="44.13003" lon="0.63611">
        <ele>154</ele>
        <time>2014-08-24T07:58:56Z</time>
      </trkpt>
      <trkpt lat="44.12999" lon="0.63608">
        <ele>154</ele>
        <time>2014-08-24T07:58:58Z</time>
      </trkpt>
      <trkpt lat="44.12995" lon="0.63605">
        <ele>154</ele>
        <time>2014-08-24T07:59:00Z</time>
      </trkpt>
      <trkpt lat="44.1299" lon="0.63602">
        <ele>154</ele>
        <time>2014-08-24T07:59:02Z</time>
      </trkpt>
      <trkpt lat="44.12985" lon="0.63598">
        <ele>154</ele>
        <time>2014-08-24T07:59:05Z</time>
      </trkpt>
      <trkpt lat="44.1298" lon="0.63595">
        <ele>154</ele>
        <time>2014-08-24T07:59:08Z</time>
      </trkpt>
      <trkpt lat="44.12974" lon="0.63591">
        <ele>154</ele>
        <time>2014-08-24T07:59:11Z</time>
      </trkpt>
      <trkpt lat="44.12968" lon="0.63589">
        <ele>154</ele>
        <time>2014-08-24T07:59:14Z</time>
      </trkpt>
      <trkpt lat="44.12963" lon="0.63587">
        <ele>154</ele>
        <time>2014-08-24T07:59:17Z</time>
      </trkpt>
      <trkpt lat="44.12959" lon="0.63585">
        <ele>154</ele>
        <time>2014-08-24T07:59:20Z</time>
      </trkpt>
      <trkpt lat="44.12953" lon="0.63582">
        <ele>155</ele>
        <time>2014-08-24T07:59:24Z</time>
      </trkpt>
      <trkpt lat="44.12948" lon="0.6358">
        <ele>155</ele>
        <time>2014-08-24T07:59:27Z</time>
      </trkpt>
      <trkpt lat="44.12943" lon="0.63577">
        <ele>155</ele>
        <time>2014-08-24T07:59:30Z</time>
      </trkpt>
      <trkpt lat="44.12937" lon="0.63575">
        <ele>155</ele>
        <time>2014-08-24T07:59:33Z</time>
      </trkpt>
      <trkpt lat="44.12931" lon="0.63571">
        <ele>156</ele>
        <time>2014-08-24T07:59:36Z</time>
      </trkpt>
      <trkpt lat="44.12926" lon="0.63569">
        <ele>156</ele>
        <time>2014-08-24T07:59:39Z</time>
      </trkpt>
      <trkpt lat="44.1292" lon="0.63566">
        <ele>156</ele>
        <time>2014-08-24T07:59:42Z</time>
      </trkpt>
      <trkpt lat="44.12914" lon="0.63564">
        <ele>156</ele>
        <time>2014-08-24T07:59:45Z</time>
      </trkpt>
      <trkpt lat="44.12908" lon="0.63561">
        <ele>156</ele>
        <time>2014-08-24T07:59:48Z</time>
      </trkpt>
      <trkpt lat="44.12903" lon="0.63558">
        <ele>156</ele>
        <time>2014-08-24T07:59:51Z</time>
      </trkpt>
      <trkpt lat="44.12896" lon="0.63557">
        <ele>156</ele>
        <time>2014-08-24T07:59:54Z</time>
      </trkpt>
      <trkpt lat="44.1289" lon="0.63555">
        <ele>156</ele>
        <time>2014-08-24T07:59:57Z</time>
      </trkpt>
      <trkpt lat="44.12883" lon="0.63553">
        <ele>157</ele>
        <time>2014-08-24T08:00:00Z</time>
      </trkpt>
      <trkpt lat="44.12878" lon="0.63552">
        <ele>157</ele>
        <time>2014-08-24T08:00:02Z</time>
      </trkpt>
      <trkpt lat="44.12872" lon="0.63549">
        <ele>157</ele>
        <time>2014-08-24T08:00:05Z</time>
      </trkpt>
      <trkpt lat="44.12866" lon="0.63549">
        <ele>157</ele>
        <time>2014-08-24T08:00:08Z</time>
      </trkpt>
      <trkpt lat="44.12861" lon="0.63548">
        <ele>157</ele>
        <time>2014-08-24T08:00:10Z</time>
      </trkpt>
      <trkpt lat="44.12855" lon="0.63548">
        <ele>157</ele>
        <time>2014-08-24T08:00:13Z</time>
      </trkpt>
      <trkpt lat="44.12849" lon="0.63549">
        <ele>157</ele>
        <time>2014-08-24T08:00:16Z</time>
      </trkpt>
      <trkpt lat="44.12844" lon="0.63549">
        <ele>157</ele>
        <time>2014-08-24T08:00:19Z</time>
      </trkpt>
      <trkpt lat="44.12839" lon="0.6355">
        <ele>157</ele>
        <time>2014-08-24T08:00:22Z</time>
      </trkpt>
      <trkpt lat="44.12834" lon="0.63548">
        <ele>157</ele>
        <time>2014-08-24T08:00:25Z</time>
      </trkpt>
      <trkpt lat="44.12829" lon="0.63548">
        <ele>157</ele>
        <time>2014-08-24T08:00:28Z</time>
      </trkpt>
      <trkpt lat="44.12823" lon="0.63548">
        <ele>156</ele>
        <time>2014-08-24T08:00:31Z</time>
      </trkpt>
      <trkpt lat="44.12818" lon="0.63549">
        <ele>156</ele>
        <time>2014-08-24T08:00:33Z</time>
      </trkpt>
      <trkpt lat="44.12813" lon="0.63549">
        <ele>156</ele>
        <time>2014-08-24T08:00:35Z</time>
      </trkpt>
      <trkpt lat="44.12808" lon="0.63548">
        <ele>156</ele>
        <time>2014-08-24T08:00:37Z</time>
      </trkpt>
      <trkpt lat="44.12803" lon="0.63548">
        <ele>156</ele>
        <time>2014-08-24T08:00:39Z</time>
      </trkpt>
      <trkpt lat="44.12796" lon="0.63546">
        <ele>156</ele>
        <time>2014-08-24T08:00:42Z</time>
      </trkpt>
      <trkpt lat="44.1279" lon="0.63545">
        <ele>156</ele>
        <time>2014-08-24T08:00:45Z</time>
      </trkpt>
      <trkpt lat="44.12785" lon="0.63544">
        <ele>156</ele>
        <time>2014-08-24T08:00:47Z</time>
      </trkpt>
      <trkpt lat="44.1278" lon="0.63545">
        <ele>156</ele>
        <time>2014-08-24T08:00:50Z</time>
      </trkpt>
      <trkpt lat="44.12775" lon="0.6355">
        <ele>156</ele>
        <time>2014-08-24T08:00:55Z</time>
      </trkpt>
      <trkpt lat="44.12774" lon="0.63556">
        <ele>157</ele>
        <time>2014-08-24T08:00:59Z</time>
      </trkpt>
      <trkpt lat="44.12772" lon="0.63562">
        <ele>157</ele>
        <time>2014-08-24T08:01:03Z</time>
      </trkpt>
      <trkpt lat="44.1277" lon="0.63569">
        <ele>158</ele>
        <time>2014-08-24T08:01:08Z</time>
      </trkpt>
      <trkpt lat="44.12769" lon="0.63576">
        <ele>159</ele>
        <time>2014-08-24T08:01:13Z</time>
      </trkpt>
      <trkpt lat="44.12768" lon="0.63584">
        <ele>159</ele>
        <time>2014-08-24T08:01:18Z</time>
      </trkpt>
      <trkpt lat="44.12768" lon="0.6359">
        <ele>159</ele>
        <time>2014-08-24T08:01:27Z</time>
      </trkpt>
      <trkpt lat="44.12771" lon="0.63596">
        <ele>159</ele>
        <time>2014-08-24T08:01:34Z</time>
      </trkpt>
      <trkpt lat="44.1277" lon="0.63603">
        <ele>159</ele>
        <time>2014-08-24T08:01:39Z</time>
      </trkpt>
      <trkpt lat="44.12769" lon="0.6361">
        <ele>159</ele>
        <time>2014-08-24T08:01:43Z</time>
      </trkpt>
      <trkpt lat="44.12769" lon="0.63617">
        <ele>159</ele>
        <time>2014-08-24T08:01:48Z</time>
      </trkpt>
      <trkpt lat="44.12767" lon="0.63623">
        <ele>160</ele>
        <time>2014-08-24T08:01:53Z</time>
      </trkpt>
      <trkpt lat="44.12767" lon="0.63629">
        <ele>160</ele>
        <time>2014-08-24T08:01:56Z</time>
      </trkpt>
      <trkpt lat="44.12766" lon="0.63639">
        <ele>160</ele>
        <time>2014-08-24T08:01:59Z</time>
      </trkpt>
      <trkpt lat="44.12767" lon="0.63646">
        <ele>160</ele>
        <time>2014-08-24T08:02:01Z</time>
      </trkpt>
      <trkpt lat="44.12766" lon="0.63653">
        <ele>160</ele>
        <time>2014-08-24T08:02:03Z</time>
      </trkpt>
      <trkpt lat="44.12766" lon="0.63661">
        <ele>160</ele>
        <time>2014-08-24T08:02:05Z</time>
      </trkpt>
      <trkpt lat="44.12766" lon="0.63668">
        <ele>160</ele>
        <time>2014-08-24T08:02:07Z</time>
      </trkpt>
      <trkpt lat="44.12765" lon="0.63677">
        <ele>161</ele>
        <time>2014-08-24T08:02:10Z</time>
      </trkpt>
      <trkpt lat="44.12766" lon="0.63685">
        <ele>161</ele>
        <time>2014-08-24T08:02:13Z</time>
      </trkpt>
      <trkpt lat="44.12767" lon="0.63692">
        <ele>161</ele>
        <time>2014-08-24T08:02:15Z</time>
      </trkpt>
      <trkpt lat="44.12766" lon="0.63698">
        <ele>162</ele>
        <time>2014-08-24T08:02:17Z</time>
      </trkpt>
      <trkpt lat="44.12764" lon="0.63706">
        <ele>162</ele>
        <time>2014-08-24T08:02:19Z</time>
      </trkpt>
      <trkpt lat="44.12763" lon="0.63716">
        <ele>162</ele>
        <time>2014-08-24T08:02:22Z</time>
      </trkpt>
      <trkpt lat="44.12761" lon="0.63725">
        <ele>162</ele>
        <time>2014-08-24T08:02:25Z</time>
      </trkpt>
      <trkpt lat="44.12761" lon="0.63733">
        <ele>162</ele>
        <time>2014-08-24T08:02:28Z</time>
      </trkpt>
      <trkpt lat="44.12761" lon="0.63742">
        <ele>162</ele>
        <time>2014-08-24T08:02:31Z</time>
      </trkpt>
      <trkpt lat="44.12761" lon="0.63749">
        <ele>162</ele>
        <time>2014-08-24T08:02:33Z</time>
      </trkpt>
      <trkpt lat="44.12762" lon="0.63756">
        <ele>162</ele>
        <time>2014-08-24T08:02:35Z</time>
      </trkpt>
      <trkpt lat="44.12763" lon="0.63765">
        <ele>162</ele>
        <time>2014-08-24T08:02:37Z</time>
      </trkpt>
      <trkpt lat="44.12764" lon="0.63773">
        <ele>163</ele>
        <time>2014-08-24T08:02:39Z</time>
      </trkpt>
      <trkpt lat="44.12765" lon="0.6378">
        <ele>163</ele>
        <time>2014-08-24T08:02:41Z</time>
      </trkpt>
      <trkpt lat="44.12766" lon="0.63786">
        <ele>163</ele>
        <time>2014-08-24T08:02:43Z</time>
      </trkpt>
      <trkpt lat="44.12766" lon="0.63795">
        <ele>163</ele>
        <time>2014-08-24T08:02:46Z</time>
      </trkpt>
      <trkpt lat="44.12767" lon="0.63802">
        <ele>163</ele>
        <time>2014-08-24T08:02:48Z</time>
      </trkpt>
      <trkpt lat="44.12769" lon="0.63809">
        <ele>163</ele>
        <time>2014-08-24T08:02:51Z</time>
      </trkpt>
      <trkpt lat="44.12769" lon="0.63816">
        <ele>163</ele>
        <time>2014-08-24T08:02:55Z</time>
      </trkpt>
      <trkpt lat="44.12772" lon="0.63822">
        <ele>163</ele>
        <time>2014-08-24T08:03:05Z</time>
      </trkpt>
      <trkpt lat="44.12774" lon="0.63823">
        <ele>162</ele>
        <time>2014-08-24T08:03:24Z</time>
      </trkpt>
      <trkpt lat="44.12776" lon="0.63821">
        <ele>161</ele>
        <time>2014-08-24T08:03:39Z</time>
      </trkpt>
      <trkpt lat="44.12777" lon="0.63823">
        <ele>161</ele>
        <time>2014-08-24T08:03:41Z</time>
      </trkpt>
      <trkpt lat="44.12779" lon="0.63829">
        <ele>159</ele>
        <time>2014-08-24T08:03:45Z</time>
      </trkpt>
      <trkpt lat="44.1278" lon="0.63837">
        <ele>158</ele>
        <time>2014-08-24T08:03:49Z</time>
      </trkpt>
      <trkpt lat="44.12783" lon="0.63844">
        <ele>157</ele>
        <time>2014-08-24T08:03:52Z</time>
      </trkpt>
      <trkpt lat="44.12786" lon="0.63852">
        <ele>157</ele>
        <time>2014-08-24T08:03:55Z</time>
      </trkpt>
      <trkpt lat="44.12788" lon="0.6386">
        <ele>156</ele>
        <time>2014-08-24T08:03:58Z</time>
      </trkpt>
      <trkpt lat="44.1279" lon="0.63868">
        <ele>156</ele>
        <time>2014-08-24T08:04:01Z</time>
      </trkpt>
      <trkpt lat="44.12792" lon="0.63876">
        <ele>156</ele>
        <time>2014-08-24T08:04:03Z</time>
      </trkpt>
      <trkpt lat="44.12795" lon="0.63884">
        <ele>156</ele>
        <time>2014-08-24T08:04:05Z</time>
      </trkpt>
      <trkpt lat="44.12797" lon="0.6389">
        <ele>155</ele>
        <time>2014-08-24T08:04:07Z</time>
      </trkpt>
      <trkpt lat="44.12799" lon="0.63896">
        <ele>155</ele>
        <time>2014-08-24T08:04:09Z</time>
      </trkpt>
      <trkpt lat="44.12801" lon="0.63904">
        <ele>155</ele>
        <time>2014-08-24T08:04:11Z</time>
      </trkpt>
      <trkpt lat="44.12803" lon="0.6391">
        <ele>155</ele>
        <time>2014-08-24T08:04:13Z</time>
      </trkpt>
      <trkpt lat="44.12805" lon="0.63917">
        <ele>155</ele>
        <time>2014-08-24T08:04:15Z</time>
      </trkpt>
      <trkpt lat="44.12807" lon="0.63923">
        <ele>155</ele>
        <time>2014-08-24T08:04:17Z</time>
      </trkpt>
      <trkpt lat="44.1281" lon="0.63932">
        <ele>155</ele>
        <time>2014-08-24T08:04:20Z</time>
      </trkpt>
      <trkpt lat="44.12812" lon="0.63938">
        <ele>155</ele>
        <time>2014-08-24T08:04:22Z</time>
      </trkpt>
      <trkpt lat="44.12814" lon="0.63943">
        <ele>155</ele>
        <time>2014-08-24T08:04:24Z</time>
      </trkpt>
      <trkpt lat="44.12817" lon="0.63949">
        <ele>155</ele>
        <time>2014-08-24T08:04:26Z</time>
      </trkpt>
      <trkpt lat="44.12818" lon="0.63955">
        <ele>155</ele>
        <time>2014-08-24T08:04:28Z</time>
      </trkpt>
      <trkpt lat="44.12822" lon="0.63962">
        <ele>155</ele>
        <time>2014-08-24T08:04:31Z</time>
      </trkpt>
      <trkpt lat="44.12824" lon="0.63968">
        <ele>155</ele>
        <time>2014-08-24T08:04:33Z</time>
      </trkpt>
      <trkpt lat="44.12826" lon="0.63973">
        <ele>155</ele>
        <time>2014-08-24T08:04:35Z</time>
      </trkpt>
      <trkpt lat="44.1283" lon="0.63981">
        <ele>155</ele>
        <time>2014-08-24T08:04:38Z</time>
      </trkpt>
      <trkpt lat="44.12832" lon="0.63986">
        <ele>155</ele>
        <time>2014-08-24T08:04:40Z</time>
      </trkpt>
      <trkpt lat="44.12835" lon="0.63994">
        <ele>155</ele>
        <time>2014-08-24T08:04:43Z</time>
      </trkpt>
      <trkpt lat="44.12839" lon="0.64">
        <ele>155</ele>
        <time>2014-08-24T08:04:47Z</time>
      </trkpt>
      <trkpt lat="44.12842" lon="0.64007">
        <ele>155</ele>
        <time>2014-08-24T08:04:50Z</time>
      </trkpt>
      <trkpt lat="44.12845" lon="0.64014">
        <ele>155</ele>
        <time>2014-08-24T08:04:53Z</time>
      </trkpt>
      <trkpt lat="44.12848" lon="0.64019">
        <ele>155</ele>
        <time>2014-08-24T08:04:55Z</time>
      </trkpt>
      <trkpt lat="44.12852" lon="0.64026">
        <ele>155</ele>
        <time>2014-08-24T08:04:58Z</time>
      </trkpt>
      <trkpt lat="44.12854" lon="0.64031">
        <ele>155</ele>
        <time>2014-08-24T08:05:00Z</time>
      </trkpt>
      <trkpt lat="44.12857" lon="0.6404">
        <ele>155</ele>
        <time>2014-08-24T08:05:03Z</time>
      </trkpt>
      <trkpt lat="44.12859" lon="0.64047">
        <ele>155</ele>
        <time>2014-08-24T08:05:05Z</time>
      </trkpt>
      <trkpt lat="44.12862" lon="0.64054">
        <ele>155</ele>
        <time>2014-08-24T08:05:07Z</time>
      </trkpt>
      <trkpt lat="44.12864" lon="0.6406">
        <ele>155</ele>
        <time>2014-08-24T08:05:09Z</time>
      </trkpt>
      <trkpt lat="44.12867" lon="0.64066">
        <ele>156</ele>
        <time>2014-08-24T08:05:11Z</time>
      </trkpt>
      <trkpt lat="44.12869" lon="0.64071">
        <ele>156</ele>
        <time>2014-08-24T08:05:13Z</time>
      </trkpt>
      <trkpt lat="44.12872" lon="0.64078">
        <ele>156</ele>
        <time>2014-08-24T08:05:15Z</time>
      </trkpt>
      <trkpt lat="44.12874" lon="0.64084">
        <ele>156</ele>
        <time>2014-08-24T08:05:17Z</time>
      </trkpt>
      <trkpt lat="44.12877" lon="0.6409">
        <ele>156</ele>
        <time>2014-08-24T08:05:19Z</time>
      </trkpt>
      <trkpt lat="44.12879" lon="0.64096">
        <ele>156</ele>
        <time>2014-08-24T08:05:21Z</time>
      </trkpt>
      <trkpt lat="44.12882" lon="0.64102">
        <ele>156</ele>
        <time>2014-08-24T08:05:23Z</time>
      </trkpt>
      <trkpt lat="44.12884" lon="0.64107">
        <ele>156</ele>
        <time>2014-08-24T08:05:25Z</time>
      </trkpt>
      <trkpt lat="44.12888" lon="0.64112">
        <ele>156</ele>
        <time>2014-08-24T08:05:28Z</time>
      </trkpt>
      <trkpt lat="44.12892" lon="0.64119">
        <ele>156</ele>
        <time>2014-08-24T08:05:31Z</time>
      </trkpt>
      <trkpt lat="44.12895" lon="0.64127">
        <ele>157</ele>
        <time>2014-08-24T08:05:34Z</time>
      </trkpt>
      <trkpt lat="44.12897" lon="0.64133">
        <ele>157</ele>
        <time>2014-08-24T08:05:36Z</time>
      </trkpt>
      <trkpt lat="44.129" lon="0.64138">
        <ele>156</ele>
        <time>2014-08-24T08:05:38Z</time>
      </trkpt>
      <trkpt lat="44.12903" lon="0.64144">
        <ele>156</ele>
        <time>2014-08-24T08:05:40Z</time>
      </trkpt>
      <trkpt lat="44.12907" lon="0.64151">
        <ele>156</ele>
        <time>2014-08-24T08:05:43Z</time>
      </trkpt>
      <trkpt lat="44.1291" lon="0.64156">
        <ele>156</ele>
        <time>2014-08-24T08:05:45Z</time>
      </trkpt>
      <trkpt lat="44.12914" lon="0.64162">
        <ele>156</ele>
        <time>2014-08-24T08:05:48Z</time>
      </trkpt>
      <trkpt lat="44.12917" lon="0.64168">
        <ele>156</ele>
        <time>2014-08-24T08:05:51Z</time>
      </trkpt>
      <trkpt lat="44.12922" lon="0.64175">
        <ele>156</ele>
        <time>2014-08-24T08:05:54Z</time>
      </trkpt>
      <trkpt lat="44.12925" lon="0.6418">
        <ele>156</ele>
        <time>2014-08-24T08:05:56Z</time>
      </trkpt>
      <trkpt lat="44.12927" lon="0.64185">
        <ele>156</ele>
        <time>2014-08-24T08:05:58Z</time>
      </trkpt>
      <trkpt lat="44.1293" lon="0.64191">
        <ele>156</ele>
        <time>2014-08-24T08:06:00Z</time>
      </trkpt>
      <trkpt lat="44.12933" lon="0.64196">
        <ele>156</ele>
        <time>2014-08-24T08:06:02Z</time>
      </trkpt>
      <trkpt lat="44.12936" lon="0.64202">
        <ele>156</ele>
        <time>2014-08-24T08:06:04Z</time>
      </trkpt>
      <trkpt lat="44.1294" lon="0.64207">
        <ele>157</ele>
        <time>2014-08-24T08:06:06Z</time>
      </trkpt>
      <trkpt lat="44.12943" lon="0.64212">
        <ele>157</ele>
        <time>2014-08-24T08:06:08Z</time>
      </trkpt>
      <trkpt lat="44.12946" lon="0.64217">
        <ele>156</ele>
        <time>2014-08-24T08:06:10Z</time>
      </trkpt>
      <trkpt lat="44.12949" lon="0.64223">
        <ele>156</ele>
        <time>2014-08-24T08:06:12Z</time>
      </trkpt>
      <trkpt lat="44.12952" lon="0.64228">
        <ele>156</ele>
        <time>2014-08-24T08:06:14Z</time>
      </trkpt>
      <trkpt lat="44.12956" lon="0.64232">
        <ele>156</ele>
        <time>2014-08-24T08:06:16Z</time>
      </trkpt>
      <trkpt lat="44.1296" lon="0.64239">
        <ele>156</ele>
        <time>2014-08-24T08:06:19Z</time>
      </trkpt>
      <trkpt lat="44.12964" lon="0.64244">
        <ele>156</ele>
        <time>2014-08-24T08:06:21Z</time>
      </trkpt>
      <trkpt lat="44.12968" lon="0.64248">
        <ele>156</ele>
        <time>2014-08-24T08:06:23Z</time>
      </trkpt>
      <trkpt lat="44.12972" lon="0.64255">
        <ele>156</ele>
        <time>2014-08-24T08:06:26Z</time>
      </trkpt>
      <trkpt lat="44.12976" lon="0.64261">
        <ele>156</ele>
        <time>2014-08-24T08:06:28Z</time>
      </trkpt>
      <trkpt lat="44.1298" lon="0.64267">
        <ele>156</ele>
        <time>2014-08-24T08:06:31Z</time>
      </trkpt>
      <trkpt lat="44.12983" lon="0.64272">
        <ele>156</ele>
        <time>2014-08-24T08:06:33Z</time>
      </trkpt>
      <trkpt lat="44.12986" lon="0.64278">
        <ele>156</ele>
        <time>2014-08-24T08:06:35Z</time>
      </trkpt>
      <trkpt lat="44.1299" lon="0.64285">
        <ele>156</ele>
        <time>2014-08-24T08:06:38Z</time>
      </trkpt>
      <trkpt lat="44.12993" lon="0.6429">
        <ele>155</ele>
        <time>2014-08-24T08:06:40Z</time>
      </trkpt>
      <trkpt lat="44.12997" lon="0.64295">
        <ele>155</ele>
        <time>2014-08-24T08:06:42Z</time>
      </trkpt>
      <trkpt lat="44.13001" lon="0.643">
        <ele>155</ele>
        <time>2014-08-24T08:06:44Z</time>
      </trkpt>
      <trkpt lat="44.13005" lon="0.64305">
        <ele>155</ele>
        <time>2014-08-24T08:06:46Z</time>
      </trkpt>
      <trkpt lat="44.13011" lon="0.6431">
        <ele>155</ele>
        <time>2014-08-24T08:06:49Z</time>
      </trkpt>
      <trkpt lat="44.13015" lon="0.64315">
        <ele>155</ele>
        <time>2014-08-24T08:06:51Z</time>
      </trkpt>
      <trkpt lat="44.13018" lon="0.64318">
        <ele>155</ele>
        <time>2014-08-24T08:06:53Z</time>
      </trkpt>
      <trkpt lat="44.13024" lon="0.64323">
        <ele>155</ele>
        <time>2014-08-24T08:06:56Z</time>
      </trkpt>
      <trkpt lat="44.13028" lon="0.64327">
        <ele>155</ele>
        <time>2014-08-24T08:06:58Z</time>
      </trkpt>
      <trkpt lat="44.13032" lon="0.64332">
        <ele>154</ele>
        <time>2014-08-24T08:07:00Z</time>
      </trkpt>
      <trkpt lat="44.13036" lon="0.64336">
        <ele>154</ele>
        <time>2014-08-24T08:07:02Z</time>
      </trkpt>
      <trkpt lat="44.1304" lon="0.64342">
        <ele>154</ele>
        <time>2014-08-24T08:07:05Z</time>
      </trkpt>
      <trkpt lat="44.13046" lon="0.64347">
        <ele>153</ele>
        <time>2014-08-24T08:07:08Z</time>
      </trkpt>
      <trkpt lat="44.1305" lon="0.64351">
        <ele>153</ele>
        <time>2014-08-24T08:07:10Z</time>
      </trkpt>
      <trkpt lat="44.13053" lon="0.64355">
        <ele>153</ele>
        <time>2014-08-24T08:07:12Z</time>
      </trkpt>
      <trkpt lat="44.13056" lon="0.6436">
        <ele>153</ele>
        <time>2014-08-24T08:07:14Z</time>
      </trkpt>
      <trkpt lat="44.13059" lon="0.64366">
        <ele>153</ele>
        <time>2014-08-24T08:07:16Z</time>
      </trkpt>
      <trkpt lat="44.13062" lon="0.64372">
        <ele>152</ele>
        <time>2014-08-24T08:07:18Z</time>
      </trkpt>
      <trkpt lat="44.13064" lon="0.64377">
        <ele>152</ele>
        <time>2014-08-24T08:07:20Z</time>
      </trkpt>
      <trkpt lat="44.13067" lon="0.64383">
        <ele>152</ele>
        <time>2014-08-24T08:07:22Z</time>
      </trkpt>
      <trkpt lat="44.13071" lon="0.6439">
        <ele>151</ele>
        <time>2014-08-24T08:07:25Z</time>
      </trkpt>
      <trkpt lat="44.13075" lon="0.64394">
        <ele>151</ele>
        <time>2014-08-24T08:07:27Z</time>
      </trkpt>
      <trkpt lat="44.1308" lon="0.644">
        <ele>151</ele>
        <time>2014-08-24T08:07:30Z</time>
      </trkpt>
      <trkpt lat="44.13084" lon="0.64404">
        <ele>150</ele>
        <time>2014-08-24T08:07:32Z</time>
      </trkpt>
      <trkpt lat="44.13089" lon="0.64408">
        <ele>150</ele>
        <time>2014-08-24T08:07:34Z</time>
      </trkpt>
      <trkpt lat="44.13092" lon="0.64414">
        <ele>149</ele>
        <time>2014-08-24T08:07:36Z</time>
      </trkpt>
      <trkpt lat="44.13094" lon="0.64419">
        <ele>149</ele>
        <time>2014-08-24T08:07:38Z</time>
      </trkpt>
      <trkpt lat="44.13095" lon="0.64429">
        <ele>149</ele>
        <time>2014-08-24T08:07:41Z</time>
      </trkpt>
      <trkpt lat="44.13096" lon="0.64437">
        <ele>148</ele>
        <time>2014-08-24T08:07:44Z</time>
      </trkpt>
      <trkpt lat="44.13096" lon="0.64444">
        <ele>148</ele>
        <time>2014-08-24T08:07:46Z</time>
      </trkpt>
      <trkpt lat="44.13095" lon="0.64453">
        <ele>148</ele>
        <time>2014-08-24T08:07:48Z</time>
      </trkpt>
      <trkpt lat="44.13093" lon="0.6446">
        <ele>147</ele>
        <time>2014-08-24T08:07:50Z</time>
      </trkpt>
      <trkpt lat="44.13092" lon="0.64468">
        <ele>147</ele>
        <time>2014-08-24T08:07:52Z</time>
      </trkpt>
      <trkpt lat="44.13091" lon="0.64474">
        <ele>146</ele>
        <time>2014-08-24T08:07:54Z</time>
      </trkpt>
      <trkpt lat="44.1309" lon="0.64481">
        <ele>146</ele>
        <time>2014-08-24T08:07:57Z</time>
      </trkpt>
      <trkpt lat="44.13088" lon="0.64487">
        <ele>146</ele>
        <time>2014-08-24T08:07:59Z</time>
      </trkpt>
      <trkpt lat="44.13087" lon="0.64493">
        <ele>145</ele>
        <time>2014-08-24T08:08:01Z</time>
      </trkpt>
      <trkpt lat="44.13085" lon="0.64502">
        <ele>145</ele>
        <time>2014-08-24T08:08:04Z</time>
      </trkpt>
      <trkpt lat="44.13083" lon="0.64509">
        <ele>145</ele>
        <time>2014-08-24T08:08:06Z</time>
      </trkpt>
      <trkpt lat="44.13081" lon="0.64518">
        <ele>144</ele>
        <time>2014-08-24T08:08:09Z</time>
      </trkpt>
      <trkpt lat="44.13079" lon="0.64524">
        <ele>144</ele>
        <time>2014-08-24T08:08:11Z</time>
      </trkpt>
      <trkpt lat="44.13076" lon="0.64532">
        <ele>144</ele>
        <time>2014-08-24T08:08:14Z</time>
      </trkpt>
      <trkpt lat="44.13074" lon="0.6454">
        <ele>143</ele>
        <time>2014-08-24T08:08:17Z</time>
      </trkpt>
      <trkpt lat="44.13073" lon="0.64549">
        <ele>143</ele>
        <time>2014-08-24T08:08:20Z</time>
      </trkpt>
      <trkpt lat="44.13072" lon="0.64556">
        <ele>142</ele>
        <time>2014-08-24T08:08:22Z</time>
      </trkpt>
      <trkpt lat="44.1307" lon="0.64564">
        <ele>142</ele>
        <time>2014-08-24T08:08:25Z</time>
      </trkpt>
      <trkpt lat="44.13068" lon="0.64571">
        <ele>141</ele>
        <time>2014-08-24T08:08:27Z</time>
      </trkpt>
      <trkpt lat="44.13068" lon="0.64577">
        <ele>141</ele>
        <time>2014-08-24T08:08:29Z</time>
      </trkpt>
      <trkpt lat="44.13068" lon="0.64583">
        <ele>141</ele>
        <time>2014-08-24T08:08:31Z</time>
      </trkpt>
      <trkpt lat="44.13069" lon="0.64591">
        <ele>140</ele>
        <time>2014-08-24T08:08:34Z</time>
      </trkpt>
      <trkpt lat="44.13071" lon="0.64597">
        <ele>140</ele>
        <time>2014-08-24T08:08:36Z</time>
      </trkpt>
      <trkpt lat="44.13074" lon="0.64605">
        <ele>139</ele>
        <time>2014-08-24T08:08:38Z</time>
      </trkpt>
      <trkpt lat="44.13079" lon="0.6461">
        <ele>139</ele>
        <time>2014-08-24T08:08:40Z</time>
      </trkpt>
      <trkpt lat="44.13084" lon="0.64614">
        <ele>138</ele>
        <time>2014-08-24T08:08:42Z</time>
      </trkpt>
      <trkpt lat="44.13089" lon="0.64616">
        <ele>138</ele>
        <time>2014-08-24T08:08:44Z</time>
      </trkpt>
      <trkpt lat="44.13095" lon="0.64617">
        <ele>137</ele>
        <time>2014-08-24T08:08:46Z</time>
      </trkpt>
      <trkpt lat="44.131" lon="0.64616">
        <ele>136</ele>
        <time>2014-08-24T08:08:48Z</time>
      </trkpt>
      <trkpt lat="44.13105" lon="0.64615">
        <ele>135</ele>
        <time>2014-08-24T08:08:50Z</time>
      </trkpt>
      <trkpt lat="44.13109" lon="0.64613">
        <ele>135</ele>
        <time>2014-08-24T08:08:52Z</time>
      </trkpt>
      <trkpt lat="44.13116" lon="0.6461">
        <ele>134</ele>
        <time>2014-08-24T08:08:55Z</time>
      </trkpt>
      <trkpt lat="44.13121" lon="0.64605">
        <ele>134</ele>
        <time>2014-08-24T08:08:58Z</time>
      </trkpt>
      <trkpt lat="44.13125" lon="0.64601">
        <ele>133</ele>
        <time>2014-08-24T08:09:00Z</time>
      </trkpt>
      <trkpt lat="44.13131" lon="0.64598">
        <ele>133</ele>
        <time>2014-08-24T08:09:02Z</time>
      </trkpt>
      <trkpt lat="44.13137" lon="0.64596">
        <ele>132</ele>
        <time>2014-08-24T08:09:04Z</time>
      </trkpt>
      <trkpt lat="44.13141" lon="0.64599">
        <ele>132</ele>
        <time>2014-08-24T08:09:06Z</time>
      </trkpt>
      <trkpt lat="44.13147" lon="0.64603">
        <ele>131</ele>
        <time>2014-08-24T08:09:09Z</time>
      </trkpt>
      <trkpt lat="44.13151" lon="0.64607">
        <ele>130</ele>
        <time>2014-08-24T08:09:11Z</time>
      </trkpt>
      <trkpt lat="44.13156" lon="0.64613">
        <ele>130</ele>
        <time>2014-08-24T08:09:14Z</time>
      </trkpt>
      <trkpt lat="44.1316" lon="0.64617">
        <ele>129</ele>
        <time>2014-08-24T08:09:16Z</time>
      </trkpt>
      <trkpt lat="44.13164" lon="0.64623">
        <ele>129</ele>
        <time>2014-08-24T08:09:19Z</time>
      </trkpt>
      <trkpt lat="44.13169" lon="0.64628">
        <ele>128</ele>
        <time>2014-08-24T08:09:22Z</time>
      </trkpt>
      <trkpt lat="44.13174" lon="0.64632">
        <ele>128</ele>
        <time>2014-08-24T08:09:24Z</time>
      </trkpt>
      <trkpt lat="44.13179" lon="0.64635">
        <ele>128</ele>
        <time>2014-08-24T08:09:26Z</time>
      </trkpt>
      <trkpt lat="44.13182" lon="0.64639">
        <ele>128</ele>
        <time>2014-08-24T08:09:28Z</time>
      </trkpt>
      <trkpt lat="44.13187" lon="0.64642">
        <ele>127</ele>
        <time>2014-08-24T08:09:30Z</time>
      </trkpt>
      <trkpt lat="44.13193" lon="0.64646">
        <ele>127</ele>
        <time>2014-08-24T08:09:33Z</time>
      </trkpt>
      <trkpt lat="44.13198" lon="0.64649">
        <ele>126</ele>
        <time>2014-08-24T08:09:36Z</time>
      </trkpt>
      <trkpt lat="44.13204" lon="0.64653">
        <ele>126</ele>
        <time>2014-08-24T08:09:39Z</time>
      </trkpt>
      <trkpt lat="44.1321" lon="0.64657">
        <ele>126</ele>
        <time>2014-08-24T08:09:42Z</time>
      </trkpt>
      <trkpt lat="44.13215" lon="0.6466">
        <ele>125</ele>
        <time>2014-08-24T08:09:44Z</time>
      </trkpt>
      <trkpt lat="44.13218" lon="0.64663">
        <ele>125</ele>
        <time>2014-08-24T08:09:46Z</time>
      </trkpt>
      <trkpt lat="44.13223" lon="0.64667">
        <ele>125</ele>
        <time>2014-08-24T08:09:48Z</time>
      </trkpt>
      <trkpt lat="44.13228" lon="0.64671">
        <ele>125</ele>
        <time>2014-08-24T08:09:51Z</time>
      </trkpt>
      <trkpt lat="44.13232" lon="0.64676">
        <ele>125</ele>
        <time>2014-08-24T08:09:54Z</time>
      </trkpt>
      <trkpt lat="44.13234" lon="0.64682">
        <ele>124</ele>
        <time>2014-08-24T08:09:56Z</time>
      </trkpt>
      <trkpt lat="44.13238" lon="0.64688">
        <ele>124</ele>
        <time>2014-08-24T08:09:58Z</time>
      </trkpt>
      <trkpt lat="44.13241" lon="0.64694">
        <ele>124</ele>
        <time>2014-08-24T08:10:00Z</time>
      </trkpt>
      <trkpt lat="44.13244" lon="0.64702">
        <ele>124</ele>
        <time>2014-08-24T08:10:02Z</time>
      </trkpt>
      <trkpt lat="44.13245" lon="0.64709">
        <ele>123</ele>
        <time>2014-08-24T08:10:04Z</time>
      </trkpt>
      <trkpt lat="44.13246" lon="0.64717">
        <ele>123</ele>
        <time>2014-08-24T08:10:06Z</time>
      </trkpt>
      <trkpt lat="44.13247" lon="0.64723">
        <ele>123</ele>
        <time>2014-08-24T08:10:08Z</time>
      </trkpt>
      <trkpt lat="44.13249" lon="0.64729">
        <ele>122</ele>
        <time>2014-08-24T08:10:10Z</time>
      </trkpt>
      <trkpt lat="44.1325" lon="0.64738">
        <ele>122</ele>
        <time>2014-08-24T08:10:12Z</time>
      </trkpt>
      <trkpt lat="44.13252" lon="0.64747">
        <ele>121</ele>
        <time>2014-08-24T08:10:14Z</time>
      </trkpt>
      <trkpt lat="44.13253" lon="0.64755">
        <ele>121</ele>
        <time>2014-08-24T08:10:16Z</time>
      </trkpt>
      <trkpt lat="44.13255" lon="0.64763">
        <ele>120</ele>
        <time>2014-08-24T08:10:18Z</time>
      </trkpt>
      <trkpt lat="44.13255" lon="0.6477">
        <ele>119</ele>
        <time>2014-08-24T08:10:20Z</time>
      </trkpt>
      <trkpt lat="44.13257" lon="0.64777">
        <ele>119</ele>
        <time>2014-08-24T08:10:22Z</time>
      </trkpt>
      <trkpt lat="44.13256" lon="0.64785">
        <ele>118</ele>
        <time>2014-08-24T08:10:24Z</time>
      </trkpt>
      <trkpt lat="44.13255" lon="0.64794">
        <ele>117</ele>
        <time>2014-08-24T08:10:27Z</time>
      </trkpt>
      <trkpt lat="44.13255" lon="0.64801">
        <ele>117</ele>
        <time>2014-08-24T08:10:29Z</time>
      </trkpt>
      <trkpt lat="44.13254" lon="0.64808">
        <ele>116</ele>
        <time>2014-08-24T08:10:31Z</time>
      </trkpt>
      <trkpt lat="44.13254" lon="0.64814">
        <ele>116</ele>
        <time>2014-08-24T08:10:33Z</time>
      </trkpt>
      <trkpt lat="44.13254" lon="0.64821">
        <ele>115</ele>
        <time>2014-08-24T08:10:35Z</time>
      </trkpt>
      <trkpt lat="44.13255" lon="0.64828">
        <ele>115</ele>
        <time>2014-08-24T08:10:37Z</time>
      </trkpt>
      <trkpt lat="44.13255" lon="0.64837">
        <ele>115</ele>
        <time>2014-08-24T08:10:40Z</time>
      </trkpt>
      <trkpt lat="44.13255" lon="0.64845">
        <ele>114</ele>
        <time>2014-08-24T08:10:43Z</time>
      </trkpt>
      <trkpt lat="44.13256" lon="0.64852">
        <ele>114</ele>
        <time>2014-08-24T08:10:45Z</time>
      </trkpt>
      <trkpt lat="44.13256" lon="0.64861">
        <ele>113</ele>
        <time>2014-08-24T08:10:48Z</time>
      </trkpt>
      <trkpt lat="44.13256" lon="0.64868">
        <ele>112</ele>
        <time>2014-08-24T08:10:51Z</time>
      </trkpt>
      <trkpt lat="44.13258" lon="0.64874">
        <ele>112</ele>
        <time>2014-08-24T08:10:53Z</time>
      </trkpt>
      <trkpt lat="44.13259" lon="0.64881">
        <ele>111</ele>
        <time>2014-08-24T08:10:55Z</time>
      </trkpt>
      <trkpt lat="44.1326" lon="0.64887">
        <ele>111</ele>
        <time>2014-08-24T08:10:57Z</time>
      </trkpt>
      <trkpt lat="44.13259" lon="0.64894">
        <ele>110</ele>
        <time>2014-08-24T08:10:59Z</time>
      </trkpt>
      <trkpt lat="44.13258" lon="0.64903">
        <ele>109</ele>
        <time>2014-08-24T08:11:02Z</time>
      </trkpt>
      <trkpt lat="44.13258" lon="0.64912">
        <ele>109</ele>
        <time>2014-08-24T08:11:05Z</time>
      </trkpt>
      <trkpt lat="44.13258" lon="0.64919">
        <ele>108</ele>
        <time>2014-08-24T08:11:07Z</time>
      </trkpt>
      <trkpt lat="44.13258" lon="0.64928">
        <ele>108</ele>
        <time>2014-08-24T08:11:10Z</time>
      </trkpt>
      <trkpt lat="44.13258" lon="0.64935">
        <ele>107</ele>
        <time>2014-08-24T08:11:12Z</time>
      </trkpt>
      <trkpt lat="44.13257" lon="0.64942">
        <ele>107</ele>
        <time>2014-08-24T08:11:14Z</time>
      </trkpt>
      <trkpt lat="44.13257" lon="0.64949">
        <ele>107</ele>
        <time>2014-08-24T08:11:16Z</time>
      </trkpt>
      <trkpt lat="44.13257" lon="0.64955">
        <ele>107</ele>
        <time>2014-08-24T08:11:18Z</time>
      </trkpt>
      <trkpt lat="44.13257" lon="0.64962">
        <ele>106</ele>
        <time>2014-08-24T08:11:20Z</time>
      </trkpt>
      <trkpt lat="44.13256" lon="0.64968">
        <ele>106</ele>
        <time>2014-08-24T08:11:22Z</time>
      </trkpt>
      <trkpt lat="44.13255" lon="0.64976">
        <ele>106</ele>
        <time>2014-08-24T08:11:25Z</time>
      </trkpt>
      <trkpt lat="44.13254" lon="0.64982">
        <ele>105</ele>
        <time>2014-08-24T08:11:27Z</time>
      </trkpt>
      <trkpt lat="44.13253" lon="0.64988">
        <ele>105</ele>
        <time>2014-08-24T08:11:29Z</time>
      </trkpt>
      <trkpt lat="44.13253" lon="0.64995">
        <ele>104</ele>
        <time>2014-08-24T08:11:31Z</time>
      </trkpt>
      <trkpt lat="44.13252" lon="0.65002">
        <ele>104</ele>
        <time>2014-08-24T08:11:34Z</time>
      </trkpt>
      <trkpt lat="44.13252" lon="0.65008">
        <ele>103</ele>
        <time>2014-08-24T08:11:36Z</time>
      </trkpt>
      <trkpt lat="44.13251" lon="0.65015">
        <ele>103</ele>
        <time>2014-08-24T08:11:38Z</time>
      </trkpt>
      <trkpt lat="44.13251" lon="0.65021">
        <ele>103</ele>
        <time>2014-08-24T08:11:40Z</time>
      </trkpt>
      <trkpt lat="44.13251" lon="0.6503">
        <ele>102</ele>
        <time>2014-08-24T08:11:43Z</time>
      </trkpt>
      <trkpt lat="44.13251" lon="0.65038">
        <ele>102</ele>
        <time>2014-08-24T08:11:46Z</time>
      </trkpt>
      <trkpt lat="44.1325" lon="0.65045">
        <ele>102</ele>
        <time>2014-08-24T08:11:48Z</time>
      </trkpt>
      <trkpt lat="44.13248" lon="0.65052">
        <ele>102</ele>
        <time>2014-08-24T08:11:50Z</time>
      </trkpt>
      <trkpt lat="44.13247" lon="0.6506">
        <ele>101</ele>
        <time>2014-08-24T08:11:52Z</time>
      </trkpt>
      <trkpt lat="44.13244" lon="0.65068">
        <ele>101</ele>
        <time>2014-08-24T08:11:55Z</time>
      </trkpt>
      <trkpt lat="44.13242" lon="0.65076">
        <ele>101</ele>
        <time>2014-08-24T08:11:58Z</time>
      </trkpt>
      <trkpt lat="44.1324" lon="0.65083">
        <ele>100</ele>
        <time>2014-08-24T08:12:00Z</time>
      </trkpt>
      <trkpt lat="44.13239" lon="0.65092">
        <ele>100</ele>
        <time>2014-08-24T08:12:03Z</time>
      </trkpt>
      <trkpt lat="44.13237" lon="0.651">
        <ele>99</ele>
        <time>2014-08-24T08:12:06Z</time>
      </trkpt>
      <trkpt lat="44.13235" lon="0.6511">
        <ele>98</ele>
        <time>2014-08-24T08:12:09Z</time>
      </trkpt>
      <trkpt lat="44.13233" lon="0.65117">
        <ele>98</ele>
        <time>2014-08-24T08:12:11Z</time>
      </trkpt>
      <trkpt lat="44.13232" lon="0.65125">
        <ele>98</ele>
        <time>2014-08-24T08:12:13Z</time>
      </trkpt>
      <trkpt lat="44.13231" lon="0.65131">
        <ele>98</ele>
        <time>2014-08-24T08:12:15Z</time>
      </trkpt>
      <trkpt lat="44.1323" lon="0.65139">
        <ele>97</ele>
        <time>2014-08-24T08:12:18Z</time>
      </trkpt>
      <trkpt lat="44.13229" lon="0.65147">
        <ele>97</ele>
        <time>2014-08-24T08:12:21Z</time>
      </trkpt>
      <trkpt lat="44.13226" lon="0.65155">
        <ele>97</ele>
        <time>2014-08-24T08:12:24Z</time>
      </trkpt>
      <trkpt lat="44.13223" lon="0.65161">
        <ele>96</ele>
        <time>2014-08-24T08:12:26Z</time>
      </trkpt>
      <trkpt lat="44.13223" lon="0.65168">
        <ele>96</ele>
        <time>2014-08-24T08:12:28Z</time>
      </trkpt>
      <trkpt lat="44.13221" lon="0.65177">
        <ele>96</ele>
        <time>2014-08-24T08:12:31Z</time>
      </trkpt>
      <trkpt lat="44.1322" lon="0.65186">
        <ele>96</ele>
        <time>2014-08-24T08:12:33Z</time>
      </trkpt>
      <trkpt lat="44.1322" lon="0.65194">
        <ele>95</ele>
        <time>2014-08-24T08:12:35Z</time>
      </trkpt>
      <trkpt lat="44.13218" lon="0.652">
        <ele>95</ele>
        <time>2014-08-24T08:12:37Z</time>
      </trkpt>
      <trkpt lat="44.13217" lon="0.65208">
        <ele>95</ele>
        <time>2014-08-24T08:12:40Z</time>
      </trkpt>
      <trkpt lat="44.13215" lon="0.65217">
        <ele>94</ele>
        <time>2014-08-24T08:12:43Z</time>
      </trkpt>
      <trkpt lat="44.13215" lon="0.65224">
        <ele>94</ele>
        <time>2014-08-24T08:12:45Z</time>
      </trkpt>
      <trkpt lat="44.13215" lon="0.65231">
        <ele>94</ele>
        <time>2014-08-24T08:12:47Z</time>
      </trkpt>
      <trkpt lat="44.13214" lon="0.65238">
        <ele>93</ele>
        <time>2014-08-24T08:12:49Z</time>
      </trkpt>
      <trkpt lat="44.13214" lon="0.65245">
        <ele>93</ele>
        <time>2014-08-24T08:12:51Z</time>
      </trkpt>
      <trkpt lat="44.13214" lon="0.65252">
        <ele>93</ele>
        <time>2014-08-24T08:12:53Z</time>
      </trkpt>
      <trkpt lat="44.13214" lon="0.65261">
        <ele>92</ele>
        <time>2014-08-24T08:12:56Z</time>
      </trkpt>
      <trkpt lat="44.13214" lon="0.6527">
        <ele>92</ele>
        <time>2014-08-24T08:12:59Z</time>
      </trkpt>
      <trkpt lat="44.13213" lon="0.65277">
        <ele>92</ele>
        <time>2014-08-24T08:13:01Z</time>
      </trkpt>
      <trkpt lat="44.13212" lon="0.65286">
        <ele>91</ele>
        <time>2014-08-24T08:13:04Z</time>
      </trkpt>
      <trkpt lat="44.13213" lon="0.65296">
        <ele>91</ele>
        <time>2014-08-24T08:13:07Z</time>
      </trkpt>
      <trkpt lat="44.13213" lon="0.65302">
        <ele>90</ele>
        <time>2014-08-24T08:13:09Z</time>
      </trkpt>
      <trkpt lat="44.13212" lon="0.65309">
        <ele>90</ele>
        <time>2014-08-24T08:13:11Z</time>
      </trkpt>
      <trkpt lat="44.13212" lon="0.65316">
        <ele>90</ele>
        <time>2014-08-24T08:13:13Z</time>
      </trkpt>
      <trkpt lat="44.13213" lon="0.65323">
        <ele>89</ele>
        <time>2014-08-24T08:13:15Z</time>
      </trkpt>
      <trkpt lat="44.13212" lon="0.6533">
        <ele>89</ele>
        <time>2014-08-24T08:13:17Z</time>
      </trkpt>
      <trkpt lat="44.13212" lon="0.65336">
        <ele>88</ele>
        <time>2014-08-24T08:13:19Z</time>
      </trkpt>
      <trkpt lat="44.13211" lon="0.65345">
        <ele>88</ele>
        <time>2014-08-24T08:13:22Z</time>
      </trkpt>
      <trkpt lat="44.13211" lon="0.65351">
        <ele>87</ele>
        <time>2014-08-24T08:13:24Z</time>
      </trkpt>
      <trkpt lat="44.1321" lon="0.65357">
        <ele>87</ele>
        <time>2014-08-24T08:13:26Z</time>
      </trkpt>
      <trkpt lat="44.13209" lon="0.65364">
        <ele>87</ele>
        <time>2014-08-24T08:13:28Z</time>
      </trkpt>
      <trkpt lat="44.13209" lon="0.65372">
        <ele>86</ele>
        <time>2014-08-24T08:13:30Z</time>
      </trkpt>
      <trkpt lat="44.13208" lon="0.65379">
        <ele>86</ele>
        <time>2014-08-24T08:13:32Z</time>
      </trkpt>
      <trkpt lat="44.13208" lon="0.65387">
        <ele>85</ele>
        <time>2014-08-24T08:13:35Z</time>
      </trkpt>
      <trkpt lat="44.13208" lon="0.65394">
        <ele>85</ele>
        <time>2014-08-24T08:13:37Z</time>
      </trkpt>
      <trkpt lat="44.13209" lon="0.65401">
        <ele>85</ele>
        <time>2014-08-24T08:13:39Z</time>
      </trkpt>
      <trkpt lat="44.13209" lon="0.65408">
        <ele>85</ele>
        <time>2014-08-24T08:13:41Z</time>
      </trkpt>
      <trkpt lat="44.13208" lon="0.65415">
        <ele>85</ele>
        <time>2014-08-24T08:13:43Z</time>
      </trkpt>
      <trkpt lat="44.13209" lon="0.65422">
        <ele>84</ele>
        <time>2014-08-24T08:13:45Z</time>
      </trkpt>
      <trkpt lat="44.13209" lon="0.6543">
        <ele>84</ele>
        <time>2014-08-24T08:13:47Z</time>
      </trkpt>
      <trkpt lat="44.1321" lon="0.65437">
        <ele>84</ele>
        <time>2014-08-24T08:13:49Z</time>
      </trkpt>
      <trkpt lat="44.13209" lon="0.65444">
        <ele>83</ele>
        <time>2014-08-24T08:13:51Z</time>
      </trkpt>
      <trkpt lat="44.1321" lon="0.65453">
        <ele>83</ele>
        <time>2014-08-24T08:13:54Z</time>
      </trkpt>
      <trkpt lat="44.13211" lon="0.6546">
        <ele>83</ele>
        <time>2014-08-24T08:13:56Z</time>
      </trkpt>
      <trkpt lat="44.13211" lon="0.65467">
        <ele>82</ele>
        <time>2014-08-24T08:13:58Z</time>
      </trkpt>
      <trkpt lat="44.13211" lon="0.65474">
        <ele>82</ele>
        <time>2014-08-24T08:14:00Z</time>
      </trkpt>
      <trkpt lat="44.13211" lon="0.65482">
        <ele>82</ele>
        <time>2014-08-24T08:14:02Z</time>
      </trkpt>
      <trkpt lat="44.13211" lon="0.65489">
        <ele>81</ele>
        <time>2014-08-24T08:14:04Z</time>
      </trkpt>
      <trkpt lat="44.13211" lon="0.65496">
        <ele>81</ele>
        <time>2014-08-24T08:14:06Z</time>
      </trkpt>
      <trkpt lat="44.13212" lon="0.65504">
        <ele>81</ele>
        <time>2014-08-24T08:14:08Z</time>
      </trkpt>
      <trkpt lat="44.13212" lon="0.6551">
        <ele>80</ele>
        <time>2014-08-24T08:14:10Z</time>
      </trkpt>
      <trkpt lat="44.13213" lon="0.65517">
        <ele>80</ele>
        <time>2014-08-24T08:14:12Z</time>
      </trkpt>
      <trkpt lat="44.13213" lon="0.65524">
        <ele>80</ele>
        <time>2014-08-24T08:14:14Z</time>
      </trkpt>
      <trkpt lat="44.13213" lon="0.65533">
        <ele>79</ele>
        <time>2014-08-24T08:14:17Z</time>
      </trkpt>
      <trkpt lat="44.13214" lon="0.65542">
        <ele>79</ele>
        <time>2014-08-24T08:14:20Z</time>
      </trkpt>
      <trkpt lat="44.13214" lon="0.65549">
        <ele>79</ele>
        <time>2014-08-24T08:14:22Z</time>
      </trkpt>
      <trkpt lat="44.13215" lon="0.65558">
        <ele>78</ele>
        <time>2014-08-24T08:14:25Z</time>
      </trkpt>
      <trkpt lat="44.13215" lon="0.65564">
        <ele>78</ele>
        <time>2014-08-24T08:14:27Z</time>
      </trkpt>
      <trkpt lat="44.13215" lon="0.65571">
        <ele>78</ele>
        <time>2014-08-24T08:14:29Z</time>
      </trkpt>
      <trkpt lat="44.13215" lon="0.65578">
        <ele>78</ele>
        <time>2014-08-24T08:14:31Z</time>
      </trkpt>
      <trkpt lat="44.13215" lon="0.65587">
        <ele>78</ele>
        <time>2014-08-24T08:14:34Z</time>
      </trkpt>
      <trkpt lat="44.13213" lon="0.65595">
        <ele>77</ele>
        <time>2014-08-24T08:14:37Z</time>
      </trkpt>
      <trkpt lat="44.13211" lon="0.65602">
        <ele>77</ele>
        <time>2014-08-24T08:14:40Z</time>
      </trkpt>
      <trkpt lat="44.1321" lon="0.65611">
        <ele>77</ele>
        <time>2014-08-24T08:14:43Z</time>
      </trkpt>
      <trkpt lat="44.13208" lon="0.65617">
        <ele>77</ele>
        <time>2014-08-24T08:14:45Z</time>
      </trkpt>
      <trkpt lat="44.13207" lon="0.65625">
        <ele>76</ele>
        <time>2014-08-24T08:14:47Z</time>
      </trkpt>
      <trkpt lat="44.13207" lon="0.65632">
        <ele>76</ele>
        <time>2014-08-24T08:14:49Z</time>
      </trkpt>
      <trkpt lat="44.13205" lon="0.65639">
        <ele>76</ele>
        <time>2014-08-24T08:14:51Z</time>
      </trkpt>
      <trkpt lat="44.13203" lon="0.65645">
        <ele>76</ele>
        <time>2014-08-24T08:14:53Z</time>
      </trkpt>
      <trkpt lat="44.13201" lon="0.65653">
        <ele>76</ele>
        <time>2014-08-24T08:14:56Z</time>
      </trkpt>
      <trkpt lat="44.13199" lon="0.65661">
        <ele>75</ele>
        <time>2014-08-24T08:14:59Z</time>
      </trkpt>
      <trkpt lat="44.13198" lon="0.65668">
        <ele>75</ele>
        <time>2014-08-24T08:15:01Z</time>
      </trkpt>
      <trkpt lat="44.13197" lon="0.65674">
        <ele>75</ele>
        <time>2014-08-24T08:15:03Z</time>
      </trkpt>
      <trkpt lat="44.13194" lon="0.65681">
        <ele>75</ele>
        <time>2014-08-24T08:15:05Z</time>
      </trkpt>
      <trkpt lat="44.13191" lon="0.65687">
        <ele>74</ele>
        <time>2014-08-24T08:15:08Z</time>
      </trkpt>
      <trkpt lat="44.13189" lon="0.65696">
        <ele>74</ele>
        <time>2014-08-24T08:15:11Z</time>
      </trkpt>
      <trkpt lat="44.13187" lon="0.65704">
        <ele>74</ele>
        <time>2014-08-24T08:15:14Z</time>
      </trkpt>
      <trkpt lat="44.13185" lon="0.65712">
        <ele>74</ele>
        <time>2014-08-24T08:15:17Z</time>
      </trkpt>
      <trkpt lat="44.13183" lon="0.65718">
        <ele>74</ele>
        <time>2014-08-24T08:15:19Z</time>
      </trkpt>
      <trkpt lat="44.13181" lon="0.65726">
        <ele>74</ele>
        <time>2014-08-24T08:15:22Z</time>
      </trkpt>
      <trkpt lat="44.13179" lon="0.65734">
        <ele>73</ele>
        <time>2014-08-24T08:15:25Z</time>
      </trkpt>
      <trkpt lat="44.13176" lon="0.65742">
        <ele>73</ele>
        <time>2014-08-24T08:15:28Z</time>
      </trkpt>
      <trkpt lat="44.13173" lon="0.65749">
        <ele>72</ele>
        <time>2014-08-24T08:15:30Z</time>
      </trkpt>
      <trkpt lat="44.13171" lon="0.65756">
        <ele>72</ele>
        <time>2014-08-24T08:15:32Z</time>
      </trkpt>
      <trkpt lat="44.1317" lon="0.65763">
        <ele>72</ele>
        <time>2014-08-24T08:15:34Z</time>
      </trkpt>
      <trkpt lat="44.13168" lon="0.65771">
        <ele>72</ele>
        <time>2014-08-24T08:15:36Z</time>
      </trkpt>
      <trkpt lat="44.13167" lon="0.65777">
        <ele>72</ele>
        <time>2014-08-24T08:15:38Z</time>
      </trkpt>
      <trkpt lat="44.13166" lon="0.65784">
        <ele>71</ele>
        <time>2014-08-24T08:15:40Z</time>
      </trkpt>
      <trkpt lat="44.13166" lon="0.65793">
        <ele>71</ele>
        <time>2014-08-24T08:15:43Z</time>
      </trkpt>
      <trkpt lat="44.13166" lon="0.658">
        <ele>71</ele>
        <time>2014-08-24T08:15:45Z</time>
      </trkpt>
      <trkpt lat="44.13165" lon="0.65808">
        <ele>71</ele>
        <time>2014-08-24T08:15:47Z</time>
      </trkpt>
      <trkpt lat="44.13164" lon="0.65816">
        <ele>70</ele>
        <time>2014-08-24T08:15:49Z</time>
      </trkpt>
      <trkpt lat="44.13162" lon="0.65825">
        <ele>70</ele>
        <time>2014-08-24T08:15:52Z</time>
      </trkpt>
      <trkpt lat="44.13162" lon="0.65831">
        <ele>70</ele>
        <time>2014-08-24T08:15:54Z</time>
      </trkpt>
      <trkpt lat="44.13161" lon="0.65841">
        <ele>69</ele>
        <time>2014-08-24T08:15:57Z</time>
      </trkpt>
      <trkpt lat="44.1316" lon="0.65848">
        <ele>69</ele>
        <time>2014-08-24T08:16:00Z</time>
      </trkpt>
      <trkpt lat="44.13159" lon="0.65857">
        <ele>69</ele>
        <time>2014-08-24T08:16:03Z</time>
      </trkpt>
      <trkpt lat="44.13159" lon="0.65864">
        <ele>69</ele>
        <time>2014-08-24T08:16:05Z</time>
      </trkpt>
      <trkpt lat="44.1316" lon="0.65872">
        <ele>69</ele>
        <time>2014-08-24T08:16:08Z</time>
      </trkpt>
      <trkpt lat="44.1316" lon="0.65881">
        <ele>68</ele>
        <time>2014-08-24T08:16:11Z</time>
      </trkpt>
      <trkpt lat="44.13159" lon="0.65888">
        <ele>68</ele>
        <time>2014-08-24T08:16:13Z</time>
      </trkpt>
      <trkpt lat="44.1316" lon="0.65896">
        <ele>68</ele>
        <time>2014-08-24T08:16:15Z</time>
      </trkpt>
      <trkpt lat="44.13158" lon="0.65906">
        <ele>68</ele>
        <time>2014-08-24T08:16:18Z</time>
      </trkpt>
      <trkpt lat="44.13157" lon="0.65912">
        <ele>67</ele>
        <time>2014-08-24T08:16:20Z</time>
      </trkpt>
      <trkpt lat="44.13157" lon="0.65919">
        <ele>67</ele>
        <time>2014-08-24T08:16:22Z</time>
      </trkpt>
      <trkpt lat="44.13158" lon="0.65927">
        <ele>67</ele>
        <time>2014-08-24T08:16:25Z</time>
      </trkpt>
      <trkpt lat="44.13158" lon="0.65934">
        <ele>66</ele>
        <time>2014-08-24T08:16:28Z</time>
      </trkpt>
      <trkpt lat="44.13165" lon="0.65937">
        <ele>66</ele>
        <time>2014-08-24T08:16:34Z</time>
      </trkpt>
      <trkpt lat="44.13169" lon="0.65939">
        <ele>66</ele>
        <time>2014-08-24T08:16:36Z</time>
      </trkpt>
      <trkpt lat="44.13176" lon="0.65942">
        <ele>66</ele>
        <time>2014-08-24T08:16:39Z</time>
      </trkpt>
      <trkpt lat="44.13182" lon="0.65945">
        <ele>66</ele>
        <time>2014-08-24T08:16:42Z</time>
      </trkpt>
      <trkpt lat="44.13186" lon="0.65948">
        <ele>66</ele>
        <time>2014-08-24T08:16:44Z</time>
      </trkpt>
      <trkpt lat="44.13191" lon="0.6595">
        <ele>66</ele>
        <time>2014-08-24T08:16:46Z</time>
      </trkpt>
      <trkpt lat="44.13197" lon="0.65953">
        <ele>65</ele>
        <time>2014-08-24T08:16:48Z</time>
      </trkpt>
      <trkpt lat="44.13201" lon="0.65955">
        <ele>65</ele>
        <time>2014-08-24T08:16:50Z</time>
      </trkpt>
      <trkpt lat="44.13205" lon="0.65955">
        <ele>65</ele>
        <time>2014-08-24T08:16:52Z</time>
      </trkpt>
      <trkpt lat="44.13211" lon="0.65959">
        <ele>65</ele>
        <time>2014-08-24T08:16:55Z</time>
      </trkpt>
      <trkpt lat="44.13217" lon="0.65962">
        <ele>65</ele>
        <time>2014-08-24T08:16:58Z</time>
      </trkpt>
      <trkpt lat="44.13223" lon="0.65966">
        <ele>64</ele>
        <time>2014-08-24T08:17:01Z</time>
      </trkpt>
      <trkpt lat="44.13228" lon="0.65969">
        <ele>64</ele>
        <time>2014-08-24T08:17:04Z</time>
      </trkpt>
      <trkpt lat="44.13234" lon="0.65973">
        <ele>64</ele>
        <time>2014-08-24T08:17:07Z</time>
      </trkpt>
      <trkpt lat="44.13239" lon="0.65977">
        <ele>65</ele>
        <time>2014-08-24T08:17:09Z</time>
      </trkpt>
      <trkpt lat="44.13244" lon="0.65981">
        <ele>65</ele>
        <time>2014-08-24T08:17:12Z</time>
      </trkpt>
      <trkpt lat="44.1325" lon="0.65985">
        <ele>65</ele>
        <time>2014-08-24T08:17:15Z</time>
      </trkpt>
      <trkpt lat="44.13254" lon="0.6599">
        <ele>65</ele>
        <time>2014-08-24T08:17:17Z</time>
      </trkpt>
      <trkpt lat="44.1326" lon="0.65995">
        <ele>64</ele>
        <time>2014-08-24T08:17:20Z</time>
      </trkpt>
      <trkpt lat="44.13266" lon="0.65999">
        <ele>64</ele>
        <time>2014-08-24T08:17:23Z</time>
      </trkpt>
      <trkpt lat="44.1327" lon="0.66001">
        <ele>64</ele>
        <time>2014-08-24T08:17:28Z</time>
      </trkpt>
      <trkpt lat="44.13276" lon="0.66002">
        <ele>64</ele>
        <time>2014-08-24T08:17:34Z</time>
      </trkpt>
      <trkpt lat="44.1328" lon="0.66002">
        <ele>62</ele>
        <time>2014-08-24T08:17:50Z</time>
      </trkpt>
      <trkpt lat="44.13283" lon="0.66007">
        <ele>61</ele>
        <time>2014-08-24T08:18:03Z</time>
      </trkpt>
      <trkpt lat="44.1328" lon="0.66012">
        <ele>61</ele>
        <time>2014-08-24T08:18:09Z</time>
      </trkpt>
      <trkpt lat="44.13281" lon="0.66018">
        <ele>61</ele>
        <time>2014-08-24T08:18:16Z</time>
      </trkpt>
      <trkpt lat="44.1328" lon="0.66023">
        <ele>60</ele>
        <time>2014-08-24T08:18:39Z</time>
      </trkpt>
      <trkpt lat="44.13282" lon="0.66015">
        <ele>58</ele>
        <time>2014-08-24T08:18:54Z</time>
      </trkpt>
      <trkpt lat="44.13281" lon="0.66012">
        <ele>59</ele>
        <time>2014-08-24T08:18:59Z</time>
      </trkpt>
      <trkpt lat="44.13283" lon="0.66007">
        <ele>60</ele>
        <time>2014-08-24T08:19:09Z</time>
      </trkpt>
      <trkpt lat="44.13283" lon="0.66007">
        <ele>60</ele>
        <time>2014-08-24T08:19:24Z</time>
      </trkpt>
      <trkpt lat="44.13283" lon="0.66007">
        <ele>61</ele>
        <time>2014-08-24T08:19:39Z</time>
      </trkpt>
      <trkpt lat="44.13283" lon="0.66007">
        <ele>61</ele>
        <time>2014-08-24T08:19:54Z</time>
      </trkpt>
      <trkpt lat="44.13284" lon="0.66005">
        <ele>62</ele>
        <time>2014-08-24T08:20:02Z</time>
      </trkpt>
      <trkpt lat="44.13284" lon="0.66005">
        <ele>64</ele>
        <time>2014-08-24T08:20:24Z</time>
      </trkpt>
      <trkpt lat="44.13284" lon="0.66005">
        <ele>64</ele>
        <time>2014-08-24T08:20:39Z</time>
      </trkpt>
      <trkpt lat="44.13287" lon="0.66005">
        <ele>64</ele>
        <time>2014-08-24T08:20:54Z</time>
      </trkpt>
      <trkpt lat="44.13287" lon="0.66005">
        <ele>64</ele>
        <time>2014-08-24T08:21:09Z</time>
      </trkpt>
      <trkpt lat="44.13287" lon="0.66005">
        <ele>65</ele>
        <time>2014-08-24T08:21:24Z</time>
      </trkpt>
      <trkpt lat="44.13287" lon="0.66005">
        <ele>66</ele>
        <time>2014-08-24T08:21:39Z</time>
      </trkpt>
      <trkpt lat="44.13288" lon="0.66004">
        <ele>66</ele>
        <time>2014-08-24T08:21:50Z</time>
      </trkpt>
      <trkpt lat="44.13289" lon="0.66004">
        <ele>67</ele>
        <time>2014-08-24T08:22:09Z</time>
      </trkpt>
      <trkpt lat="44.13289" lon="0.66004">
        <ele>68</ele>
        <time>2014-08-24T08:22:24Z</time>
      </trkpt>
      <trkpt lat="44.13289" lon="0.66005">
        <ele>69</ele>
        <time>2014-08-24T08:22:39Z</time>
      </trkpt>
      <trkpt lat="44.13289" lon="0.66005">
        <ele>69</ele>
        <time>2014-08-24T08:22:54Z</time>
      </trkpt>
      <trkpt lat="44.13288" lon="0.66008">
        <ele>67</ele>
        <time>2014-08-24T08:23:09Z</time>
      </trkpt>
      <trkpt lat="44.13288" lon="0.66007">
        <ele>67</ele>
        <time>2014-08-24T08:23:24Z</time>
      </trkpt>
      <trkpt lat="44.13287" lon="0.66008">
        <ele>68</ele>
        <time>2014-08-24T08:23:39Z</time>
      </trkpt>
      <trkpt lat="44.13287" lon="0.66008">
        <ele>68</ele>
        <time>2014-08-24T08:23:54Z</time>
      </trkpt>
      <trkpt lat="44.13285" lon="0.66008">
        <ele>68</ele>
        <time>2014-08-24T08:24:09Z</time>
      </trkpt>
      <trkpt lat="44.13285" lon="0.66008">
        <ele>68</ele>
        <time>2014-08-24T08:24:24Z</time>
      </trkpt>
      <trkpt lat="44.13284" lon="0.66008">
        <ele>67</ele>
        <time>2014-08-24T08:24:33Z</time>
      </trkpt>
      <trkpt lat="44.13281" lon="0.66005">
        <ele>66</ele>
        <time>2014-08-24T08:24:42Z</time>
      </trkpt>
      <trkpt lat="44.13277" lon="0.66">
        <ele>65</ele>
        <time>2014-08-24T08:24:51Z</time>
      </trkpt>
      <trkpt lat="44.13273" lon="0.65994">
        <ele>65</ele>
        <time>2014-08-24T08:24:58Z</time>
      </trkpt>
      <trkpt lat="44.13272" lon="0.65993">
        <ele>65</ele>
        <time>2014-08-24T08:25:09Z</time>
      </trkpt>
      <trkpt lat="44.13269" lon="0.65991">
        <ele>64</ele>
        <time>2014-08-24T08:25:14Z</time>
      </trkpt>
      <trkpt lat="44.13264" lon="0.65986">
        <ele>64</ele>
        <time>2014-08-24T08:25:16Z</time>
      </trkpt>
      <trkpt lat="44.1326" lon="0.65981">
        <ele>64</ele>
        <time>2014-08-24T08:25:19Z</time>
      </trkpt>
      <trkpt lat="44.13255" lon="0.6598">
        <ele>64</ele>
        <time>2014-08-24T08:25:26Z</time>
      </trkpt>
      <trkpt lat="44.1325" lon="0.6598">
        <ele>64</ele>
        <time>2014-08-24T08:25:31Z</time>
      </trkpt>
      <trkpt lat="44.13245" lon="0.65978">
        <ele>64</ele>
        <time>2014-08-24T08:25:36Z</time>
      </trkpt>
      <trkpt lat="44.1324" lon="0.65975">
        <ele>65</ele>
        <time>2014-08-24T08:25:42Z</time>
      </trkpt>
      <trkpt lat="44.13236" lon="0.65976">
        <ele>65</ele>
        <time>2014-08-24T08:25:47Z</time>
      </trkpt>
      <trkpt lat="44.13232" lon="0.65973">
        <ele>65</ele>
        <time>2014-08-24T08:25:50Z</time>
      </trkpt>
      <trkpt lat="44.13226" lon="0.65969">
        <ele>65</ele>
        <time>2014-08-24T08:25:55Z</time>
      </trkpt>
      <trkpt lat="44.13221" lon="0.65966">
        <ele>65</ele>
        <time>2014-08-24T08:26:00Z</time>
      </trkpt>
      <trkpt lat="44.13217" lon="0.65963">
        <ele>65</ele>
        <time>2014-08-24T08:26:05Z</time>
      </trkpt>
      <trkpt lat="44.13211" lon="0.65962">
        <ele>65</ele>
        <time>2014-08-24T08:26:11Z</time>
      </trkpt>
      <trkpt lat="44.13207" lon="0.65961">
        <ele>66</ele>
        <time>2014-08-24T08:26:16Z</time>
      </trkpt>
      <trkpt lat="44.13202" lon="0.65958">
        <ele>66</ele>
        <time>2014-08-24T08:26:20Z</time>
      </trkpt>
      <trkpt lat="44.13197" lon="0.65955">
        <ele>66</ele>
        <time>2014-08-24T08:26:25Z</time>
      </trkpt>
      <trkpt lat="44.13193" lon="0.65952">
        <ele>65</ele>
        <time>2014-08-24T08:26:30Z</time>
      </trkpt>
      <trkpt lat="44.13188" lon="0.6595">
        <ele>65</ele>
        <time>2014-08-24T08:26:36Z</time>
      </trkpt>
      <trkpt lat="44.13182" lon="0.65948">
        <ele>65</ele>
        <time>2014-08-24T08:26:42Z</time>
      </trkpt>
      <trkpt lat="44.13177" lon="0.65947">
        <ele>65</ele>
        <time>2014-08-24T08:26:47Z</time>
      </trkpt>
      <trkpt lat="44.13171" lon="0.65945">
        <ele>65</ele>
        <time>2014-08-24T08:26:53Z</time>
      </trkpt>
      <trkpt lat="44.13166" lon="0.65943">
        <ele>65</ele>
        <time>2014-08-24T08:26:56Z</time>
      </trkpt>
      <trkpt lat="44.1316" lon="0.65944">
        <ele>65</ele>
        <time>2014-08-24T08:27:03Z</time>
      </trkpt>
      <trkpt lat="44.13155" lon="0.65944">
        <ele>65</ele>
        <time>2014-08-24T08:27:06Z</time>
      </trkpt>
      <trkpt lat="44.1315" lon="0.65942">
        <ele>65</ele>
        <time>2014-08-24T08:27:10Z</time>
      </trkpt>
      <trkpt lat="44.13145" lon="0.6594">
        <ele>65</ele>
        <time>2014-08-24T08:27:13Z</time>
      </trkpt>
      <trkpt lat="44.13139" lon="0.65938">
        <ele>65</ele>
        <time>2014-08-24T08:27:16Z</time>
      </trkpt>
      <trkpt lat="44.13135" lon="0.65938">
        <ele>64</ele>
        <time>2014-08-24T08:27:20Z</time>
      </trkpt>
      <trkpt lat="44.13129" lon="0.65937">
        <ele>64</ele>
        <time>2014-08-24T08:27:25Z</time>
      </trkpt>
      <trkpt lat="44.13124" lon="0.65934">
        <ele>64</ele>
        <time>2014-08-24T08:27:31Z</time>
      </trkpt>
      <trkpt lat="44.13119" lon="0.65932">
        <ele>64</ele>
        <time>2014-08-24T08:27:37Z</time>
      </trkpt>
      <trkpt lat="44.13114" lon="0.6593">
        <ele>63</ele>
        <time>2014-08-24T08:27:42Z</time>
      </trkpt>
      <trkpt lat="44.13108" lon="0.65928">
        <ele>64</ele>
        <time>2014-08-24T08:27:46Z</time>
      </trkpt>
      <trkpt lat="44.13104" lon="0.65926">
        <ele>64</ele>
        <time>2014-08-24T08:27:49Z</time>
      </trkpt>
      <trkpt lat="44.13099" lon="0.65924">
        <ele>64</ele>
        <time>2014-08-24T08:27:54Z</time>
      </trkpt>
      <trkpt lat="44.13095" lon="0.6592">
        <ele>64</ele>
        <time>2014-08-24T08:27:58Z</time>
      </trkpt>
      <trkpt lat="44.1309" lon="0.65917">
        <ele>65</ele>
        <time>2014-08-24T08:28:03Z</time>
      </trkpt>
      <trkpt lat="44.13085" lon="0.65914">
        <ele>65</ele>
        <time>2014-08-24T08:28:08Z</time>
      </trkpt>
      <trkpt lat="44.13079" lon="0.65912">
        <ele>64</ele>
        <time>2014-08-24T08:28:13Z</time>
      </trkpt>
      <trkpt lat="44.13075" lon="0.6591">
        <ele>64</ele>
        <time>2014-08-24T08:28:17Z</time>
      </trkpt>
      <trkpt lat="44.13071" lon="0.65906">
        <ele>63</ele>
        <time>2014-08-24T08:28:21Z</time>
      </trkpt>
      <trkpt lat="44.13067" lon="0.65903">
        <ele>63</ele>
        <time>2014-08-24T08:28:25Z</time>
      </trkpt>
      <trkpt lat="44.13061" lon="0.659">
        <ele>62</ele>
        <time>2014-08-24T08:28:30Z</time>
      </trkpt>
      <trkpt lat="44.13056" lon="0.65897">
        <ele>62</ele>
        <time>2014-08-24T08:28:34Z</time>
      </trkpt>
      <trkpt lat="44.13051" lon="0.65895">
        <ele>62</ele>
        <time>2014-08-24T08:28:38Z</time>
      </trkpt>
      <trkpt lat="44.13046" lon="0.65893">
        <ele>62</ele>
        <time>2014-08-24T08:28:42Z</time>
      </trkpt>
      <trkpt lat="44.13042" lon="0.65891">
        <ele>62</ele>
        <time>2014-08-24T08:28:47Z</time>
      </trkpt>
      <trkpt lat="44.13037" lon="0.65889">
        <ele>63</ele>
        <time>2014-08-24T08:28:52Z</time>
      </trkpt>
      <trkpt lat="44.13032" lon="0.65888">
        <ele>63</ele>
        <time>2014-08-24T08:28:57Z</time>
      </trkpt>
      <trkpt lat="44.13027" lon="0.65887">
        <ele>64</ele>
        <time>2014-08-24T08:29:02Z</time>
      </trkpt>
      <trkpt lat="44.13022" lon="0.65888">
        <ele>64</ele>
        <time>2014-08-24T08:29:07Z</time>
      </trkpt>
      <trkpt lat="44.13017" lon="0.65887">
        <ele>64</ele>
        <time>2014-08-24T08:29:10Z</time>
      </trkpt>
      <trkpt lat="44.13012" lon="0.65887">
        <ele>64</ele>
        <time>2014-08-24T08:29:14Z</time>
      </trkpt>
      <trkpt lat="44.13007" lon="0.65886">
        <ele>65</ele>
        <time>2014-08-24T08:29:19Z</time>
      </trkpt>
      <trkpt lat="44.13003" lon="0.65886">
        <ele>65</ele>
        <time>2014-08-24T08:29:39Z</time>
      </trkpt>
      <trkpt lat="44.13004" lon="0.65886">
        <ele>65</ele>
        <time>2014-08-24T08:29:54Z</time>
      </trkpt>
      <trkpt lat="44.13004" lon="0.65889">
        <ele>64</ele>
        <time>2014-08-24T08:30:09Z</time>
      </trkpt>
      <trkpt lat="44.13004" lon="0.65891">
        <ele>65</ele>
        <time>2014-08-24T08:30:13Z</time>
      </trkpt>
      <trkpt lat="44.13005" lon="0.65892">
        <ele>65</ele>
        <time>2014-08-24T08:30:24Z</time>
      </trkpt>
      <trkpt lat="44.13005" lon="0.65892">
        <ele>65</ele>
        <time>2014-08-24T08:30:39Z</time>
      </trkpt>
      <trkpt lat="44.13005" lon="0.65892">
        <ele>65</ele>
        <time>2014-08-24T08:30:54Z</time>
      </trkpt>
      <trkpt lat="44.13005" lon="0.65892">
        <ele>65</ele>
        <time>2014-08-24T08:31:09Z</time>
      </trkpt>
      <trkpt lat="44.13004" lon="0.65891">
        <ele>65</ele>
        <time>2014-08-24T08:31:24Z</time>
      </trkpt>
      <trkpt lat="44.13004" lon="0.65891">
        <ele>65</ele>
        <time>2014-08-24T08:31:39Z</time>
      </trkpt>
      <trkpt lat="44.13004" lon="0.65891">
        <ele>65</ele>
        <time>2014-08-24T08:31:54Z</time>
      </trkpt>
      <trkpt lat="44.13004" lon="0.65891">
        <ele>64</ele>
        <time>2014-08-24T08:32:09Z</time>
      </trkpt>
      <trkpt lat="44.13004" lon="0.65891">
        <ele>64</ele>
        <time>2014-08-24T08:32:24Z</time>
      </trkpt>
      <trkpt lat="44.13004" lon="0.65891">
        <ele>64</ele>
        <time>2014-08-24T08:32:39Z</time>
      </trkpt>
      <trkpt lat="44.13004" lon="0.65891">
        <ele>64</ele>
        <time>2014-08-24T08:32:54Z</time>
      </trkpt>
      <trkpt lat="44.12999" lon="0.65888">
        <ele>64</ele>
        <time>2014-08-24T08:33:01Z</time>
      </trkpt>
      <trkpt lat="44.12994" lon="0.65885">
        <ele>64</ele>
        <time>2014-08-24T08:33:05Z</time>
      </trkpt>
      <trkpt lat="44.12989" lon="0.65883">
        <ele>64</ele>
        <time>2014-08-24T08:33:09Z</time>
      </trkpt>
      <trkpt lat="44.12984" lon="0.65882">
        <ele>63</ele>
        <time>2014-08-24T08:33:14Z</time>
      </trkpt>
      <trkpt lat="44.12979" lon="0.65881">
        <ele>63</ele>
        <time>2014-08-24T08:33:19Z</time>
      </trkpt>
      <trkpt lat="44.12974" lon="0.6588">
        <ele>63</ele>
        <time>2014-08-24T08:33:24Z</time>
      </trkpt>
      <trkpt lat="44.1297" lon="0.65879">
        <ele>63</ele>
        <time>2014-08-24T08:33:27Z</time>
      </trkpt>
      <trkpt lat="44.12965" lon="0.65878">
        <ele>63</ele>
        <time>2014-08-24T08:33:31Z</time>
      </trkpt>
      <trkpt lat="44.12959" lon="0.65876">
        <ele>63</ele>
        <time>2014-08-24T08:33:34Z</time>
      </trkpt>
      <trkpt lat="44.12955" lon="0.65874">
        <ele>63</ele>
        <time>2014-08-24T08:33:37Z</time>
      </trkpt>
      <trkpt lat="44.1295" lon="0.65873">
        <ele>63</ele>
        <time>2014-08-24T08:33:40Z</time>
      </trkpt>
      <trkpt lat="44.12945" lon="0.65873">
        <ele>63</ele>
        <time>2014-08-24T08:33:45Z</time>
      </trkpt>
      <trkpt lat="44.1294" lon="0.65872">
        <ele>64</ele>
        <time>2014-08-24T08:33:53Z</time>
      </trkpt>
      <trkpt lat="44.12935" lon="0.65869">
        <ele>64</ele>
        <time>2014-08-24T08:33:56Z</time>
      </trkpt>
      <trkpt lat="44.12929" lon="0.65867">
        <ele>64</ele>
        <time>2014-08-24T08:33:59Z</time>
      </trkpt>
      <trkpt lat="44.12922" lon="0.65865">
        <ele>64</ele>
        <time>2014-08-24T08:34:02Z</time>
      </trkpt>
      <trkpt lat="44.12918" lon="0.65864">
        <ele>64</ele>
        <time>2014-08-24T08:34:06Z</time>
      </trkpt>
      <trkpt lat="44.12913" lon="0.65862">
        <ele>63</ele>
        <time>2014-08-24T08:34:11Z</time>
      </trkpt>
      <trkpt lat="44.12908" lon="0.65861">
        <ele>63</ele>
        <time>2014-08-24T08:34:16Z</time>
      </trkpt>
      <trkpt lat="44.12903" lon="0.6586">
        <ele>63</ele>
        <time>2014-08-24T08:34:21Z</time>
      </trkpt>
      <trkpt lat="44.12896" lon="0.65858">
        <ele>62</ele>
        <time>2014-08-24T08:34:25Z</time>
      </trkpt>
      <trkpt lat="44.12891" lon="0.65854">
        <ele>62</ele>
        <time>2014-08-24T08:34:29Z</time>
      </trkpt>
      <trkpt lat="44.12888" lon="0.6585">
        <ele>62</ele>
        <time>2014-08-24T08:34:32Z</time>
      </trkpt>
      <trkpt lat="44.12886" lon="0.65844">
        <ele>62</ele>
        <time>2014-08-24T08:34:37Z</time>
      </trkpt>
      <trkpt lat="44.12884" lon="0.65837">
        <ele>62</ele>
        <time>2014-08-24T08:34:41Z</time>
      </trkpt>
      <trkpt lat="44.12885" lon="0.6583">
        <ele>62</ele>
        <time>2014-08-24T08:34:46Z</time>
      </trkpt>
      <trkpt lat="44.12885" lon="0.65823">
        <ele>63</ele>
        <time>2014-08-24T08:34:50Z</time>
      </trkpt>
      <trkpt lat="44.12885" lon="0.65817">
        <ele>63</ele>
        <time>2014-08-24T08:34:53Z</time>
      </trkpt>
      <trkpt lat="44.12886" lon="0.65809">
        <ele>63</ele>
        <time>2014-08-24T08:34:57Z</time>
      </trkpt>
      <trkpt lat="44.12885" lon="0.65803">
        <ele>64</ele>
        <time>2014-08-24T08:35:03Z</time>
      </trkpt>
      <trkpt lat="44.12886" lon="0.65796">
        <ele>64</ele>
        <time>2014-08-24T08:35:08Z</time>
      </trkpt>
      <trkpt lat="44.12887" lon="0.65788">
        <ele>64</ele>
        <time>2014-08-24T08:35:12Z</time>
      </trkpt>
      <trkpt lat="44.12889" lon="0.65782">
        <ele>65</ele>
        <time>2014-08-24T08:35:15Z</time>
      </trkpt>
      <trkpt lat="44.1289" lon="0.65776">
        <ele>65</ele>
        <time>2014-08-24T08:35:19Z</time>
      </trkpt>
      <trkpt lat="44.12891" lon="0.65769">
        <ele>66</ele>
        <time>2014-08-24T08:35:23Z</time>
      </trkpt>
      <trkpt lat="44.12892" lon="0.65762">
        <ele>66</ele>
        <time>2014-08-24T08:35:27Z</time>
      </trkpt>
      <trkpt lat="44.12891" lon="0.65754">
        <ele>66</ele>
        <time>2014-08-24T08:35:33Z</time>
      </trkpt>
      <trkpt lat="44.12892" lon="0.65747">
        <ele>66</ele>
        <time>2014-08-24T08:35:36Z</time>
      </trkpt>
      <trkpt lat="44.12893" lon="0.65741">
        <ele>66</ele>
        <time>2014-08-24T08:35:39Z</time>
      </trkpt>
      <trkpt lat="44.12894" lon="0.65734">
        <ele>66</ele>
        <time>2014-08-24T08:35:43Z</time>
      </trkpt>
      <trkpt lat="44.12895" lon="0.65728">
        <ele>66</ele>
        <time>2014-08-24T08:35:46Z</time>
      </trkpt>
      <trkpt lat="44.12896" lon="0.6572">
        <ele>66</ele>
        <time>2014-08-24T08:35:50Z</time>
      </trkpt>
      <trkpt lat="44.12898" lon="0.65713">
        <ele>67</ele>
        <time>2014-08-24T08:35:54Z</time>
      </trkpt>
      <trkpt lat="44.129" lon="0.65706">
        <ele>66</ele>
        <time>2014-08-24T08:35:58Z</time>
      </trkpt>
      <trkpt lat="44.12901" lon="0.65699">
        <ele>66</ele>
        <time>2014-08-24T08:36:03Z</time>
      </trkpt>
      <trkpt lat="44.12904" lon="0.65693">
        <ele>66</ele>
        <time>2014-08-24T08:36:07Z</time>
      </trkpt>
      <trkpt lat="44.12905" lon="0.65686">
        <ele>66</ele>
        <time>2014-08-24T08:36:12Z</time>
      </trkpt>
      <trkpt lat="44.12906" lon="0.6568">
        <ele>66</ele>
        <time>2014-08-24T08:36:16Z</time>
      </trkpt>
      <trkpt lat="44.12907" lon="0.65673">
        <ele>66</ele>
        <time>2014-08-24T08:36:20Z</time>
      </trkpt>
      <trkpt lat="44.12909" lon="0.65666">
        <ele>66</ele>
        <time>2014-08-24T08:36:24Z</time>
      </trkpt>
      <trkpt lat="44.12909" lon="0.65659">
        <ele>65</ele>
        <time>2014-08-24T08:36:28Z</time>
      </trkpt>
      <trkpt lat="44.12911" lon="0.65652">
        <ele>66</ele>
        <time>2014-08-24T08:36:33Z</time>
      </trkpt>
      <trkpt lat="44.1291" lon="0.65645">
        <ele>66</ele>
        <time>2014-08-24T08:36:38Z</time>
      </trkpt>
      <trkpt lat="44.12909" lon="0.65638">
        <ele>66</ele>
        <time>2014-08-24T08:36:45Z</time>
      </trkpt>
      <trkpt lat="44.12907" lon="0.65631">
        <ele>67</ele>
        <time>2014-08-24T08:36:50Z</time>
      </trkpt>
      <trkpt lat="44.12904" lon="0.65625">
        <ele>67</ele>
        <time>2014-08-24T08:36:55Z</time>
      </trkpt>
      <trkpt lat="44.12901" lon="0.65621">
        <ele>67</ele>
        <time>2014-08-24T08:36:58Z</time>
      </trkpt>
      <trkpt lat="44.12897" lon="0.65616">
        <ele>67</ele>
        <time>2014-08-24T08:37:03Z</time>
      </trkpt>
      <trkpt lat="44.12893" lon="0.65611">
        <ele>67</ele>
        <time>2014-08-24T08:37:08Z</time>
      </trkpt>
      <trkpt lat="44.1289" lon="0.65606">
        <ele>67</ele>
        <time>2014-08-24T08:37:13Z</time>
      </trkpt>
      <trkpt lat="44.12886" lon="0.65602">
        <ele>67</ele>
        <time>2014-08-24T08:37:17Z</time>
      </trkpt>
      <trkpt lat="44.12881" lon="0.65597">
        <ele>68</ele>
        <time>2014-08-24T08:37:22Z</time>
      </trkpt>
      <trkpt lat="44.12877" lon="0.65593">
        <ele>68</ele>
        <time>2014-08-24T08:37:26Z</time>
      </trkpt>
      <trkpt lat="44.12872" lon="0.65588">
        <ele>68</ele>
        <time>2014-08-24T08:37:30Z</time>
      </trkpt>
      <trkpt lat="44.12869" lon="0.65582">
        <ele>68</ele>
        <time>2014-08-24T08:37:33Z</time>
      </trkpt>
      <trkpt lat="44.12865" lon="0.65577">
        <ele>68</ele>
        <time>2014-08-24T08:37:37Z</time>
      </trkpt>
      <trkpt lat="44.12861" lon="0.65572">
        <ele>68</ele>
        <time>2014-08-24T08:37:42Z</time>
      </trkpt>
      <trkpt lat="44.12857" lon="0.65567">
        <ele>68</ele>
        <time>2014-08-24T08:37:47Z</time>
      </trkpt>
      <trkpt lat="44.12854" lon="0.65563">
        <ele>68</ele>
        <time>2014-08-24T08:37:51Z</time>
      </trkpt>
      <trkpt lat="44.12851" lon="0.65559">
        <ele>68</ele>
        <time>2014-08-24T08:37:55Z</time>
      </trkpt>
      <trkpt lat="44.12845" lon="0.65557">
        <ele>67</ele>
        <time>2014-08-24T08:38:09Z</time>
      </trkpt>
      <trkpt lat="44.12841" lon="0.65561">
        <ele>67</ele>
        <time>2014-08-24T08:38:13Z</time>
      </trkpt>
      <trkpt lat="44.12837" lon="0.65566">
        <ele>67</ele>
        <time>2014-08-24T08:38:16Z</time>
      </trkpt>
      <trkpt lat="44.12834" lon="0.65572">
        <ele>67</ele>
        <time>2014-08-24T08:38:24Z</time>
      </trkpt>
      <trkpt lat="44.12834" lon="0.65578">
        <ele>68</ele>
        <time>2014-08-24T08:38:33Z</time>
      </trkpt>
      <trkpt lat="44.12829" lon="0.65576">
        <ele>67</ele>
        <time>2014-08-24T08:38:52Z</time>
      </trkpt>
    </trkseg>
  </trk>
</gpx>